[[{"header":{"parameterUnit":"m.s-1","parameterCategory":1,"la1":31.0,"la2":29.5877,"lo1":-88.7671,"lo2":-86.6584,"dy":0.0162,"dx":0.0185,"nx":115,"ny":88,"refTime":"2023-06-20T06:00:00:Z","depth":0,"parameterNumber":2,"parameterNumberName":"U-component_of_WINDS"},"data":[0.0,0.0,0.0,0.0,0.0,0.0,0.0,0.0,0.0,0.0,0.0,0.0,0.0,0.0,0.0,0.0,0.0,0.0,0.0,0.0,0.0,0.0,0.0,0.0,0.0,0.0,0.0,0.0,0.0,0.0,0.0,0.0,0.0,0.0,0.0,0.0,0.0,0.0,0.0,0.0,0.0,0.0,0.0,0.0,0.0,0.0,0.0,0.0,0.0,0.0,0.0,0.0,0.0,0.0,0.0,0.0,0.0,0.0,0.0,0.0,0.0,0.0,0.0,0.0,0.0,0.0,0.0,0.0,0.0,0.0,0.0,0.0,0.0,0.0,0.0,0.0,0.0,0.0,0.0,0.0,0.0,0.0,0.0,0.0,0.0,0.0,0.0,0.0,0.0,0.0,0.0,0.0,0.0,0.0,0.0,0.0,0.0,0.0,0.0,0.0,0.0,0.0,0.0,0.0,0.0,0.0,0.0,0.0,0.0,0.0,0.0,0.0,0.0,0.0,0.0,0.0,0.0,0.0,0.0,0.0,0.0,0.0,0.0,0.0,0.0,0.0,0.0,0.0,0.0,0.0,0.0,0.0,0.0,0.0,0.0,0.0,0.0,0.0,0.0,0.0,0.0,0.0,0.0,0.0,0.0,0.0,0.0,0.0,0.0,0.0,0.0,0.0,0.0,0.0,0.0,0.0,0.0,0.0,0.0,0.0,0.0,0.0,0.0,0.0,0.0,0.0,0.0,0.0,0.0,0.0,0.0,0.0,0.0,0.0,0.0,0.0,0.0,0.0,0.0,0.0,0.0,0.0,0.0,0.0,0.0,0.0,0.0,0.0,0.0,0.0,0.0,0.0,0.0,0.0,0.0,0.0,0.0,0.0,0.0,0.0,0.0,0.0,0.0,0.0,0.0,0.0,0.0,0.0,0.0,0.0,0.0,0.0,0.0,0.0,0.0,0.0,0.0,0.0,0.0,0.0,0.0,0.0,0.0,0.0,0.0,0.0,0.0,0.0,0.0,0.0,0.0,0.0,0.0,0.0,0.0,0.0,0.0,0.0,0.0,0.0,0.0,0.0,0.0,0.0,0.0,0.0,0.0,0.0,0.0,0.0,0.0,0.0,0.0,0.0,0.0,0.0,0.0,0.0,0.0,0.0,0.0,0.0,0.0,0.0,0.0,0.0,0.0,0.0,0.0,0.0,0.0,0.0,0.0,0.0,0.0,0.0,0.0,0.0,0.0,0.0,0.0,0.0,0.0,0.0,0.0,0.0,0.0,0.0,0.0,0.0,0.0,0.0,0.0,0.0,0.0,0.0,0.0,0.0,0.0,0.0,0.0,0.0,0.0,0.0,0.0,0.0,0.0,0.0,0.0,0.0,0.0,0.0,0.0,0.0,0.0,0.0,0.0,0.0,0.0,0.0,0.0,0.0,0.0,0.0,0.0,0.0,0.0,0.0,0.0,0.0,0.0,0.0,0.0,0.0,0.0,0.0,0.0,0.0,0.0,0.0,0.0,0.0,0.0,0.0,0.0,0.0,0.0,0.0,0.0,0.0,0.0,0.0,0.0,0.0,0.0,0.0,0.0,0.0,0.0,0.0,0.0,0.0,0.0,0.0,0.0,0.0,0.0,0.0,0.0,0.0,0.0,0.0,0.0,0.0,0.0,0.0,0.0,0.0,0.0,0.0,0.0,0.0,0.0,0.0,0.0,0.0,0.0,0.0,0.0,0.0,0.0,0.0,0.0,0.0,0.0,0.0,0.0,0.0,0.0,0.0,0.0,0.0,0.0,0.0,0.0,0.0,0.0,0.0,0.0,0.0,0.0,0.0,0.0,0.0,0.0,0.0,0.0,0.0,0.0,0.0,0.0,0.0,0.0,0.0,0.0,0.0,0.0,0.0,0.0,0.0,0.0,0.0,0.0,0.0,0.0,0.0,0.0,0.0,0.0,0.0,0.0,0.0,0.0,0.0,0.0,0.0,0.0,0.0,0.0,0.0,0.0,0.0,0.0,0.0,0.0,0.0,0.0,0.0,0.0,0.0,0.0,0.0,0.0,0.0,0.0,0.0,0.0,0.0,0.0,0.0,0.0,0.0,0.0,0.0,0.0,0.0,0.0,0.0,0.0,0.0,0.0,0.0,0.0,0.0,0.0,0.0,0.0,0.0,0.0,0.0,0.0,0.0,0.0,0.0,0.0,0.0,0.0,0.0,0.0,0.0,0.0,0.0,0.0,0.0,0.0,0.0,0.0,0.0,0.0,0.0,0.0,0.0,0.0,0.0,0.0,0.0,0.0,0.0,0.0,0.0,0.0,0.0,0.0,0.0,0.0,0.0,0.0,0.0,0.0,0.0,0.0,0.0,0.0,0.0,0.0,0.0,0.0,0.0,0.0,0.0,0.0,0.0,0.0,0.0,0.0,0.0,0.0,0.0,0.0,0.0,0.0,0.0,0.0,0.0,0.0,0.0,0.0,0.0,0.0,0.0,0.0,0.0,0.0,0.0,0.0,0.0,0.0,0.0,0.0,0.0,0.0,0.0,0.0,0.0,0.0,0.0,0.0,0.0,0.0,0.0,0.0,0.0,0.0,0.0,0.0,0.0,0.0,0.0,0.0,0.0,0.0,0.0,0.0,0.0,0.0,0.0,0.0,0.0,0.0,0.0,0.0,0.0,0.0,0.0,0.0,0.0,0.0,0.0,0.0,0.0,0.0,0.0,0.0,0.0,0.0,0.0,0.0,0.0,0.0,0.0,0.0,0.0,0.0,0.0,0.0,0.0,0.0,0.0,0.0,0.0,0.0,0.0,0.0,0.0,0.0,0.0,0.0,0.0,0.0,0.0,0.0,0.0,0.0,0.0,0.0,0.0,0.0,0.0,0.0,0.0,0.0,0.0,0.0,0.0,0.0,0.0,0.0,0.0,0.0,0.0,0.0,0.0,0.0,0.0,0.0,0.0,0.0,0.0,0.0,0.0,0.0,0.0,0.0,0.0,0.0,0.0,0.0,0.0,0.0,0.0,0.0,0.0,0.0,0.0,0.0,0.0,0.0,0.0,0.0,0.0,0.0,0.0,0.0,0.0,0.0,0.0,0.0,0.0,0.0,0.0,0.0,0.0,0.0,0.0,0.0,0.0,0.0,0.0,0.0,0.0,0.0,0.0,0.0,0.0,0.0,0.0,0.0,0.0,0.0,0.0,0.0,0.0,0.0,0.0,0.0,0.0,0.0,0.0,0.0,0.0,0.0,0.0,0.0,0.0,0.0,0.0,0.0,0.0,0.0,0.0,0.0,0.0,0.0,0.0,0.0,0.0,0.0,0.0,0.0,0.0,0.0,0.0,0.0,0.0,0.0,0.0,0.0,0.0,0.0,0.0,0.0,0.0,0.0,0.0,0.0,0.0,0.0,0.0,0.0,0.0,0.0,0.0,0.0,0.0,0.0,0.0,0.0,0.0,0.0,0.0,0.0,0.0,0.0,0.0,0.0,0.0,0.0,0.0,0.0,0.0,0.0,0.0,0.0,0.0,0.0,0.0,0.0,0.0,0.0,0.0,0.0,0.0,0.0,0.0,0.0,0.0,0.0,0.0,0.0,0.0,0.0,0.0,0.0,0.0,0.0,0.0,0.0,0.0,0.0,0.0,0.0,0.0,0.0,0.0,0.0,0.0,0.0,0.0,0.0,0.0,0.0,0.0,0.0,0.0,0.0,0.0,0.0,0.0,0.0,0.0,0.0,0.0,0.0,0.0,0.0,0.0,0.0,0.0,0.0,0.0,0.0,0.0,0.0,0.0,0.0,0.0,0.0,0.0,0.0,0.0,0.0,0.0,0.0,0.0,0.0,0.0,0.0,0.0,0.0,0.0,0.0,0.0,0.0,0.0,0.0,0.0,0.0,0.0,0.0,0.0,0.0,0.0,0.0,0.0,0.0,0.0,0.0,0.0,0.0,0.0,0.0,0.0,0.0,0.0,0.0,0.0,0.0,0.0,0.0,0.0,0.0,0.0,0.0,0.0,0.0,0.0,0.0,0.0,0.0,0.0,0.0,0.0,0.0,0.0,0.0,0.0,0.0,0.0,0.0,0.0,0.0,0.0,0.0,0.0,0.0,0.0,0.0,0.0,0.0,0.0,0.0,0.0,0.0,0.0,0.0,0.0,0.0,0.0,0.0,0.0,0.0,0.0,0.0,0.0,0.0,0.0,0.0,0.0,0.0,0.0,0.0,0.0,0.0,0.0,0.0,0.0,0.0,0.0,0.0,0.0,0.0,0.0,0.0,0.0,0.0,0.0,0.6019,0.0,0.0,0.0,0.0,0.0,0.0,0.0,0.0,0.0,0.0,0.0,0.0,0.0,0.0,0.0,0.0,0.0,0.0,0.0,0.0,0.0,0.0,0.0,0.0,0.0,0.0,0.0,0.0,0.0,0.0,0.0,0.0,0.0,0.0,0.0,0.0,0.0,0.0,0.0,0.0,0.0,0.0,0.0,0.0,0.0,0.0,0.0,0.0,0.0,0.0,0.0,0.0,0.0,0.0,0.0,0.0,0.0,0.0,0.0,0.0,0.0,0.0,0.0,0.0,0.0,0.0,0.0,0.0,0.0,0.0,0.0,0.0,0.0,0.0,0.0,0.0,0.0,0.0,0.0,0.0,0.0,0.0,0.0,0.0,0.0,0.0,0.0,0.0,0.0,0.0,0.0,0.0,0.0,0.0,0.0,0.0,0.0,0.0,0.0,0.0,0.0,0.0,0.0,0.0,0.0,0.0,0.0,0.0,0.0,0.0,0.7251,0.6943,0.6702,0.6404,0.6019,0.0,0.0,0.0,0.0,0.0,0.0,0.0,0.0,0.0,0.0,0.0,0.0,0.0,0.0,0.0,0.0,0.0,0.0,0.0,0.0,0.0,0.0,0.0,0.0,0.0,0.0,0.0,0.0,0.0,0.0,0.0,0.0,0.0,0.0,0.0,0.0,0.0,0.0,0.0,0.0,0.0,0.0,0.0,0.0,0.0,0.0,0.0,0.0,0.0,0.0,0.0,0.0,0.0,0.0,0.0,0.0,0.0,0.0,0.0,0.0,0.0,0.0,0.0,0.0,0.0,0.0,0.0,0.0,0.0,0.0,0.0,0.0,0.0,0.0,0.0,0.0,0.0,0.0,0.0,0.0,0.0,0.0,0.0,0.0,0.0,0.0,0.0,0.0,0.0,0.0,0.0,0.0,0.0,0.0,0.0,0.0,0.0,0.0,0.0,0.0,0.0,0.0,0.0,0.0,0.0,0.0,0.0,0.0,0.0,0.0,0.0,0.0,0.6689,0.6319,0.5933,0.0,0.0,0.0,0.0,0.0,0.0,0.0,0.0,0.0,0.0,0.0,0.0,0.0,0.0,0.0,0.0,0.0,0.0,0.0,0.0,0.0,0.0,0.0,0.0,0.0,0.0,0.0,0.0,0.0,0.0,0.0,0.0,0.0,0.0,0.0,0.0,0.0,0.0,0.0,0.0,0.0,0.0,0.0,0.0,0.0,0.0,0.0,0.0,0.0,0.0,0.0,0.0,0.0,0.0,0.0,0.0,0.0,0.0,0.0,0.0,0.0,0.0,0.0,0.0,0.0,0.0,0.0,0.0,0.0,0.0,0.0,0.0,0.0,0.0,0.0,0.0,0.0,0.0,0.0,0.0,0.0,0.0,0.0,0.0,0.0,0.0,0.0,0.0,0.0,0.0,0.0,0.0,0.0,0.0,0.0,0.0,0.0,0.0,0.0,0.0,0.0,0.0,0.0,0.0,0.0,0.0,0.0,0.0,0.0,0.0,0.728,0.7014,0.6689,0.0,0.5771,0.0,0.0,0.0,0.0,0.0,0.0,0.0,0.0,0.0,0.0,0.0,0.0,0.0,0.0,0.0,0.0,0.0,0.0,0.0,0.0,0.0,0.0,0.0,0.0,0.0,0.0,0.0,0.0,0.0,0.0,0.0,0.0,0.0,0.0,0.0,0.0,0.0,0.0,0.0,0.0,0.0,0.0,0.0,0.0,0.0,0.0,0.0,0.0,0.0,0.0,0.0,0.0,0.0,0.0,0.0,0.0,0.0,0.0,0.0,0.0,0.0,0.0,0.0,0.0,0.0,0.0,0.0,0.0,0.0,0.0,0.0,0.0,0.0,0.0,0.0,0.0,0.0,0.0,0.0,0.0,0.0,0.0,0.0,0.0,0.0,0.0,0.0,0.0,0.0,0.0,0.0,0.0,0.0,0.0,0.0,0.0,0.0,0.0,0.0,0.0,0.0,0.0,0.0,0.0,0.0,0.0,0.0,0.0,0.0,0.0,0.7167,0.6956,0.6392,0.5879,0.0,0.0,0.0,0.0,0.0,0.0,0.0,0.0,0.0,0.0,0.0,0.0,0.0,0.0,0.0,0.0,0.0,0.0,0.0,0.0,0.0,0.0,0.0,0.0,0.0,0.0,0.0,0.0,0.0,0.0,0.0,0.0,0.0,0.0,0.0,0.0,0.0,0.0,0.0,0.0,0.0,0.0,0.0,0.0,0.0,0.0,0.0,0.0,0.0,0.0,0.0,0.0,0.0,0.0,0.0,0.0,0.0,0.0,0.0,0.0,0.0,0.0,0.0,0.0,0.0,0.0,0.0,0.0,0.0,0.0,0.0,0.0,0.0,0.0,0.0,0.0,0.0,0.0,0.0,0.0,0.0,0.0,0.0,0.0,0.0,0.0,0.0,0.0,0.0,0.0,0.0,0.0,0.0,0.0,0.0,0.0,0.0,0.0,0.0,0.0,0.0,0.0,0.0,0.0,0.0,0.0,0.0,0.0,0.0,0.0,0.7377,0.7041,0.666,0.6007,0.5491,0.5154,0.0,0.0,0.0,0.0,0.0,0.0,0.0,0.0,0.0,0.0,0.0,0.0,0.0,0.0,0.0,0.0,0.0,0.0,0.0,0.0,0.0,0.0,0.0,0.0,0.0,0.0,0.0,0.0,0.0,0.0,0.0,0.0,0.0,0.0,0.0,0.0,0.0,0.0,0.0,0.0,0.0,0.0,0.0,0.0,0.0,0.0,0.0,0.0,0.0,0.0,0.0,0.0,0.0,0.0,0.0,0.0,0.0,0.0,0.0,0.0,0.0,0.0,0.0,0.0,0.0,0.0,0.0,0.0,0.0,0.0,0.0,0.0,0.0,0.0,0.0,0.0,0.0,0.0,0.0,0.0,0.0,0.0,0.0,0.0,0.0,0.0,0.0,0.0,0.0,0.0,0.0,0.0,0.0,0.0,0.0,0.0,0.0,0.0,0.0,0.0,0.0,0.0,0.0,0.0,0.0,0.0,0.0,0.0,0.7712,0.7377,0.6829,0.6062,0.5588,0.5241,0.0,0.0,0.0,0.0,0.0,0.0,0.0,0.0,0.0,0.0,0.0,0.0,0.0,0.0,0.0,0.0,0.0,0.0,0.0,0.0,0.0,0.0,0.0,0.0,0.0,0.0,0.0,0.0,0.0,0.0,0.0,0.0,0.0,0.0,0.0,0.0,0.0,0.0,0.0,0.0,0.0,0.0,0.0,0.0,0.0,0.0,0.0,0.0,0.0,0.0,0.0,0.0,0.0,0.0,0.0,0.0,0.0,0.0,0.0,0.0,0.0,0.0,0.0,0.0,0.0,0.0,0.0,0.0,0.0,0.0,0.0,0.0,0.0,0.0,0.0,0.0,0.0,0.0,0.0,0.0,0.0,0.0,0.0,0.0,0.0,0.0,0.0,0.0,0.0,0.0,0.0,0.0,0.0,0.0,0.0,0.0,0.0,0.0,0.0,0.0,0.0,0.0,0.0,0.0,0.0,0.0,0.0,0.0,0.0,0.7503,0.6985,0.6477,0.5879,0.5501,0.5154,0.0,0.0,0.0,0.0,0.0,0.0,0.0,0.0,0.0,0.0,0.0,0.0,0.0,0.0,0.0,0.0,0.0,0.0,0.0,0.0,0.0,0.0,0.0,0.0,0.0,0.0,0.0,0.0,0.0,0.0,0.0,0.0,0.0,0.0,0.0,0.0,0.0,0.0,0.0,0.0,0.0,0.0,0.0,0.0,0.0,0.0,0.0,0.0,0.0,0.0,0.0,0.0,0.0,0.0,0.0,0.0,0.0,0.0,0.0,0.0,0.0,0.0,0.0,0.0,0.0,0.0,0.0,0.0,0.0,0.0,0.0,0.0,0.0,0.0,0.0,0.0,0.0,0.0,0.0,0.0,0.0,0.0,0.0,0.0,0.0,0.0,0.0,0.0,0.0,0.0,0.0,0.0,0.0,0.0,0.0,0.0,0.0,0.0,0.0,0.0,0.0,0.0,0.0,0.0,0.0,0.0,0.0,0.0,0.0,0.7335,0.0,0.6264,0.5836,0.5404,0.5067,0.0,0.0,0.0,0.0,0.0,0.0,0.0,0.0,0.0,0.0,0.0,0.0,0.0,0.0,0.0,0.0,0.0,0.0,0.0,0.0,0.0,0.0,0.0,0.0,0.0,0.0,0.0,0.0,0.0,0.0,0.0,0.0,0.0,0.0,0.0,0.0,0.0,0.0,0.0,0.0,0.0,0.0,0.0,0.0,0.0,0.0,0.0,0.0,0.0,0.0,0.0,0.0,0.0,0.0,0.0,0.0,0.0,0.0,0.0,0.0,0.0,0.0,0.0,0.0,0.0,0.0,0.0,0.0,0.0,0.0,0.0,0.0,0.0,0.0,0.0,0.0,0.0,0.0,0.0,0.0,0.0,0.0,0.0,0.0,0.0,0.0,0.0,0.0,0.0,0.0,0.0,0.0,0.0,0.0,0.0,0.0,0.0,0.0,0.0,0.0,0.0,0.0,0.0,0.0,0.0,0.0,0.0,0.0,0.7559,0.7223,0.6745,0.6307,0.5836,0.5361,0.4937,0.0,0.0,0.0,0.0,0.0,0.0,0.0,0.0,0.0,0.0,0.0,0.0,0.0,0.0,0.0,0.0,0.0,0.0,0.0,0.0,0.0,0.0,0.0,0.0,0.0,0.0,0.0,0.0,0.0,0.0,0.0,0.0,0.0,0.0,0.0,0.0,0.0,0.0,0.0,0.0,0.0,0.0,0.0,0.0,0.0,0.0,0.0,0.0,0.0,0.0,0.0,0.0,0.0,0.0,0.0,0.0,0.0,0.0,0.0,0.0,0.0,0.0,0.0,0.0,0.0,0.0,0.0,0.0,0.0,0.0,0.0,0.0,0.0,0.0,0.0,0.0,0.0,0.0,0.0,0.0,0.0,0.0,0.0,0.0,0.0,0.0,0.0,0.0,0.0,0.0,0.0,0.0,0.0,0.0,0.0,0.0,0.0,0.0,0.0,0.0,0.0,0.0,0.0,0.0,0.0,0.0,0.0,0.0,0.0,0.7405,0.7154,0.6774,0.6264,0.5782,0.5275,0.0,0.0,0.0,0.0,0.0,0.0,0.0,0.0,0.0,0.0,0.0,0.0,0.0,0.0,0.0,0.0,0.0,0.0,0.0,0.0,0.0,0.0,0.0,0.0,0.0,0.0,0.0,0.0,0.0,0.0,0.0,0.0,0.0,0.0,0.0,0.0,0.0,0.0,0.0,0.0,0.0,0.0,0.0,0.0,0.0,0.0,0.0,0.0,0.0,0.0,0.0,0.0,0.0,0.0,0.0,0.0,0.0,0.0,0.0,0.0,0.0,0.0,0.0,0.0,0.0,0.0,0.0,0.0,0.0,0.0,0.0,0.0,0.0,0.0,0.0,0.0,0.0,0.0,0.0,0.0,0.0,0.0,0.0,0.0,0.0,0.0,0.0,0.0,0.0,0.0,0.0,0.0,0.0,0.0,0.0,0.0,0.0,0.0,0.0,0.0,0.0,0.0,0.0,0.0,0.0,0.0,0.0,0.0,0.0,0.7972,0.7817,0.748,0.695,0.6371,0.5745,0.496,0.0,0.0,0.0,0.0,0.0,0.0,0.0,0.0,0.0,0.0,0.0,0.0,0.0,0.0,0.0,0.0,0.0,0.0,0.0,0.0,0.0,0.0,0.0,0.0,0.0,0.0,0.0,0.0,0.0,0.0,0.0,0.0,0.0,0.0,0.0,0.0,0.0,0.0,0.0,0.0,0.0,0.0,0.0,0.0,0.0,0.0,0.0,0.0,0.0,0.0,0.0,0.0,0.0,0.0,0.0,0.0,0.0,0.0,0.0,0.0,0.0,0.0,0.0,0.0,0.0,0.0,0.0,0.0,0.0,0.0,0.0,0.0,0.0,0.0,0.0,0.0,0.0,0.0,0.0,0.0,0.0,0.0,0.0,0.0,0.0,0.0,0.0,0.0,0.0,0.0,0.0,0.0,0.0,0.0,0.0,0.0,0.0,0.0,0.0,0.0,0.0,0.0,0.0,0.0,0.0,0.0,0.0,0.0,0.8754,0.8745,0.8362,0.7646,0.7134,0.6362,0.0,0.0,0.0,0.0,0.0,0.0,0.0,0.0,0.0,0.0,0.0,0.0,0.0,0.0,0.0,0.0,0.0,0.0,0.0,0.0,0.0,0.0,0.0,0.0,0.0,0.0,0.0,0.0,0.0,0.0,0.0,0.0,0.0,0.0,0.0,0.0,0.0,0.0,0.0,0.0,0.0,0.0,0.0,0.0,0.0,0.0,0.0,0.0,0.0,0.0,0.0,0.0,0.0,0.0,0.0,0.0,0.0,0.0,0.0,0.0,0.0,0.0,0.0,0.0,0.0,0.0,0.0,0.0,0.0,0.0,0.0,0.0,0.0,0.0,0.0,0.0,0.0,0.0,0.0,0.0,0.0,0.0,0.0,0.0,0.0,0.0,0.0,0.0,0.0,0.0,0.0,0.0,0.0,0.0,0.0,0.0,0.0,0.0,0.0,0.0,0.0,0.0,0.0,0.0,0.0,0.0,0.0,0.0,0.0,0.9597,0.9764,0.9358,0.8301,0.7611,0.673,0.0,0.0,0.0,0.0,0.0,0.0,0.0,0.0,0.0,0.0,0.0,0.0,0.0,0.0,0.0,0.0,0.0,0.0,0.0,0.0,0.0,0.0,0.0,0.0,0.0,0.0,0.0,0.0,0.0,0.0,0.0,0.0,0.0,0.0,0.0,0.0,0.0,0.0,0.0,0.0,0.0,0.0,0.0,0.0,0.0,0.0,0.0,0.0,0.0,0.0,0.0,0.0,0.0,0.0,0.0,0.0,0.0,0.0,0.0,0.0,0.0,0.0,0.0,0.0,0.0,0.0,0.0,0.0,0.0,0.0,0.0,0.0,0.0,0.0,0.0,0.0,0.0,0.0,0.0,0.0,0.0,0.0,0.0,0.0,0.0,0.0,0.0,0.0,0.0,0.0,0.0,0.0,0.0,0.0,0.0,0.0,0.0,0.0,0.0,0.0,0.0,0.0,0.0,0.0,0.0,0.0,0.0,0.0,0.9581,0.9963,1.0229,0.9961,0.9087,0.8396,0.7401,0.0,0.0,0.0,0.0,0.0,0.0,0.0,0.0,0.0,0.0,0.0,0.0,0.0,0.0,0.0,0.0,0.0,0.0,0.0,0.0,0.0,0.0,0.0,0.0,0.0,0.0,0.0,0.0,0.0,0.0,0.0,0.0,0.0,0.0,0.0,0.0,0.0,0.0,0.0,0.0,0.0,0.0,0.0,0.0,0.0,0.0,0.0,0.0,0.0,0.0,0.0,0.0,0.0,0.0,0.0,0.0,0.0,0.0,0.0,0.0,0.0,0.0,0.0,0.0,0.0,0.0,0.0,0.0,0.0,0.0,0.0,0.0,0.0,0.0,0.0,0.0,0.0,0.0,0.0,0.0,0.0,0.0,0.0,0.0,0.0,0.0,0.0,0.0,0.0,0.0,0.0,0.0,0.0,0.0,0.0,0.0,0.0,0.0,0.0,0.0,0.0,0.0,0.0,0.0,0.0,0.0,0.0,0.0,0.9737,1.0157,1.0396,1.0265,0.9799,0.9187,0.8149,0.0,0.0,0.0,0.0,0.0,0.0,0.0,0.0,0.0,0.0,0.0,0.0,0.0,0.0,0.0,0.0,0.0,0.0,0.0,0.0,0.0,0.0,0.0,0.0,0.0,0.0,0.0,0.0,0.0,0.0,0.0,0.0,0.0,0.0,0.0,0.0,0.0,0.0,0.0,0.0,0.0,0.0,0.0,0.0,0.0,0.0,0.0,0.0,0.0,0.0,0.0,0.0,0.0,0.0,0.0,0.0,0.0,0.0,0.0,0.0,0.0,0.0,0.0,0.0,0.0,0.0,0.0,0.0,0.0,0.0,0.0,0.0,0.0,0.0,0.0,0.0,0.0,0.0,0.0,0.0,0.0,0.0,0.0,0.0,0.0,0.0,0.0,0.0,0.0,0.0,0.0,0.0,0.0,0.0,0.0,0.0,0.0,0.0,0.0,0.0,0.0,0.0,0.0,0.0,0.0,0.0,0.0,0.0,0.9898,1.068,1.0576,1.0265,0.9799,0.9278,0.841,0.0,0.0,0.0,0.0,0.0,0.0,0.0,0.0,0.0,0.0,0.0,0.0,0.0,0.0,0.0,0.0,0.0,0.0,0.0,0.0,0.0,0.0,0.0,0.0,0.0,0.0,0.0,0.0,0.0,0.0,0.0,0.0,0.0,0.0,0.0,0.0,0.0,0.0,0.0,0.0,0.0,0.0,0.0,0.0,0.0,0.0,0.0,0.0,-1.1035,0.0,0.0,0.0,0.0,0.0,0.0,0.0,0.0,0.0,0.0,0.0,0.0,0.0,0.0,0.0,0.0,0.0,0.0,0.0,0.0,0.0,0.0,0.0,0.0,0.0,0.0,0.0,0.0,0.0,0.0,0.0,0.0,0.0,0.0,0.0,0.0,0.0,0.0,0.0,0.0,0.0,0.0,0.0,0.0,0.0,0.0,0.0,0.0,0.0,0.0,0.0,0.0,0.0,0.0,0.0,0.0,0.0,0.0,0.0,1.0205,1.0846,1.0777,1.0419,0.9903,0.9524,0.8763,0.0,0.0,0.0,0.0,0.0,0.0,0.0,0.0,0.0,0.0,0.0,0.0,0.0,0.0,0.0,0.0,0.0,0.0,0.0,0.0,0.0,0.0,0.0,0.0,0.0,0.0,0.0,0.0,0.0,0.0,0.0,0.0,0.0,0.0,0.0,0.0,0.0,0.0,0.0,0.0,0.0,0.0,0.0,0.0,0.0,0.0,0.0,0.0,0.0,0.0,0.0,0.0,0.0,0.0,0.0,0.0,0.0,0.0,0.0,0.0,0.0,0.0,0.0,0.0,0.0,0.0,0.0,0.0,0.0,0.0,0.0,0.0,0.0,0.0,0.0,0.0,0.0,0.0,0.0,0.0,0.0,0.0,0.0,0.0,0.0,0.0,0.0,0.0,0.0,0.0,0.0,0.0,0.0,0.0,0.0,0.0,0.0,0.0,0.0,0.0,0.0,0.0,0.0,0.0,0.0,0.0,0.0,1.0025,1.0483,1.0846,1.0879,1.0608,1.0007,0.9732,0.904,0.7824,0.0,0.0,0.0,0.0,0.0,0.0,0.0,0.0,0.0,0.0,0.0,0.0,0.0,0.0,0.0,0.0,0.0,0.0,0.0,0.0,0.0,0.0,0.0,0.0,0.0,0.0,0.0,0.0,0.0,0.0,0.0,0.0,0.0,0.0,0.0,0.0,0.0,0.0,-0.725,-0.8765,0.0,0.0,0.0,0.0,0.0,0.0,0.0,0.0,-1.2589,0.0,0.0,0.0,0.0,0.0,0.0,0.0,0.0,0.0,0.0,0.0,0.0,0.0,0.0,0.0,0.0,0.0,0.0,0.0,0.0,0.0,0.0,0.0,0.0,0.0,0.0,0.0,0.0,0.0,0.0,0.0,0.0,0.0,0.0,0.0,0.0,0.0,0.0,0.0,0.0,0.0,0.0,0.0,0.0,0.0,0.0,0.0,0.0,0.0,0.0,0.0,0.0,0.0,0.0,0.0,0.0,0.9313,0.9994,1.0434,1.071,1.0812,1.0608,0.9991,0.9718,0.9197,0.8302,0.0,0.0,0.0,0.0,0.0,0.0,0.0,0.0,0.0,0.0,0.0,0.0,0.0,0.0,0.0,0.0,0.0,0.0,0.0,0.0,0.0,0.0,0.0,0.0,0.0,0.0,0.0,0.0,0.0,0.0,0.0,0.0,0.0,0.0,0.0,0.0,0.0,0.0,0.0,-0.9839,-1.0606,0.0,0.0,0.0,0.0,0.0,0.0,0.0,0.0,-1.2754,0.0,0.0,0.0,0.0,0.0,0.0,0.0,0.0,0.0,0.0,0.0,0.0,0.0,0.0,0.0,0.0,0.0,0.0,0.0,0.0,0.0,0.0,0.0,0.0,0.0,0.0,0.0,0.0,0.0,0.0,0.0,0.0,0.0,0.0,0.0,0.0,0.0,0.0,0.0,0.0,0.0,0.0,0.0,0.0,0.0,0.0,0.0,0.0,0.0,0.0,0.0,0.0,0.0,0.0,0.0,0.9549,1.0173,1.0597,1.071,1.0777,1.0522,1.0058,0.9732,0.9249,0.0,0.0,0.0,0.0,0.0,0.0,0.0,0.0,0.0,0.0,0.0,0.0,0.0,0.0,0.0,0.0,0.0,0.0,0.0,0.0,0.0,0.0,0.0,0.0,0.0,0.0,0.0,0.0,0.0,0.0,0.0,0.0,0.0,0.0,0.0,0.0,0.0,0.0,0.0,0.0,-1.0949,-1.1517,-1.179,0.0,0.0,0.0,0.0,0.0,0.0,-1.3153,-1.308,0.0,0.0,0.0,0.0,0.0,0.0,0.0,0.0,0.0,0.0,0.0,0.0,0.0,0.0,0.0,0.0,0.0,0.0,0.0,0.0,0.0,0.0,0.0,0.0,0.0,0.0,0.0,0.0,0.0,0.0,0.0,0.0,0.0,0.0,0.0,0.0,0.0,0.0,0.0,0.0,0.0,0.0,0.0,0.0,0.0,0.0,0.0,0.0,0.0,0.0,0.0,0.0,0.0,0.0,0.0,0.98,1.0396,1.0675,1.0675,1.0675,1.047,0.9991,0.9732,0.9249,0.0,0.0,0.0,0.0,0.0,0.0,0.0,0.0,0.0,0.0,0.0,0.0,0.0,0.0,0.0,0.0,0.0,0.0,0.0,0.0,0.0,0.0,0.0,0.0,0.0,0.0,0.0,0.0,0.0,0.0,0.0,0.0,0.0,0.0,0.0,0.0,0.0,0.0,0.0,0.0,0.0,-1.2319,-1.2667,-1.2676,0.0,0.0,0.0,0.0,-1.3406,-1.342,0.0,0.0,0.0,0.0,0.0,0.0,0.0,0.0,0.0,0.0,0.0,0.0,0.0,0.0,0.0,0.0,0.0,0.0,0.0,0.0,0.0,0.0,0.0,0.0,0.0,0.0,0.0,0.0,0.0,0.0,0.0,0.0,0.0,0.0,0.0,0.0,0.0,0.0,0.0,0.0,0.0,0.0,0.0,0.0,0.0,0.0,0.0,0.0,0.0,0.0,0.0,0.0,0.0,0.0,0.0,0.0,0.98,1.0396,1.0675,1.0522,1.0624,1.047,1.0007,0.9732,0.9249,0.0,0.0,0.0,0.0,0.0,0.0,0.0,0.0,0.0,0.0,0.0,0.0,0.0,0.0,0.0,0.0,0.0,0.0,0.0,0.0,0.0,0.0,0.0,0.0,0.0,0.0,0.0,0.0,0.0,0.0,0.0,0.0,0.0,0.0,0.0,0.0,0.0,0.0,0.0,0.0,0.0,-1.2667,-1.2871,-1.2676,-1.2578,0.0,0.0,-1.3132,-1.3292,-1.3599,0.0,0.0,0.0,0.0,0.0,0.0,0.0,0.0,0.0,0.0,0.0,0.0,0.0,0.0,0.0,0.0,0.0,0.0,0.0,0.0,0.0,0.0,0.0,0.0,0.0,0.0,0.0,0.0,0.0,0.0,0.0,0.0,0.0,0.0,0.0,0.0,0.0,0.0,0.0,0.0,0.0,0.0,0.0,0.0,0.0,0.0,0.0,0.0,0.0,0.0,0.0,0.0,0.0,0.0,0.0,0.9445,1.0081,1.0391,1.0573,1.0522,1.0573,1.0403,0.9991,0.9732,0.9249,0.0,0.0,0.0,0.0,0.0,0.0,0.0,0.0,0.0,0.0,0.0,0.0,0.0,0.0,0.0,0.0,0.0,0.0,0.0,0.0,0.0,0.0,0.0,0.0,0.0,0.0,0.0,0.0,0.0,0.0,0.0,0.0,0.0,0.0,0.0,0.0,0.0,0.0,0.0,0.0,0.0,0.0,-1.3045,-1.2852,0.0,0.0,0.0,-1.329,-1.3926,0.0,0.0,0.0,0.0,0.0,0.0,0.0,0.0,0.0,0.0,0.0,0.0,0.0,0.0,0.0,0.0,0.0,0.0,0.0,0.0,0.0,0.0,0.0,0.0,0.0,0.0,0.0,0.0,0.0,0.0,0.0,0.0,0.0,0.0,0.0,0.0,0.0,0.0,0.0,0.0,0.0,0.0,0.0,0.0,0.0,0.0,0.0,0.0,0.0,0.0,0.0,0.0,0.0,0.0,0.0,0.0,0.0,1.0368,1.047,1.0522,1.0522,1.0522,1.03,0.9991,0.9732,0.0,0.0,0.0,0.0,0.0,0.0,0.0,0.0,0.0,0.0,0.0,0.0,0.0,0.0,0.0,0.0,0.0,0.0,0.0,0.0,0.0,0.0,0.0,0.0,0.0,0.0,0.0,-0.401,0.0,0.0,0.0,0.0,0.0,0.0,0.0,0.0,0.0,0.0,0.0,0.0,0.0,0.0,-1.3452,-1.3609,-1.3382,-1.325,0.0,0.0,-1.367,-1.4278,-1.4184,-1.3947,0.0,0.0,0.0,0.0,0.0,0.0,0.0,0.0,0.0,0.0,0.0,0.0,0.0,0.0,0.0,0.0,0.0,0.0,0.0,0.0,0.0,0.0,0.0,0.0,0.0,0.0,0.0,0.0,0.0,0.0,0.0,0.0,0.0,0.0,0.0,0.0,0.0,0.0,0.0,0.0,0.0,0.0,0.0,0.0,0.0,0.0,0.0,0.0,0.0,0.0,0.0,0.0,0.0,0.0,0.9657,1.0454,1.0522,1.0522,1.0522,1.0522,1.0352,1.0007,0.9732,0.9302,0.0,0.0,0.0,0.0,0.0,0.0,0.0,0.0,0.0,0.0,0.0,0.0,0.0,0.0,0.0,0.0,0.0,0.0,0.0,0.0,0.0,0.0,0.0,0.0,0.0,0.0,0.0,0.0,0.0,0.0,0.0,0.0,0.0,0.0,0.0,0.0,0.0,0.0,0.0,0.0,0.0,-1.4202,-1.4643,-1.4274,-1.3903,0.0,-1.4124,-1.4185,-1.3921,-1.4176,-1.4255,-1.3631,0.0,0.0,0.0,0.0,0.0,0.0,0.0,0.0,0.0,0.0,0.0,0.0,0.0,0.0,0.0,0.0,0.0,0.0,0.0,0.0,0.0,0.0,0.0,0.0,0.0,0.0,0.0,0.0,0.0,0.0,0.0,0.0,0.0,0.0,0.0,0.0,0.0,0.0,0.0,0.0,0.0,0.0,0.0,0.0,0.0,0.0,0.0,0.0,0.0,0.0,0.0,0.0,0.0,0.9753,1.0368,1.0368,1.0368,1.0368,1.0368,1.0265,1.0007,0.9681,0.9249,0.0,0.0,0.0,0.0,0.0,0.0,0.0,0.0,0.0,0.0,0.0,0.0,0.0,0.0,0.0,0.0,0.0,0.0,0.0,0.0,0.0,0.0,0.0,0.0,0.0,0.0,0.0,0.0,-0.5882,-0.6598,-0.7041,0.0,0.0,0.0,0.0,0.0,0.0,0.0,0.0,0.0,0.0,-1.4301,-1.4566,-1.4301,0.0,0.0,-1.4185,-1.4089,-1.4194,-1.4004,-1.3752,-1.3285,-1.292,0.0,0.0,0.0,0.0,0.0,0.0,0.0,0.0,0.0,0.0,0.0,0.0,0.0,0.0,0.0,0.0,0.0,0.0,0.0,0.0,0.0,0.0,0.0,0.0,0.0,0.0,0.0,0.0,0.0,0.0,0.0,0.0,0.0,0.0,0.0,0.0,0.0,0.0,0.0,0.0,0.0,0.0,0.0,0.0,0.0,0.0,0.0,0.0,0.0,0.0,0.0,0.0,0.9777,1.0368,1.0368,1.0415,1.0523,1.0523,1.0417,1.0242,0.9766,0.939,0.0,0.0,0.0,0.0,0.0,0.0,0.0,0.0,0.0,0.0,0.0,0.0,0.0,0.0,0.0,0.0,0.0,0.0,0.0,0.0,0.0,0.0,0.0,0.0,0.0,0.0,0.0,0.0,-0.6061,-0.6855,-0.7245,0.0,0.0,0.0,0.0,0.0,0.0,0.0,0.0,0.0,0.0,-1.4586,-1.473,-1.4531,-1.4407,-1.4525,-1.4277,-1.4081,-1.4177,-1.3839,-1.3437,-1.2943,0.0,0.0,0.0,0.0,0.0,0.0,0.0,0.0,0.0,0.0,0.0,0.0,0.0,0.0,0.0,0.0,0.0,0.0,0.0,0.0,0.0,0.0,0.0,0.0,0.0,0.0,0.0,1.0316,0.0,0.0,0.9629,0.0,0.0,0.0,0.0,0.0,0.0,0.0,0.0,0.0,0.0,0.0,0.0,0.0,0.0,0.0,0.0,0.0,0.0,0.0,0.0,0.0,0.0,0.9631,1.0492,1.0492,1.0659,1.0963,1.0978,1.0906,1.0763,1.0202,0.9769,0.9508,0.0,0.0,0.0,0.0,0.0,0.0,0.0,0.0,0.0,0.0,0.0,0.0,0.0,0.0,0.0,0.0,0.0,0.0,0.0,0.0,0.0,0.0,0.0,0.0,0.0,0.0,-0.4931,-0.6336,-0.7369,0.0,0.0,0.0,0.0,0.0,0.0,0.0,0.0,0.0,-1.4486,-1.4792,-1.5059,-1.5332,-1.5177,-1.4824,-1.4588,-1.4469,-1.4291,-1.3666,-1.3712,-1.3553,0.0,0.0,0.0,0.0,0.0,0.0,0.0,0.0,0.0,0.0,0.0,0.0,0.0,0.0,0.0,0.0,0.0,0.0,0.0,0.0,0.0,0.0,0.0,0.0,0.0,0.0,0.0,1.084,1.0479,0.0,0.0,0.0,0.0,0.0,0.0,0.0,0.0,0.0,0.0,0.0,0.9962,0.9673,0.0,0.0,0.0,0.0,0.0,0.0,0.0,0.0,0.0,0.0,0.0,0.0,0.9289,0.9947,1.0093,1.0307,1.0523,1.0537,1.0523,1.0465,1.008,0.9697,0.9284,0.0,0.0,0.0,0.0,0.0,0.0,0.0,0.0,0.0,0.0,0.0,0.0,0.0,0.0,0.0,0.0,0.0,0.0,0.0,0.0,0.0,0.0,0.0,0.0,0.0,-0.5026,0.0,0.0,0.0,0.0,0.0,0.0,0.0,0.0,0.0,0.0,-1.2935,-1.3629,-1.4231,-1.4736,-1.5055,-1.5116,-1.5155,-1.5088,0.0,0.0,0.0,0.0,0.0,0.0,0.0,0.0,0.0,0.0,0.0,0.0,0.0,0.0,-1.2394,-1.2628,-1.3065,-1.3584,-1.4049,0.0,0.0,0.0,0.0,0.0,0.0,0.0,0.0,0.0,0.0,0.0,0.0,0.0,0.0,1.0952,1.0565,1.0192,0.0,0.0,0.0,0.0,0.0,0.0,0.0,0.0,1.0223,1.0159,1.0159,0.986,0.962,0.9379,0.9078,0.8705,0.0,0.0,0.0,0.0,0.0,0.0,0.0,0.0,0.9035,0.971,0.9843,1.0096,1.0384,1.0443,1.0443,1.0443,1.0168,0.9721,0.9195,0.8669,0.8151,0.0,0.0,0.0,0.0,0.0,0.0,0.0,0.0,0.0,0.0,0.0,0.0,0.0,0.0,0.0,0.0,0.0,0.0,0.0,0.0,0.0,0.0,0.0,-0.5192,0.0,0.0,0.0,0.0,0.0,0.0,0.0,0.0,0.0,-1.2506,-1.3075,-1.3644,-1.4091,-1.4541,-1.48,-1.4836,0.0,0.0,0.0,0.0,0.0,0.0,0.0,-1.2892,-1.2261,-1.172,-1.1262,-1.0863,-1.0815,-1.0932,-1.1411,0.0,0.0,-1.2499,-1.3182,-1.3838,-1.4245,-1.5325,-1.6165,-1.6309,-1.7369,-1.8249,0.0,0.0,0.0,0.0,1.0666,0.0,0.0,0.0,1.0825,1.0768,0.0,1.0034,0.0,0.0,0.0,0.0,0.9141,0.984,0.0,0.0,1.0635,1.0708,1.0581,1.0391,1.0149,0.9829,0.9496,0.911,0.8753,0.8149,0.0,0.0,0.0,0.0,0.0,0.0,0.8813,0.9723,0.9749,1.0014,1.0528,1.0667,1.073,1.0717,1.0335,0.9813,0.9246,0.8776,0.8303,0.7828,0.722,0.0,0.0,0.0,0.0,0.0,0.0,0.0,0.0,0.0,0.0,0.0,0.0,0.0,0.0,0.0,0.0,0.0,0.0,0.0,0.0,-0.4813,0.0,0.0,0.0,0.0,0.0,0.0,0.0,0.0,0.0,-1.1747,-1.2383,-1.3075,-1.3621,-1.3916,0.0,0.0,0.0,0.0,-1.4744,-1.4098,-1.38,-1.3549,-1.3096,-1.2735,-1.2374,-1.1891,0.0,0.0,-1.095,-1.084,-1.0908,-1.1146,-1.1513,-1.2172,-1.3042,-1.3796,-1.4462,-1.5003,-1.5634,-1.6218,-1.6446,-1.6935,-1.7517,1.2695,0.0,0.0,0.0,0.0,1.1586,1.1555,1.116,1.1343,1.116,1.0718,1.0254,0.0,0.0,0.0,0.0,0.0,0.0,1.0327,1.0638,1.0728,1.0766,1.0779,1.0577,1.0442,1.0374,0.99,0.9593,0.9456,0.8783,0.8086,0.7449,0.0,0.0,0.0,0.0,0.8332,0.8892,0.9256,0.9642,1.0047,1.006,1.011,1.0238,1.0034,0.9769,0.9419,0.9056,0.8617,0.8101,0.7594,0.0,0.0,0.0,0.0,0.0,0.0,0.0,0.0,0.0,0.0,0.0,0.0,0.0,0.0,0.0,0.0,0.0,0.0,0.0,-0.3779,-0.4406,-0.496,0.0,0.0,0.0,0.0,0.0,0.0,0.0,0.0,0.0,-1.2049,-1.2891,-1.3591,0.0,0.0,-1.4244,-1.4223,-1.4226,-1.4159,-1.412,-1.3752,0.0,-1.2985,-1.248,-1.2104,-1.1865,-1.1283,-1.0693,-1.0279,-1.022,-1.0311,-1.0708,-1.1024,-1.1512,-1.2257,-1.3094,-1.3738,-1.413,-1.5012,-1.5732,-1.5826,-1.6635,-1.7468,1.3553,1.2767,1.2228,1.1809,1.16,1.2074,1.1955,1.1524,1.1668,1.1488,1.1019,1.0586,1.0251,0.993,0.9515,0.0,0.0,0.0,1.0381,1.0736,1.0805,1.0805,1.0736,1.0679,1.0541,1.0333,0.9997,0.9788,0.9648,0.9006,0.8391,0.7737,0.0,0.7526,0.7654,0.7912,0.8244,0.8701,0.8941,0.9171,0.9498,0.9596,0.9664,0.9779,0.9664,0.9536,0.9396,0.9022,0.8635,0.8236,0.7652,0.7034,0.0,0.0,0.0,0.0,0.0,0.0,0.0,0.0,0.0,0.0,0.0,0.1212,0.0741,0.0,0.0,0.0,-0.2172,-0.2809,-0.3466,-0.4023,0.0,0.0,0.0,0.0,0.0,0.0,0.0,-0.9416,-1.0335,-1.1109,-1.1527,-1.2263,-1.2917,-1.3332,-1.347,-1.3584,-1.3595,0.0,-1.3273,-1.339,-1.3198,-1.2912,-1.2492,-1.2056,-1.1569,-1.1257,-1.0701,-1.0264,-1.011,-1.0038,-1.0233,-1.0575,-1.0858,-1.1196,-1.1629,-1.2407,-1.3114,-1.3534,-1.4402,-1.5227,-1.5442,-1.6381,-1.73,1.4321,1.3925,1.2912,1.238,1.2294,1.2623,1.2405,1.1873,1.1955,1.1765,1.1354,1.1011,1.0679,1.0251,0.9985,0.0,0.981,1.016,1.0369,1.0602,1.0729,1.0729,1.0602,1.0602,1.0393,1.0044,0.9915,0.9704,0.9574,0.8998,0.8654,0.846,0.8308,0.8208,0.824,0.8231,0.8443,0.8785,0.8658,0.8748,0.9052,0.9159,0.9356,0.946,0.9332,0.9268,0.9204,0.8765,0.8376,0.8107,0.754,0.7038,0.6591,0.0,0.0,0.0,0.0,0.0,0.0,0.0,0.0,0.0,0.0,0.0,0.0,0.0,0.0,0.0,-0.2077,0.0,-0.3056,-0.3568,0.0,0.0,0.0,-0.5676,-0.6459,-0.7183,-0.7914,-0.8695,0.0,0.0,-1.0827,-1.1328,-1.1832,-1.2444,-1.2586,-1.2628,-1.2778,-1.2512,-1.2218,-1.2271,-1.2283,-1.2158,-1.1797,-1.1362,-1.088,-1.0335,-1.0019,-0.9965,-1.0134,-1.0174,-1.0339,-1.0585,-1.0982,-1.1241,-1.1262,-1.1952,-1.2576,-1.3187,-1.4024,-1.4782,-1.5419,-1.6093,-1.6854,1.5391,1.5015,1.4547,1.3708,1.2497,1.2526,1.2473,1.2283,1.2051,1.1696,1.1149,1.1011,1.061,1.0055,0.9985,0.9949,1.0062,1.0133,1.0298,1.0557,1.0557,1.0557,1.0557,1.0557,1.0495,1.0336,1.0199,1.0125,0.9977,0.9458,0.9175,0.9326,0.8952,0.8412,0.7753,0.7877,0.7948,0.8009,0.8253,0.8492,0.8737,0.8864,0.8953,0.8969,0.8958,0.8829,0.87,0.8582,0.8247,0.7717,0.7483,0.7043,0.6257,0.5895,0.0,0.0,0.0,0.0,0.0,0.0,0.0,0.0,0.0,0.1471,0.1144,0.0,-0.0214,0.0,-0.1799,-0.2247,-0.2478,-0.299,0.0,0.0,-0.4656,-0.5451,-0.605,-0.6821,-0.7643,-0.8412,-0.8975,-0.952,-0.9894,-1.0323,-1.0571,-1.0576,-1.1378,-1.1931,-1.2009,-1.1979,-1.1866,-1.1649,-1.1558,-1.142,-1.1044,-1.0746,-1.0315,-0.9824,-0.9696,-0.9656,-0.9529,-0.9702,-0.9894,-1.0115,-1.0376,-1.0707,-1.1222,-1.1607,-1.2037,-1.2529,-1.341,-1.4235,-1.4967,-1.5641,-1.6287,1.5758,1.5543,1.5312,1.4637,1.3735,1.3447,1.3331,1.3128,1.2882,1.2503,1.1844,1.1636,1.1193,1.0599,1.0599,1.0519,1.0492,1.0503,1.0571,1.0772,1.0772,1.0861,1.085,1.0772,1.0772,1.0695,1.054,1.0473,1.0395,0.9927,0.9764,0.9797,0.9477,0.8908,0.8049,0.8103,0.8013,0.7768,0.7907,0.8127,0.8196,0.8303,0.8327,0.8403,0.8364,0.8312,0.8257,0.8192,0.7972,0.7598,0.7441,0.7103,0.6627,0.6216,0.5755,0.0,0.0,0.0,0.0,0.0,0.0,0.0,0.0,0.0,0.0,0.0,0.0073,-0.0889,-0.141,-0.1789,-0.2035,-0.249,-0.3013,-0.3385,-0.4185,-0.4909,-0.56,-0.627,-0.6942,-0.7633,-0.8093,-0.8502,-0.8817,-0.9145,-0.9339,-0.9282,-0.9829,-1.0484,-1.0953,-1.1051,-1.0988,-1.075,-1.0708,-1.0584,-1.0335,-1.0035,-0.9866,-0.9533,-0.9443,-0.9428,-0.9349,-0.9437,-0.9611,-0.997,-1.0124,-1.0485,-1.0959,-1.1431,-1.1839,-1.2389,-1.302,-1.3804,-1.4475,-1.5241,-1.5903,1.5809,1.5825,1.5592,1.5451,1.528,1.4825,1.4388,1.3988,1.3817,1.3423,1.2816,1.2485,1.1926,1.1364,1.1284,1.1203,1.0869,1.088,1.095,1.1111,1.1111,1.1111,1.1111,1.1111,1.1031,1.088,1.088,1.08,1.0557,1.0395,1.0253,1.0121,0.9866,0.9456,0.8881,0.8801,0.8436,0.7821,0.771,0.7668,0.77,0.7669,0.7756,0.7904,0.7731,0.7756,0.7922,0.7821,0.7721,0.7632,0.7413,0.724,0.713,0.6641,0.6125,0.0,0.5237,0.0,0.0,0.0,0.0,0.0,0.0,0.0,0.0,0.0883,0.0297,-0.0607,-0.0913,-0.1228,-0.1569,-0.2042,-0.251,-0.2976,-0.3604,-0.4311,-0.5007,-0.5491,-0.5964,-0.6662,-0.7072,-0.7454,-0.7756,-0.802,-0.8159,-0.8286,-0.8427,-0.8792,-0.9627,-0.9978,-0.9938,-0.9784,-0.9711,-0.9648,-0.9529,-0.941,-0.9331,-0.9165,-0.9165,-0.9174,-0.9262,-0.9262,-0.9349,-0.9726,-1.0042,-1.0362,-1.0571,-1.1212,-1.1796,-1.2309,-1.2814,-1.3368,-1.4141,-1.4888,-1.571,1.654,1.6443,1.628,1.6199,1.6118,1.5628,1.5021,1.4252,1.3909,1.3344,1.2657,1.2406,1.2006,1.1525,1.1364,1.1203,1.0961,1.08,1.0719,1.0719,1.0719,1.0719,1.0719,1.0708,1.0708,1.0638,1.0638,1.0638,1.0557,1.0395,1.0326,1.0502,1.0085,0.9834,0.9508,0.0,0.0,0.0,0.7675,0.7568,0.7539,0.7358,0.7334,0.7377,0.7401,0.0,0.7606,0.7826,0.773,0.7368,0.7522,0.0,0.0,0.0,0.0,0.0,0.0,0.0,0.0,0.0,0.0,0.0,0.3203,0.25,0.1711,0.1318,0.0776,-0.0078,-0.0234,-0.0547,-0.1335,-0.1492,-0.1806,-0.251,-0.2979,-0.3604,-0.4233,-0.4624,-0.5074,-0.5873,-0.6128,-0.6368,-0.6812,-0.7058,-0.7155,-0.7199,-0.7468,-0.7781,-0.8002,-0.8699,-0.907,-0.8835,-0.8803,-0.8844,-0.8807,-0.864,-0.8552,-0.8376,-0.8376,-0.8464,-0.8464,-0.8823,-0.8999,-0.9183,-0.9598,-1.0157,-1.048,-1.1062,-1.1562,-1.2266,-1.2684,-1.3177,-1.4124,-1.4886,-1.5563,1.673,1.673,1.6566,1.6468,0.0,1.6072,1.5561,1.5021,1.4603,1.4035,1.3313,1.2985,1.256,1.2147,1.1827,1.1577,1.1327,1.1077,1.091,1.0993,1.0899,1.091,1.091,1.091,1.0899,1.091,1.0993,1.0993,1.091,1.0826,1.0795,1.0825,1.057,1.0313,0.9885,0.9356,0.8822,0.8299,0.7707,0.7492,0.7633,0.7309,0.7277,0.7442,0.7495,0.0,0.0,0.0,0.0,0.0,0.0,0.0,0.0,0.7492,0.0,0.7031,0.6471,0.6022,0.5676,0.5273,0.4811,0.4448,0.3695,0.2828,0.1792,0.1463,0.1138,0.0732,0.0244,-0.0163,-0.057,-0.1057,-0.1463,-0.1867,-0.2516,-0.3086,-0.3656,-0.4018,-0.4458,-0.5115,-0.5322,-0.5633,-0.6039,-0.6135,-0.6329,-0.6478,-0.6628,-0.6847,-0.7027,-0.7628,-0.8147,-0.806,-0.8036,-0.8105,-0.8201,-0.8113,-0.8025,-0.8025,-0.8025,-0.8113,-0.812,-0.8384,-0.8552,-0.8752,-0.9311,-0.9819,-1.0288,-1.082,-1.1463,-1.2047,-1.2565,-1.305,-1.3727,-1.4388,-1.4962,1.6921,1.6921,1.6921,1.6822,1.6656,1.6437,1.6171,1.5821,1.5285,0.0,0.0,1.3659,1.3222,1.2796,1.2283,1.1952,1.1791,1.1521,1.1348,1.1262,1.1262,1.1262,1.1262,1.1262,1.1262,1.1262,1.1262,1.1262,1.1262,1.1262,1.1176,1.1089,1.1013,1.0743,1.0115,0.9524,0.9021,0.8704,0.7983,0.7717,0.7877,0.7488,0.7451,0.7781,0.7599,0.7691,0.8009,0.8118,0.8159,0.8152,0.8198,0.8304,0.8409,0.8125,0.7951,0.7843,0.7281,0.6709,0.6319,0.5907,0.5409,0.4925,0.4075,0.3049,0.1936,0.1598,0.143,0.1347,0.0589,0.0168,-0.0,-0.0673,-0.1261,-0.1346,-0.2018,-0.2606,-0.3109,-0.3546,-0.3974,-0.4395,-0.4662,-0.4954,-0.5308,-0.541,-0.5523,-0.5786,-0.5885,-0.5991,-0.6251,-0.677,-0.7298,-0.7298,-0.7305,-0.7401,-0.7584,-0.7584,-0.7672,-0.768,-0.7672,-0.7768,-0.7944,-0.812,-0.8288,-0.8464,-0.9026,-0.9511,-1.0045,-1.0619,-1.1277,-1.1785,-1.2273,-1.2759,-1.3244,-1.3823,-1.4388,1.762,1.762,1.762,1.762,1.762,1.7376,1.7044,1.6548,1.5319,1.4503,1.4082,1.3828,1.3476,1.3052,1.2711,1.2369,1.1963,1.1705,1.1532,1.1262,1.1262,1.1262,1.1262,1.1262,1.1262,1.1262,1.1262,1.1262,1.1262,1.1262,1.1262,1.1262,1.1089,1.0829,1.0559,1.0096,0.9808,0.977,0.873,0.8302,0.8294,0.7948,0.7766,0.7744,0.7633,0.7599,0.7815,0.8115,0.83,0.8353,0.8535,0.8657,0.862,0.8638,0.841,0.8098,0.7942,0.7666,0.714,0.6892,0.6257,0.5401,0.4617,0.3674,0.2703,0.2188,0.185,0.143,0.0844,0.0421,0.0084,-0.0422,-0.0928,-0.1347,-0.1599,-0.2102,-0.2616,-0.2912,-0.3286,-0.3804,-0.3951,-0.4255,-0.4714,-0.4812,-0.49,-0.5092,-0.5275,-0.5186,-0.5364,-0.5985,-0.6517,-0.6517,-0.6517,-0.6605,-0.6694,-0.6605,-0.6789,-0.6972,-0.7143,-0.7326,-0.7503,-0.7768,-0.7937,-0.8201,-0.8754,-0.9241,-0.9562,-1.0245,-1.0947,-1.1296,-1.1785,-1.237,-1.2856,-1.334,-1.4016,1.7763,1.7763,1.7763,1.7763,1.7779,1.762,1.727,1.6712,1.5966,1.5404,1.4984,1.4563,1.42,1.3837,1.325,1.2841,1.258,1.2106,1.1791,1.1521,1.1521,1.1435,1.1262,1.1262,1.1262,1.1262,1.1262,1.1262,1.1262,1.1262,1.1262,1.1262,1.11,1.0916,1.0829,1.0559,1.0386,1.0376,0.931,0.8748,0.8739,0.8401,0.8336,0.8409,0.8217,0.8371,0.8837,0.8923,0.9096,0.9281,0.9388,0.9452,0.9571,0.934,0.9135,0.915,0.8734,0.8349,0.7989,0.7389,0.6637,0.5813,0.5369,0.4617,0.3664,0.2961,0.2263,0.148,0.1133,0.0785,0.0087,-0.0174,-0.061,-0.1306,-0.148,-0.1743,-0.2093,-0.2634,-0.3005,-0.3273,-0.3561,-0.3853,-0.4032,-0.4125,-0.421,-0.4567,-0.483,-0.5008,-0.5008,-0.5364,-0.5719,-0.5985,-0.6074,-0.6163,-0.634,-0.6428,-0.6428,-0.6612,-0.6789,-0.6972,-0.7149,-0.7415,-0.768,-0.7871,-0.839,-0.8955,-0.9274,-0.9957,-1.0654,-1.1198,-1.159,-1.2175,-1.2759,-1.3534,-1.44,1.8017,1.8001,1.8017,1.8017,1.8017,1.7856,1.7501,1.7056,1.6773,1.6414,1.5951,1.539,1.495,1.4655,1.3824,1.3459,1.3169,1.2639,1.2209,1.1947,1.1947,1.1772,1.1598,1.151,1.151,1.151,1.151,1.151,1.1499,1.1598,1.1598,1.151,1.1422,1.1247,1.1247,1.1061,1.0973,1.0865,0.9971,0.9411,0.9356,0.9174,0.9156,0.9229,0.9,0.9136,0.9735,0.9907,1.0019,1.006,1.007,1.0161,1.0373,1.0054,0.9866,0.9932,0.9472,0.9084,0.8666,0.7864,0.7155,0.6526,0.6076,0.5445,0.4628,0.3814,0.2804,0.1886,0.1521,0.1075,0.0447,0.009,-0.0269,-0.0987,-0.1256,-0.1522,-0.1703,-0.2242,-0.269,-0.278,-0.3138,-0.3406,-0.3496,-0.3496,-0.3674,-0.421,-0.4567,-0.4741,-0.483,-0.483,-0.5008,-0.5364,-0.5542,-0.5719,-0.608,-0.6169,-0.6163,-0.6346,-0.6523,-0.6707,-0.6795,-0.7149,-0.7422,-0.7539,-0.8117,-0.8676,-0.9019,-0.9757,-1.0369,-1.0904,-1.1492,-1.2078,-1.2856,-1.3823,-1.4688,1.8716,1.8732,1.87,1.8732,1.87,1.8456,1.8257,1.7964,1.7717,1.736,1.6807,1.5735,1.5143,1.495,1.4655,1.4103,1.3664,1.3459,1.3164,1.2688,1.2711,1.253,1.2326,1.2337,1.2166,1.2053,1.2235,1.2213,1.2304,1.2507,1.2518,1.2348,1.2257,1.2144,1.1973,1.1689,1.1608,1.1608,1.113,1.073,1.0529,1.0309,1.0114,1.0198,0.9577,0.9471,1.0019,1.0784,1.0881,1.0355,1.0292,1.0393,1.0671,1.0616,1.0453,1.0057,1.014,0.9867,0.9099,0.8575,0.8002,0.7449,0.6596,0.5941,0.5566,0.4819,0.4007,0.2902,0.1975,0.1437,0.1256,0.0538,-0.0,-0.0269,-0.0897,-0.1436,-0.1436,-0.1705,-0.2063,-0.2513,-0.2603,-0.2782,-0.3138,-0.3227,-0.3496,-0.3857,-0.4125,-0.421,-0.4389,-0.4478,-0.4478,-0.4746,-0.4924,-0.5191,-0.5458,-0.5547,-0.5725,-0.608,-0.6174,-0.6352,-0.6618,-0.6884,-0.6972,-0.7443,-0.7942,-0.8411,-0.8871,-0.946,-1.01,-1.0609,-1.1198,-1.198,-1.3147,-1.3919,-1.458,1.8827,1.8827,1.8827,1.8827,1.8827,1.8751,1.8566,1.8288,1.8087,1.7714,1.7326,1.66,1.6118,1.5656,1.5297,1.4852,1.4485,1.3956,1.361,1.3247,1.3156,1.2871,1.2689,1.2597,1.2597,1.2506,1.2597,1.2597,1.2689,1.278,1.278,1.2689,1.2597,1.2506,1.2323,1.2129,1.2048,1.1946,1.1769,1.1584,1.1457,1.086,1.0504,1.0494,1.0329,1.0373,1.0636,1.109,1.1133,1.0952,1.1068,1.1194,1.1279,1.1326,1.122,1.095,1.0677,1.0205,0.9545,0.908,0.852,0.7872,0.7214,0.6555,0.5989,0.5232,0.4532,0.3914,0.2943,0.2091,0.153,0.1077,0.0628,0.009,-0.0359,-0.0808,-0.1346,-0.1525,-0.1705,-0.2065,-0.2334,-0.2516,-0.2782,-0.3138,-0.3496,-0.3767,-0.3946,-0.4218,-0.4304,-0.43,-0.4389,-0.4478,-0.4567,-0.4835,-0.528,-0.5374,-0.5552,-0.5819,-0.5997,-0.6263,-0.6435,-0.67,-0.6972,-0.7238,-0.7781,-0.8239,-0.8434,-0.9172,-0.992,-1.0413,-1.1198,-1.2175,-1.305,-1.3823,-1.4496,1.8827,1.8827,1.8827,1.8827,1.8827,1.8827,1.8658,1.8473,1.8179,1.79,1.7729,1.7261,1.6885,1.6386,1.5885,1.5511,1.5206,1.4654,1.4197,1.3921,1.3737,1.346,1.309,1.3078,1.309,1.2985,1.309,1.3182,1.3171,1.3171,1.3171,1.309,1.3078,1.2985,1.2707,1.2707,1.2614,1.2428,1.2374,1.2238,1.2091,1.1468,1.1092,1.1092,1.1092,1.118,1.1279,1.1454,1.1542,1.1542,1.1704,1.179,1.1801,1.1769,1.1794,1.1672,1.1125,1.0594,0.9982,0.9613,0.9037,0.8284,0.7712,0.7139,0.6373,0.5701,0.5111,0.4598,0.3884,0.2891,0.1923,0.1551,0.1095,0.0456,0.0182,-0.0365,-0.1096,-0.1278,-0.1554,-0.1825,-0.22,-0.2556,-0.2739,-0.3197,-0.3569,-0.366,-0.4017,-0.4282,-0.4373,-0.4381,-0.4381,-0.4373,-0.4377,-0.4624,-0.5211,-0.528,-0.5374,-0.5641,-0.5908,-0.6086,-0.6263,-0.6548,-0.6853,-0.7098,-0.7681,-0.8117,-0.8452,-0.9154,-0.983,-1.0511,-1.1296,-1.2175,-1.2953,-1.3727,-1.44,1.8827,1.8827,1.8827,1.8827,1.8827,1.8827,1.8658,1.8489,1.8179,1.79,1.7714,1.7434,1.7153,1.6885,1.6372,1.5994,1.5792,1.5468,1.5076,1.4696,1.4613,1.4364,1.3896,1.38,1.3692,1.3538,1.3718,1.3933,1.4124,1.4136,1.4076,1.3884,1.3849,1.368,1.3465,1.3454,1.3295,1.3047,1.2786,1.2686,1.2371,1.2145,1.2016,1.2016,1.1812,1.178,1.1995,1.2199,1.2199,1.2107,1.2016,1.2118,1.2038,1.2059,1.1899,1.1606,1.1352,1.0962,1.0431,1.0058,0.9567,0.8788,0.8273,0.7608,0.679,0.6388,0.5753,0.4797,0.4395,0.3678,0.2764,0.1986,0.1515,0.1231,0.0569,-0.0095,-0.0759,-0.1228,-0.1616,-0.1803,-0.2177,-0.255,-0.3033,-0.3328,-0.3597,-0.3786,-0.4076,-0.4258,-0.4532,-0.454,-0.454,-0.4631,-0.4622,-0.4682,-0.4975,-0.515,-0.532,-0.5599,-0.5812,-0.5852,-0.6132,-0.6436,-0.6678,-0.7047,-0.7712,-0.8144,-0.8497,-0.9073,-0.978,-1.0511,-1.1394,-1.2175,-1.2856,-1.3727,-1.44,1.8827,1.8827,1.8827,1.8827,1.8827,1.8827,1.8658,1.8489,1.8179,1.79,1.7714,1.7419,1.7246,1.7153,1.6871,1.6508,1.6035,1.5642,1.5356,1.5166,1.507,1.4796,1.44,1.44,1.4304,1.4016,1.4112,1.4208,1.4304,1.4304,1.4304,1.4208,1.4112,1.4124,1.4051,1.3846,1.3642,1.334,1.3154,1.2929,1.2811,1.2639,1.2596,1.249,1.2199,1.2038,1.2048,1.214,1.214,1.2048,1.2199,1.2285,1.2296,1.2331,1.2151,1.1849,1.1666,1.122,1.0502,1.0314,0.9813,0.8924,0.8428,0.7939,0.7135,0.6637,0.6116,0.5386,0.469,0.4076,0.3352,0.2518,0.1908,0.1525,0.0954,0.0191,-0.0572,-0.1144,-0.1622,-0.1718,-0.2004,-0.2576,-0.3155,-0.3528,-0.3813,-0.4,-0.4288,-0.4482,-0.4573,-0.4573,-0.4676,-0.4858,-0.4849,-0.5016,-0.5428,-0.531,-0.531,-0.5773,-0.5964,-0.6056,-0.6247,-0.6525,-0.6858,-0.7156,-0.7719,-0.8111,-0.8549,-0.9397,-1.0002,-1.0413,-1.1296,-1.2175,-1.2759,-1.363,-1.4496,1.8827,1.8827,1.8827,1.8827,1.8827,1.8735,1.8658,1.8489,1.8087,1.79,1.7621,1.7434,1.7326,1.7246,1.7073,1.6791,1.6319,1.5927,1.5642,1.5452,1.5369,1.5178,1.4879,1.4688,1.4592,1.44,1.4292,1.4304,1.4304,1.4304,1.4304,1.4304,1.4304,1.4304,1.4232,1.4124,1.3931,1.3642,1.334,1.3147,1.305,1.2856,1.2759,1.2716,1.2541,1.2368,1.2285,1.2368,1.2368,1.2296,1.2447,1.2522,1.2544,1.248,1.2273,1.198,1.1785,1.1296,1.0511,1.0413,0.9912,0.8924,0.8627,0.8131,0.7341,0.6836,0.6337,0.5636,0.5035,0.4437,0.3714,0.2958,0.2236,0.1653,0.1264,0.0486,-0.068,-0.1265,-0.1654,-0.185,-0.2144,-0.2626,-0.34,-0.3694,-0.3985,-0.4268,-0.4465,-0.4659,-0.4756,-0.4756,-0.4848,-0.5138,-0.5151,-0.5345,-0.562,-0.562,-0.5626,-0.5894,-0.6072,-0.6189,-0.6406,-0.6697,-0.7006,-0.7311,-0.7657,-0.8132,-0.8796,-0.9649,-1.0181,-1.0404,-1.1198,-1.2175,-1.2856,-1.3619,-1.44,1.8827,1.8827,1.8827,1.8827,1.8735,1.8566,1.8489,1.8381,1.7916,1.7729,1.7621,1.7419,1.7326,1.7232,1.7073,1.6885,1.6588,1.6319,1.594,1.5547,1.5655,1.5465,1.5083,1.4892,1.4688,1.4592,1.44,1.4304,1.4304,1.4304,1.4304,1.4304,1.4304,1.4304,1.4304,1.4304,1.4112,1.3858,1.3676,1.3385,1.3169,1.2921,1.2834,1.2813,1.278,1.277,1.277,1.2737,1.2705,1.2716,1.2727,1.2759,1.2737,1.2457,1.2273,1.198,1.1688,1.1198,1.0511,1.0314,0.9821,0.9023,0.8825,0.8329,0.7441,0.7135,0.6736,0.5737,0.534,0.4839,0.4034,0.3218,0.2509,0.1816,0.1606,0.0703,-0.0804,-0.1513,-0.1816,-0.2211,-0.2406,-0.272,-0.3428,-0.381,-0.41,-0.4403,-0.4602,-0.4901,-0.5092,-0.5092,-0.5318,-0.5518,-0.5584,-0.5659,-0.5897,-0.6022,-0.6089,-0.608,-0.6154,-0.6351,-0.6582,-0.6894,-0.713,-0.7446,-0.7875,-0.8357,-0.875,-0.96,-1.0199,-1.0609,-1.1492,-1.2175,-1.2856,-1.363,-1.4533,1.8827,1.8827,1.8827,1.8735,1.8566,1.8566,1.8288,1.8009,1.7729,1.7621,1.7434,1.7326,1.7326,1.7246,1.7059,1.6885,1.6588,1.6414,1.613,1.5737,1.5737,1.5642,1.5356,1.507,1.4783,1.4496,1.4304,1.4304,1.4304,1.4304,1.4304,1.4304,1.4304,1.4304,1.4328,1.4304,1.428,1.4178,1.3895,1.3777,1.3635,1.3456,1.3243,1.3254,1.3254,1.3254,1.3243,1.2942,1.277,1.277,1.2759,1.2759,1.2575,1.2273,1.198,1.1688,1.1296,1.0904,1.0413,1.0027,0.9533,0.8931,0.8627,0.8131,0.7335,0.7135,0.6736,0.5737,0.5336,0.4839,0.4031,0.3226,0.2725,0.2423,0.192,0.1213,-0.0,-0.101,-0.1716,-0.2322,-0.2421,-0.2823,-0.3632,-0.3934,-0.4236,-0.4638,-0.4939,-0.514,-0.524,-0.5441,-0.5536,-0.5837,-0.5842,-0.5942,-0.6142,-0.6342,-0.6372,-0.6393,-0.6468,-0.6549,-0.6772,-0.7088,-0.7334,-0.776,-0.8202,-0.8619,-0.8924,-0.9517,-1.0216,-1.0806,-1.1492,-1.2175,-1.2856,-1.3761,-1.469,1.8925,1.8925,1.8706,1.8566,1.8381,1.8288,1.8009,1.7729,1.7621,1.7434,1.7326,1.7326,1.7326,1.7246,1.7073,1.6885,1.6588,1.6414,1.613,1.5832,1.5832,1.5737,1.5547,1.5261,1.4796,1.44,1.4304,1.4304,1.4304,1.4304,1.4352,1.4437,1.4449,1.4521,1.4692,1.4508,1.4394,1.4436,1.4059,1.3926,1.3857,1.3583,1.348,1.348,1.348,1.348,1.3459,1.3179,1.3028,1.3028,1.2929,1.283,1.2621,1.2333,1.1924,1.1625,1.1334,1.0833,1.0423,1.0045,0.9485,0.8829,0.8514,0.8085,0.7353,0.7036,0.6437,0.5737,0.5236,0.4734,0.4034,0.3229,0.2826,0.2624,0.2019,0.1212,0.0303,-0.0808,-0.1716,-0.2221,-0.2523,-0.3025,-0.3732,-0.4135,-0.4336,-0.4834,-0.514,-0.534,-0.5441,-0.5641,-0.5842,-0.6042,-0.6142,-0.6242,-0.6442,-0.6642,-0.6637,-0.6719,-0.6807,-0.6988,-0.7087,-0.7285,-0.7614,-0.7997,-0.8428,-0.8825,-0.9229,-0.9821,-1.0511,-1.1002,-1.159,-1.2273,-1.3061,-1.406,-1.502,1.9288,1.902,1.8645,1.8412,1.8087,1.7822,1.7729,1.7621,1.7434,1.734,1.7326,1.7326,1.7232,1.7246,1.7073,1.6777,1.6588,1.6211,1.6062,1.5885,1.5885,1.579,1.556,1.5274,1.4783,1.44,1.4304,1.4316,1.4364,1.4364,1.4473,1.4813,1.4751,1.4847,1.5105,1.4886,1.4659,1.4503,1.4106,1.3923,1.3876,1.3659,1.3556,1.3566,1.3566,1.3577,1.3577,1.3534,1.3491,1.3367,1.3099,1.2986,1.2823,1.2432,1.1981,1.1756,1.1493,1.1052,1.0551,1.0103,0.9633,0.8794,0.8445,0.7998,0.729,0.6753,0.6237,0.5636,0.5135,0.4533,0.393,0.3226,0.2725,0.232,0.1716,0.0707,-0.0505,-0.1314,-0.1918,-0.2322,-0.2624,-0.3128,-0.3934,-0.4236,-0.4638,-0.5039,-0.524,-0.5441,-0.5741,-0.5942,-0.6137,-0.6237,-0.6337,-0.6442,-0.6642,-0.6842,-0.6936,-0.7042,-0.7141,-0.7247,-0.7447,-0.7646,-0.7839,-0.8237,-0.8627,-0.9031,-0.9525,-1.0019,-1.0609,-1.1198,-1.1785,-1.2467,-1.3322,-1.4338,-1.543,1.9302,1.8972,1.8909,1.844,1.7837,1.7729,1.7636,1.7434,1.7326,1.7326,1.734,1.7326,1.7261,1.7073,1.6791,1.6602,1.636,1.6048,1.6061,1.6139,1.6152,1.5827,1.5395,1.5191,1.4808,1.4412,1.4364,1.4401,1.4594,1.4606,1.4751,1.5004,1.5004,1.4939,1.4898,1.473,1.4595,1.4331,1.4249,1.414,1.4071,1.4093,1.4008,1.4008,1.3986,1.3986,1.3997,1.3784,1.3499,1.3183,1.3059,1.2843,1.2462,1.2161,1.186,1.1539,1.1114,1.0793,1.0385,0.9871,0.9414,0.9057,0.8343,0.7833,0.7496,0.6788,0.6247,0.5636,0.5135,0.4433,0.383,0.3128,0.2523,0.1817,0.101,0.0101,-0.0707,-0.1617,-0.2223,-0.2421,-0.2826,-0.333,-0.3833,-0.4336,-0.4642,-0.514,-0.5441,-0.5636,-0.5942,-0.6242,-0.6337,-0.6437,-0.6542,-0.6642,-0.6842,-0.7042,-0.7141,-0.7441,-0.7447,-0.7547,-0.7739,-0.7939,-0.8137,-0.8428,-0.8832,-0.9229,-0.9723,-1.0216,-1.0806,-1.1413,-1.2217,-1.2932,-1.3849,-1.4875,-1.6043,1.9481,1.9085,1.888,1.8348,1.7749,1.7625,1.7443,1.734,1.7326,1.7326,1.7261,1.7297,1.726,1.718,1.6924,1.6691,1.6594,1.6303,1.6299,1.642,1.646,1.617,1.566,1.5524,1.5231,1.4826,1.4728,1.4727,1.4859,1.4883,1.5028,1.5221,1.5167,1.5112,1.5059,1.4711,1.4548,1.4367,1.4294,1.4169,1.418,1.4191,1.4083,1.4083,1.3975,1.3975,1.3856,1.364,1.3398,1.3193,1.3036,1.271,1.2288,1.2077,1.176,1.1336,1.0911,1.0601,1.0281,0.9747,0.9183,0.8694,0.8171,0.7688,0.7211,0.6584,0.5906,0.5403,0.4762,0.4135,0.3531,0.2927,0.2221,0.1313,0.0101,-0.0707,-0.0809,-0.1718,-0.2223,-0.2523,-0.2927,-0.3531,-0.3934,-0.4437,-0.4839,-0.534,-0.5636,-0.5837,-0.6142,-0.6342,-0.6548,-0.6659,-0.6865,-0.6971,-0.7178,-0.7378,-0.7591,-0.7792,-0.8006,-0.7992,-0.8079,-0.8265,-0.8443,-0.8741,-0.9137,-0.9541,-1.0061,-1.0573,-1.1264,-1.1973,-1.2671,-1.3588,-1.4453,-1.5594,-1.668,1.9729,1.9164,1.8766,1.8258,1.7882,1.7534,1.7515,1.7486,1.7486,1.7486,1.745,1.7476,1.748,1.7412,1.7106,1.7086,1.6987,1.672,1.6687,1.6754,1.6807,1.6619,1.6403,1.5946,1.562,1.5407,1.519,1.5113,1.5137,1.5149,1.5294,1.5371,1.5327,1.5235,1.5234,1.4877,1.46,1.4471,1.4256,1.4159,1.4083,1.4083,1.3975,1.3748,1.364,1.3532,1.3315,1.3207,1.3176,1.3088,1.2989,1.2625,1.2299,1.21,1.1655,1.1093,1.074,1.0429,1.0014,0.9545,0.8968,0.8304,0.7948,0.7582,0.6929,0.6187,0.5503,0.5089,0.4402,0.3675,0.3163,0.2649,0.1837,0.0818,-0.0612,-0.1118,-0.1218,-0.1722,-0.2324,-0.2521,-0.3226,-0.3729,-0.4131,-0.4738,-0.534,-0.5737,-0.5937,-0.6137,-0.6358,-0.6681,-0.6894,-0.7,-0.7107,-0.7415,-0.7522,-0.7724,-0.8046,-0.8268,-0.8491,-0.8592,-0.8664,-0.8743,-0.8885,-0.9168,-0.9514,-1.0054,-1.068,-1.1179,-1.1795,-1.2642,-1.3435,-1.4294,-1.5166,-1.6315,-1.7456,1.9725,1.9179,1.9149,1.8725,1.8233,1.8091,1.8047,1.8072,1.8086,1.8043,1.8003,1.7879,1.7711,1.7414,1.7213,1.7014,1.6867,1.6767,1.682,1.7074,1.7301,1.7382,1.7081,1.6356,1.5834,1.5531,1.5214,1.5221,1.5366,1.5439,1.5547,1.5659,1.5459,1.5304,1.503,1.4826,1.4504,1.4299,1.4191,1.4083,1.3867,1.3867,1.364,1.3423,1.3315,1.3207,1.2989,1.2772,1.2555,1.2337,1.2327,1.2327,1.2001,1.1564,1.1126,1.0806,1.0476,1.0147,0.9706,0.9258,0.8803,0.8207,0.758,0.7078,0.6948,0.5878,0.5294,0.4865,0.411,0.3252,0.2621,0.2106,0.1261,0.0315,-0.063,-0.1367,-0.1888,-0.2363,-0.264,-0.3035,-0.354,-0.4135,-0.4541,-0.4956,-0.556,-0.6042,-0.6247,-0.6337,-0.6681,-0.7149,-0.7376,-0.7502,-0.7744,-0.8077,-0.818,-0.8275,-0.8582,-0.8794,-0.9006,-0.9225,-0.9297,-0.9345,-0.9501,-0.9702,-0.9936,-1.0575,-1.1134,-1.1928,-1.2567,-1.334,-1.423,-1.5071,-1.6036,-1.7114,-1.8044,1.9686,1.9228,1.9243,1.8964,1.8555,1.8755,1.8567,1.8321,1.8306,1.8207,1.8151,1.7953,1.7823,1.7535,1.7367,1.723,1.7114,1.7114,1.7194,1.7368,1.7515,1.7569,1.745,1.6782,1.6188,1.5969,1.5683,1.5572,1.5644,1.568,1.5647,1.5672,1.5374,1.5137,1.4826,1.4504,1.4288,1.3964,1.3975,1.3759,1.3532,1.3532,1.3315,1.2881,1.2772,1.2555,1.2327,1.211,1.2001,1.1782,1.1782,1.1673,1.1564,1.1126,1.0798,1.0476,1.0036,0.9706,0.9258,0.8927,0.8478,0.782,0.7315,0.6858,0.6379,0.5547,0.4855,0.4407,0.3743,0.3085,0.2236,0.1173,0.0533,-0.0,-0.096,-0.1919,-0.2655,-0.2829,-0.3003,-0.3417,-0.4047,-0.456,-0.4965,-0.5453,-0.598,-0.6524,-0.705,-0.7147,-0.7461,-0.7827,-0.804,-0.8273,-0.8536,-0.8772,-0.8772,-0.8974,-0.9161,-0.9361,-0.9561,-0.9872,-1.0063,-1.01,-1.0136,-1.0374,-1.063,-1.1057,-1.1728,-1.2535,-1.3349,-1.4126,-1.4918,-1.5865,-1.6911,-1.786,-1.8537,1.9583,1.9272,1.9272,1.9111,1.8993,1.9197,1.8962,1.8496,1.8452,1.834,1.811,1.8048,1.7839,1.7674,1.7539,1.7569,1.7555,1.7542,1.7515,1.7542,1.7569,1.7582,1.745,1.6989,1.6647,1.6617,1.6037,1.5849,1.5849,1.5885,1.5755,1.5482,1.5148,1.4934,1.46,1.4288,1.3975,1.3748,1.364,1.3532,1.3207,1.3207,1.2881,1.2327,1.211,1.201,1.1791,1.1573,1.1455,1.1463,1.1126,1.0907,1.0907,1.0798,1.0476,1.0147,0.9596,0.9265,0.8927,0.8484,0.8042,0.7265,0.7038,0.6482,0.5678,0.5088,0.4505,0.3823,0.326,0.2696,0.1934,0.0864,-0.0,-0.0647,-0.1722,-0.2685,-0.3224,-0.3329,-0.3538,-0.3925,-0.4537,-0.5051,-0.5593,-0.6113,-0.6569,-0.7123,-0.7551,-0.7973,-0.8289,-0.852,-0.8836,-0.9082,-0.9246,-0.9617,-0.9732,-0.9823,-1.0012,-1.0095,-1.0274,-1.0476,-1.08,-1.1011,-1.1081,-1.1019,-1.1245,-1.1793,-1.2467,-1.3299,-1.4107,-1.4792,-1.5676,-1.6691,-1.7644,-1.8617,-1.9213,1.9583,1.9272,1.9272,1.9242,1.9199,1.9302,1.9258,1.9125,1.8861,1.8815,1.8594,1.8234,1.8025,1.7843,1.7647,1.7582,1.7582,1.7582,1.7582,1.7582,1.7582,1.7582,1.7477,1.6948,1.6723,1.6511,1.6205,1.5885,1.5885,1.5885,1.5684,1.547,1.5148,1.4815,1.4493,1.4072,1.3759,1.3532,1.3423,1.3207,1.2881,1.2654,1.2327,1.1782,1.1673,1.1564,1.1455,1.1126,1.0798,1.0798,1.0249,1.0147,1.0147,1.0257,1.0036,0.9596,0.9258,0.8816,0.8484,0.8042,0.7604,0.7154,0.6487,0.5931,0.5258,0.4467,0.3895,0.3339,0.2668,0.1998,0.0556,-0.0,-0.0777,-0.1667,-0.244,-0.3102,-0.3545,-0.4088,-0.46,-0.4955,-0.5243,-0.5554,-0.6221,-0.6877,-0.7416,-0.7962,-0.8388,-0.8807,-0.9118,-0.9481,-0.9747,-0.9915,-0.9985,-1.0365,-1.0732,-1.0824,-1.0908,-1.0983,-1.1181,-1.128,-1.1513,-1.19,-1.1981,-1.194,-1.2106,-1.2558,-1.3254,-1.4071,-1.4847,-1.5505,-1.6516,-1.7515,-1.838,-1.9153,-1.9864,1.9376,1.9272,1.9272,1.9272,1.9272,1.9272,1.9168,1.9078,1.8974,1.8764,1.845,1.8122,1.7911,1.7806,1.7687,1.7582,1.7582,1.7582,1.7582,1.7582,1.7582,1.7582,1.7582,1.6948,1.6723,1.6511,1.6205,1.5885,1.5885,1.5885,1.5684,1.5256,1.5041,1.4708,1.418,1.3856,1.3542,1.3325,1.2999,1.2673,1.2455,1.2119,1.1791,1.1463,1.1135,1.1017,1.0798,1.0476,1.0257,1.0147,0.9926,0.9706,0.9596,0.9478,0.9485,0.9154,0.8816,0.8484,0.8042,0.7604,0.7271,0.6715,0.6042,0.5262,0.4815,0.4145,0.3362,0.2466,0.1682,0.0785,-0.0224,-0.0785,-0.1682,-0.2468,-0.3029,-0.3589,-0.4033,-0.4704,-0.5422,-0.6004,-0.6344,-0.6676,-0.7002,-0.766,-0.8183,-0.8716,-0.9248,-0.9663,-0.9968,-1.0345,-1.0634,-1.0891,-1.095,-1.1193,-1.1455,-1.1564,-1.1564,-1.1782,-1.1891,-1.2001,-1.2219,-1.2536,-1.2733,-1.2646,-1.2979,-1.3495,-1.3944,-1.4618,-1.5423,-1.6311,-1.7239,-1.8185,-1.8826,-1.9569,-2.038,1.9272,1.9272,1.9272,1.9272,1.9272,1.9168,1.9063,1.8869,1.8764,1.845,1.8016,1.7911,1.7806,1.7687,1.7582,1.7582,1.7582,1.7582,1.7582,1.7582,1.7582,1.7582,1.7477,1.716,1.6736,1.663,1.6205,1.5992,1.5885,1.5791,1.547,1.5148,1.4934,1.4504,1.3856,1.3712,1.3366,1.2959,1.2559,1.2229,1.1899,1.1568,1.1347,1.1015,1.0691,1.0485,1.0397,1.007,0.9921,0.9787,0.9654,0.9521,0.9272,0.8927,0.8823,0.8621,0.8504,0.8048,0.7604,0.7271,0.6826,0.6158,0.5596,0.4815,0.4033,0.3477,0.2802,0.1234,0.0224,-0.0449,-0.1121,-0.202,-0.2692,-0.3029,-0.3589,-0.4033,-0.4592,-0.5369,-0.6154,-0.6679,-0.7265,-0.7686,-0.7981,-0.8194,-0.8716,-0.9479,-1.0016,-1.0458,-1.0775,-1.1016,-1.1402,-1.1746,-1.1882,-1.1991,-1.2119,-1.211,-1.2219,-1.2327,-1.2446,-1.2555,-1.2772,-1.3098,-1.3186,-1.3393,-1.4126,-1.4652,-1.4911,-1.5244,-1.6099,-1.6948,-1.7898,-1.8736,-1.9361,-2.0189,-2.1011,1.9272,1.9272,1.9272,1.9272,1.9272,1.8959,1.875,1.8646,1.8331,1.8122,1.7911,1.7806,1.7687,1.7582,1.7582,1.7582,1.7582,1.7582,1.7582,1.7582,1.7582,1.7582,1.7582,1.7279,1.6948,1.6736,1.643,1.6111,1.5897,1.5684,1.5363,1.5041,1.4741,1.4299,1.3811,1.3637,1.3266,1.2748,1.2542,1.2161,1.1469,1.1241,1.0898,1.0555,1.0326,1.0318,1.0181,0.9945,0.9688,0.9589,0.9349,0.9062,0.8732,0.8595,0.8339,0.8033,0.7791,0.7604,0.7293,0.6862,0.642,0.5639,0.495,0.4375,0.338,0.2256,0.1353,0.0336,-0.0562,-0.1352,-0.2145,-0.2921,-0.3367,-0.3703,-0.4039,-0.4592,-0.5258,-0.5926,-0.671,-0.726,-0.782,-0.8374,-0.8789,-0.8913,-0.9251,-1.0029,-1.0696,-1.1135,-1.1564,-1.1782,-1.211,-1.2446,-1.2683,-1.2792,-1.2969,-1.2949,-1.3098,-1.3068,-1.3197,-1.3416,-1.3655,-1.3894,-1.3996,-1.431,-1.5053,-1.5458,-1.5458,-1.5885,-1.6736,-1.7582,-1.8422,-1.9153,-1.9879,-2.0704,-2.1623,1.9272,1.9272,1.9272,1.9182,1.9078,1.8855,1.8541,1.8331,1.8122,1.7911,1.7806,1.7687,1.7582,1.7582,1.7582,1.7582,1.7582,1.7582,1.7582,1.7582,1.7582,1.7582,1.7582,1.7279,1.7067,1.6736,1.6418,1.6111,1.5897,1.5589,1.5363,1.5064,1.4636,1.4275,1.3747,1.3384,1.3012,1.2616,1.21,1.1561,1.0985,1.0763,1.0539,1.0308,1.0084,0.9968,0.9968,0.9722,0.9585,0.9401,0.9164,0.8915,0.8635,0.8394,0.8076,0.799,0.7514,0.7257,0.7028,0.6446,0.5974,0.5406,0.4603,0.3462,0.2305,0.1151,-0.0115,-0.1386,-0.1732,-0.2305,-0.2987,-0.3429,-0.3757,-0.4199,-0.4634,-0.5062,-0.5725,-0.6487,-0.7154,-0.782,-0.838,-0.8856,-0.9432,-0.9868,-1.009,-1.0618,-1.1287,-1.1845,-1.2256,-1.2545,-1.2881,-1.3207,-1.3454,-1.3583,-1.3795,-1.3967,-1.4103,-1.4224,-1.441,-1.451,-1.4579,-1.4768,-1.4866,-1.495,-1.5456,-1.5743,-1.5922,-1.6524,-1.7265,-1.8108,-1.8945,-1.9672,-2.0395,-2.1404,-2.2232,1.9272,1.9168,1.9168,1.9078,1.8855,1.8646,1.8318,1.7898,1.7911,1.7806,1.7687,1.7582,1.7582,1.7582,1.7582,1.7582,1.7582,1.7582,1.7582,1.7582,1.7582,1.7582,1.7582,1.7384,1.7054,1.6723,1.6524,1.6217,1.5922,1.5648,1.5371,1.5036,1.4647,1.4214,1.377,1.3373,1.2933,1.2311,1.1503,1.0918,1.0567,1.0325,1.009,0.9856,0.9724,0.9607,0.949,0.9386,0.9268,0.9085,0.8968,0.8709,0.8543,0.8292,0.7974,0.7657,0.7194,0.6867,0.6504,0.602,0.5534,0.494,0.4118,0.2696,0.1057,-0.0,-0.0942,-0.2231,-0.27,-0.3173,-0.3643,-0.3954,-0.4287,-0.4721,-0.5268,-0.5577,-0.612,-0.692,-0.7618,-0.81,-0.8791,-0.9434,-1.0003,-1.0643,-1.1056,-1.1338,-1.1881,-1.2569,-1.3018,-1.3446,-1.3816,-1.4307,-1.4439,-1.4581,-1.4646,-1.4977,-1.5098,-1.5175,-1.5468,-1.5456,-1.5367,-1.5523,-1.5643,-1.5736,-1.5946,-1.6525,-1.7034,-1.7462,-1.7898,-1.8632,-1.9465,-2.0189,-2.1011,-2.203,-2.2837,1.9182,1.8974,1.8974,1.8869,1.8646,1.8227,1.7898,1.766,1.7569,1.7582,1.7477,1.7582,1.7582,1.7582,1.7582,1.7582,1.7582,1.7582,1.7582,1.7582,1.7582,1.7582,1.7582,1.7477,1.7265,1.6723,1.663,1.6311,1.5946,1.5573,1.5436,1.5285,1.4622,1.426,1.3735,1.3249,1.2596,1.1844,1.104,1.0456,1.0102,0.9747,0.9633,0.9163,0.9054,0.8945,0.8945,0.9035,0.8985,0.876,0.8634,0.8479,0.8307,0.8049,0.7847,0.7427,0.709,0.6644,0.6181,0.5749,0.5197,0.4242,0.319,0.1779,0.0238,-0.0827,-0.177,-0.2607,-0.321,-0.3675,-0.4139,-0.447,-0.4819,-0.5272,-0.5594,-0.6032,-0.6594,-0.7421,-0.802,-0.8518,-0.9076,-0.9817,-1.0417,-1.0964,-1.1465,-1.1647,-1.2571,-1.3272,-1.4106,-1.4564,-1.4942,-1.5322,-1.5445,-1.5591,-1.5614,-1.5806,-1.5863,-1.5932,-1.6103,-1.6057,-1.5977,-1.6133,-1.6322,-1.661,-1.6858,-1.7572,-1.8097,-1.8279,-1.8688,-1.924,-1.991,-2.0798,-2.1571,-2.2434,-2.3138,1.8974,1.8869,1.8555,1.8331,1.8227,1.7911,1.7582,1.7371,1.716,1.7054,1.7054,1.7054,1.716,1.7279,1.7384,1.749,1.7582,1.7582,1.7582,1.7582,1.7582,1.7582,1.7582,1.7477,1.7265,1.6829,1.6617,1.6418,1.5922,1.5643,1.5509,1.5278,1.4632,1.4198,1.3771,1.2967,1.203,1.1238,1.0543,0.9943,0.9579,0.9335,0.9098,0.8976,0.8854,0.8854,0.897,0.8976,0.8824,0.8787,0.8527,0.8359,0.8205,0.8073,0.7736,0.7301,0.6948,0.649,0.5904,0.5361,0.4727,0.3633,0.2303,0.0847,-0.0483,-0.1452,-0.2423,-0.3151,-0.3628,-0.4102,-0.4841,-0.5043,-0.5249,-0.5598,-0.5932,-0.6382,-0.6847,-0.7679,-0.8266,-0.8629,-0.9401,-1.0156,-1.0786,-1.1313,-1.1693,-1.2082,-1.3041,-1.4002,-1.4728,-1.5432,-1.5682,-1.6034,-1.6148,-1.6421,-1.6457,-1.6492,-1.6641,-1.67,-1.676,-1.6609,-1.6562,-1.6618,-1.6936,-1.7239,-1.7503,-1.8013,-1.8464,-1.8932,-1.9399,-1.9864,-2.069,-2.168,-2.2418,-2.3024,-2.3509,1.8764,1.8555,1.8122,1.7911,1.7806,1.7595,1.7265,1.7067,1.6842,1.6723,1.6723,1.6723,1.6842,1.7054,1.7173,1.7279,1.7477,1.7582,1.7582,1.7582,1.7582,1.7582,1.7582,1.7477,1.7265,1.6829,1.663,1.6418,1.591,1.558,1.5478,1.5252,1.4719,1.4259,1.3613,1.2277,1.1148,1.0543,0.9822,0.9214,0.8848,0.8604,0.8366,0.8244,0.8122,0.8122,0.8244,0.8244,0.8366,0.8355,0.8233,0.8238,0.8116,0.7872,0.7627,0.7261,0.6775,0.6285,0.5671,0.481,0.4069,0.3193,0.1598,0.0123,-0.1233,-0.2221,-0.3071,-0.3687,-0.406,-0.4561,-0.5421,-0.5487,-0.5577,-0.5814,-0.6395,-0.6731,-0.7085,-0.7687,-0.8147,-0.8616,-0.9412,-1.0252,-1.0981,-1.1524,-1.219,-1.2723,-1.3586,-1.4422,-1.5119,-1.5698,-1.6138,-1.6368,-1.67,-1.6875,-1.7062,-1.7074,-1.6982,-1.7134,-1.7193,-1.7253,-1.7205,-1.7249,-1.7432,-1.7765,-1.8021,-1.8333,-1.8955,-1.9738,-2.0157,-2.039,-2.1349,-2.2303,-2.3083,-2.3732,-2.3859,1.8555,1.8016,1.7701,1.7582,1.7477,1.7279,1.6961,1.6736,1.663,1.663,1.6617,1.6617,1.663,1.6736,1.6961,1.7173,1.7279,1.7477,1.7582,1.7582,1.7582,1.7582,1.7582,1.7477,1.7265,1.6829,1.6617,1.6418,1.5897,1.5719,1.5502,1.5113,1.4463,1.3875,1.3913,1.1993,1.0543,0.9822,0.8964,0.836,0.7872,0.7627,0.7261,0.7143,0.7143,0.7143,0.7266,0.7388,0.751,0.7633,0.7755,0.775,0.775,0.751,0.7266,0.6898,0.6293,0.5679,0.494,0.4077,0.3465,0.2841,0.1357,-0.0618,-0.2346,-0.309,-0.3472,-0.4108,-0.4462,-0.4943,-0.5429,-0.5663,-0.5778,-0.601,-0.6476,-0.6831,-0.7185,-0.7664,-0.8125,-0.8594,-0.9385,-1.0037,-1.1004,-1.1727,-1.268,-1.3388,-1.4143,-1.4847,-1.5483,-1.592,-1.6215,-1.6669,-1.689,-1.7053,-1.7229,-1.7406,-1.7443,-1.7479,-1.7479,-1.7479,-1.7479,-1.7406,-1.7744,-1.8144,-1.8404,-1.8594,-1.9617,-2.0773,-2.11,-2.151,-2.2033,-2.2878,-2.3687,-2.4328,-2.4338,1.8122,1.7701,1.749,1.7067,1.6749,1.6643,1.6537,1.643,1.6205,1.6205,1.6205,1.6205,1.6324,1.643,1.6537,1.6855,1.7173,1.7279,1.7384,1.7582,1.7582,1.7582,1.7582,1.7477,1.7265,1.6829,1.6617,1.6418,1.5897,1.5777,1.5536,1.5123,1.3937,1.3057,1.2354,1.1027,1.0058,0.9207,0.8233,0.7505,0.6893,0.6644,0.6403,0.6162,0.6166,0.6293,0.643,0.668,0.6799,0.7045,0.7296,0.7291,0.7286,0.7168,0.6912,0.668,0.6081,0.5279,0.4428,0.3556,0.3271,0.2491,0.1114,-0.087,-0.2749,-0.313,-0.3648,-0.4416,-0.4771,-0.5261,-0.5757,-0.5822,-0.5921,-0.5912,-0.6267,-0.6634,-0.6996,-0.7606,-0.8088,-0.8569,-0.9214,-1.0065,-1.1027,-1.1631,-1.2354,-1.3204,-1.3803,-1.465,-1.5429,-1.5913,-1.6245,-1.6715,-1.7067,-1.722,-1.7373,-1.7527,-1.7551,-1.7551,-1.7515,-1.7479,-1.7479,-1.7551,-1.7867,-1.8232,-1.844,-1.8765,-1.9924,-2.106,-2.2024,-2.2577,-2.2808,-2.3319,-2.4175,-2.4508,-2.4593,1.7806,1.749,1.7173,1.6749,1.6324,1.6324,1.6217,1.6111,1.6004,1.5885,1.5885,1.5885,1.6004,1.6111,1.6324,1.643,1.6855,1.7173,1.7279,1.7477,1.7582,1.7582,1.7582,1.7477,1.716,1.6842,1.6524,1.6324,1.5708,1.5777,1.5319,1.4392,1.3296,1.2209,1.1269,1.0301,0.9207,0.8355,0.7383,0.6526,0.6035,0.5548,0.5313,0.5331,0.5346,0.5481,0.5749,0.6006,0.6251,0.65,0.6754,0.6878,0.6878,0.6878,0.6754,0.6531,0.593,0.4976,0.3853,0.3346,0.2929,0.2142,0.0753,-0.0882,-0.2539,-0.3052,-0.383,-0.4476,-0.4976,-0.5347,-0.5705,-0.5765,-0.6002,-0.5994,-0.6222,-0.6598,-0.695,-0.7567,-0.8022,-0.8389,-0.9001,-0.9964,-1.0815,-1.139,-1.1993,-1.2724,-1.3444,-1.4301,-1.5157,-1.5634,-1.612,-1.6476,-1.6949,-1.7067,-1.7339,-1.7505,-1.7636,-1.7624,-1.7648,-1.7565,-1.772,-1.7817,-1.8064,-1.8307,-1.8491,-1.892,-2.0155,-2.1159,-2.2055,-2.2767,-2.3243,-2.3796,-2.4596,-2.481,-2.4827,1.7701,1.7173,1.6842,1.6524,1.6324,1.6217,1.6111,1.5885,1.5885,1.5885,1.5885,1.5885,1.5885,1.6004,1.6217,1.6324,1.643,1.6855,1.7067,1.7279,1.749,1.7477,1.749,1.7279,1.6961,1.6736,1.6418,1.6123,1.554,1.5333,1.4751,1.376,1.2662,1.1503,1.0422,0.9207,0.8355,0.75,0.6526,0.5663,0.5049,0.4573,0.4357,0.4258,0.441,0.4567,0.4718,0.4993,0.5507,0.5898,0.6289,0.6677,0.6814,0.6823,0.6699,0.6314,0.554,0.452,0.3505,0.3252,0.2467,0.155,0.0516,-0.1163,-0.2323,-0.3099,-0.3759,-0.4412,-0.492,-0.5297,-0.5536,-0.5778,-0.6018,-0.6243,-0.6332,-0.6567,-0.692,-0.7386,-0.7707,-0.8184,-0.8688,-0.9549,-1.0422,-1.1012,-1.1654,-1.2289,-1.3039,-1.3639,-1.4479,-1.523,-1.572,-1.6198,-1.6544,-1.6901,-1.7197,-1.7446,-1.7493,-1.754,-1.778,-1.7827,-1.7973,-1.7937,-1.8082,-1.8188,-1.8345,-1.9076,-2.0067,-2.096,-2.1873,-2.2573,-2.3166,-2.3911,-2.462,-2.4984,-2.5111,1.7173,1.6842,1.6524,1.6217,1.6004,1.5992,1.6004,1.5885,1.5885,1.5885,1.5885,1.5885,1.5885,1.5885,1.6004,1.6111,1.6324,1.6537,1.6855,1.708,1.7331,1.7292,1.7279,1.7173,1.6855,1.6537,1.6217,1.591,1.5371,1.4999,1.4104,1.3076,1.1943,1.077,0.9572,0.8233,0.75,0.6766,0.5786,0.4933,0.4209,0.3859,0.3515,0.3417,0.3322,0.3475,0.3876,0.4139,0.4655,0.5039,0.5415,0.5672,0.6058,0.5801,0.5551,0.5233,0.4851,0.4338,0.3448,0.3056,0.2388,0.1325,0.0398,-0.0792,-0.1973,-0.2886,-0.3421,-0.4079,-0.4598,-0.4978,-0.5487,-0.5732,-0.5976,-0.6078,-0.6302,-0.6532,-0.6764,-0.7112,-0.7446,-0.8068,-0.8568,-0.9318,-1.0073,-1.0592,-1.1245,-1.1884,-1.2499,-1.3093,-1.3797,-1.4568,-1.5256,-1.5739,-1.6156,-1.6552,-1.7017,-1.7276,-1.7422,-1.7457,-1.7707,-1.7766,-1.7707,-1.7649,-1.7836,-1.807,-1.8489,-1.9103,-1.9836,-2.0773,-2.1521,-2.2358,-2.2958,-2.376,-2.4539,-2.4844,-2.5212,1.6961,1.6617,1.643,1.6111,1.5885,1.5885,1.5885,1.5885,1.5885,1.5885,1.5885,1.5885,1.5885,1.5885,1.5897,1.6053,1.6282,1.651,1.6725,1.694,1.7128,1.7051,1.7013,1.6868,1.6643,1.6324,1.6004,1.5696,1.507,1.4298,1.3413,1.2678,1.1423,1.0286,0.9086,0.7744,0.6766,0.5908,0.5053,0.4203,0.3613,0.3141,0.2913,0.2566,0.2464,0.2735,0.2881,0.3273,0.3668,0.4327,0.472,0.4981,0.5381,0.5381,0.5122,0.4914,0.4784,0.4131,0.3348,0.3086,0.242,0.1616,0.0673,-0.0402,-0.12,-0.2128,-0.307,-0.3878,-0.4264,-0.4781,-0.5162,-0.554,-0.5784,-0.59,-0.6133,-0.6369,-0.6606,-0.6841,-0.734,-0.797,-0.8603,-0.9233,-0.9875,-1.0283,-1.0777,-1.1373,-1.1862,-1.2357,-1.3207,-1.4032,-1.4622,-1.5238,-1.5669,-1.6226,-1.6582,-1.6908,-1.6941,-1.7122,-1.7382,-1.7404,-1.7326,-1.7485,-1.7665,-1.8153,-1.8617,-1.9125,-1.9613,-2.0364,-2.1191,-2.1895,-2.2601,-2.336,-2.4033,-2.4633,-2.5041,1.6948,1.663,1.6418,1.6111,1.5885,1.5885,1.5885,1.5885,1.5885,1.5885,1.5885,1.5885,1.591,1.597,1.5982,1.6127,1.6357,1.6539,1.6648,1.6758,1.6854,1.6876,1.6845,1.648,1.6435,1.6172,1.5815,1.5409,1.4778,1.3984,1.3049,1.2299,1.1183,0.9937,0.872,0.7378,0.6154,0.5049,0.4321,0.3593,0.2888,0.2534,0.2177,0.1571,0.1584,0.1857,0.2008,0.2286,0.2825,0.3631,0.4303,0.4559,0.4958,0.5225,0.5095,0.483,0.4693,0.416,0.3629,0.3228,0.269,0.1885,0.0943,0.0403,-0.0402,-0.1608,-0.2821,-0.336,-0.3749,-0.4281,-0.4806,-0.5066,-0.5321,-0.5708,-0.6086,-0.6201,-0.6583,-0.6823,-0.7457,-0.7972,-0.8615,-0.9257,-0.9515,-0.9922,-1.0453,-1.0884,-1.1254,-1.1772,-1.2393,-1.3392,-1.3978,-1.4596,-1.5071,-1.5519,-1.5782,-1.6107,-1.6414,-1.6626,-1.6979,-1.7022,-1.6935,-1.7207,-1.7611,-1.7984,-1.8213,-1.891,-1.9455,-2.021,-2.0911,-2.1538,-2.2253,-2.2972,-2.3617,-2.4178,-2.4795,1.663,1.643,1.6111,1.5885,1.5885,1.5885,1.5885,1.5885,1.5885,1.5897,1.5885,1.591,1.6006,1.6139,1.6187,1.6344,1.6549,1.6585,1.6697,1.6796,1.6796,1.6845,1.6869,1.6696,1.6537,1.6127,1.5742,1.5081,1.4382,1.3522,1.2712,1.1963,1.0823,0.9572,0.8477,0.7011,0.5663,0.4435,0.3712,0.3115,0.2525,0.2303,0.1945,0.1317,0.1328,-0.0,-0.0,0.1752,0.2155,0.2692,0.323,0.3631,0.4171,0.4708,0.4708,0.4574,0.4442,0.4171,0.3768,0.3497,0.3096,0.2558,0.175,0.1212,0.0269,-0.1212,-0.2289,-0.2692,-0.3096,-0.3768,-0.4305,-0.4574,-0.4977,-0.5369,-0.5893,-0.6152,-0.6411,-0.6925,-0.7436,-0.7959,-0.8618,-0.9007,-0.9264,-0.967,-1.0083,-1.0484,-1.0754,-1.1148,-1.1642,-1.2523,-1.3071,-1.3713,-1.4336,-1.478,-1.501,-1.5248,-1.5535,-1.5832,-1.6033,-1.6203,-1.6364,-1.6904,-1.7285,-1.7427,-1.7667,-1.8408,-1.9157,-1.9784,-2.0479,-2.1188,-2.1903,-2.2682,-2.3228,-2.386,-2.4418,1.6524,1.6324,1.6004,1.5885,1.5885,1.5885,1.5885,1.5885,1.5885,1.5958,1.6054,1.6079,1.6151,1.6332,1.6404,1.661,1.6839,1.675,1.6863,1.6964,1.694,1.6855,1.6881,1.6784,1.6612,1.6306,1.5794,1.5155,1.4158,1.3432,1.2714,1.1879,1.059,0.9329,0.8233,0.6644,0.5295,0.4192,0.3472,0.2761,0.2161,0.1931,0.1046,0.053,-0.0,-0.0,-0.0,0.136,0.2047,0.2464,0.3158,0.357,0.3976,0.4368,0.4487,0.4476,0.433,0.4171,0.3905,0.3773,0.3506,0.2969,0.2559,0.2021,0.1481,0.0135,-0.0943,-0.1481,-0.2423,-0.2961,-0.3768,-0.4305,-0.444,-0.4833,-0.5637,-0.6034,-0.6435,-0.6827,-0.7351,-0.7754,-0.8281,-0.8673,-0.8938,-0.9197,-0.9751,-1.0022,-1.018,-1.0452,-1.0982,-1.1387,-1.2103,-1.2726,-1.3316,-1.3866,-1.4083,-1.4335,-1.4614,-1.4912,-1.5183,-1.5443,-1.5834,-1.6353,-1.6818,-1.7085,-1.7506,-1.8195,-1.8963,-1.9594,-2.0267,-2.0893,-2.1654,-2.2436,-2.2968,-2.3616,-2.4334,1.6524,1.6217,1.6004,1.5885,1.5885,1.5885,1.5885,1.5897,1.5934,1.6066,1.6272,1.6356,1.638,1.6477,1.6622,1.6887,1.7068,1.7117,1.7141,1.7141,1.7141,1.7056,1.6936,1.6791,1.6606,1.6434,1.5927,1.5074,1.4147,1.3606,1.2894,1.1921,1.0696,0.9329,0.7989,0.6766,0.554,0.4577,0.3618,0.241,0.1924,0.1424,0.0263,-0.0534,-0.0945,-0.0272,0.0411,0.1104,0.1942,0.2504,0.293,0.3488,0.376,0.4152,0.4279,0.4401,0.4379,0.4221,0.4075,0.3944,0.3668,0.339,0.3109,0.2839,0.2302,0.1489,0.0406,-0.0407,-0.1355,-0.2437,-0.3111,-0.3782,-0.4049,-0.4585,-0.5393,-0.6053,-0.6455,-0.6857,-0.7125,-0.7526,-0.7922,-0.8456,-0.8717,-0.8984,-0.9256,-0.9528,-0.9661,-0.9927,-1.006,-1.0459,-1.0955,-1.1468,-1.2018,-1.2561,-1.3087,-1.3481,-1.3744,-1.4006,-1.4268,-1.466,-1.5183,-1.5704,-1.6224,-1.6732,-1.7301,-1.7989,-1.8704,-1.9362,-2.0041,-2.0699,-2.1506,-2.2289,-2.294,-2.3535,-2.4363,1.6217,1.6004,1.5885,1.5885,1.5885,1.5885,1.5885,1.5922,1.6115,1.6247,1.6404,1.6767,1.6936,1.6936,1.6972,1.7141,1.731,1.7358,1.7394,1.7406,1.7358,1.7346,1.7261,1.7056,1.6547,1.6249,1.5886,1.5238,1.4572,1.3946,1.3221,1.2175,1.123,0.9937,0.8599,0.7373,0.6158,0.5074,0.4133,0.3181,0.1935,0.1305,0.0265,-0.0537,-0.1361,-0.0821,-0.0138,0.0834,0.1258,0.1682,0.2388,0.3094,0.3514,0.3928,0.4195,0.4461,0.4439,0.429,0.4282,0.4282,0.4003,0.4011,0.373,0.3458,0.3045,0.2492,0.1523,0.1109,-0.0,-0.1518,-0.2481,-0.3152,-0.3693,-0.4635,-0.5447,-0.6088,-0.6606,-0.687,-0.7134,-0.7397,-0.7789,-0.8189,-0.859,-0.8723,-0.8851,-0.9123,-0.9256,-0.9389,-0.9661,-0.9794,-0.9933,-1.0459,-1.0989,-1.138,-1.2041,-1.2568,-1.2832,-1.3095,-1.335,-1.4006,-1.453,-1.48,-1.5453,-1.6224,-1.6872,-1.7602,-1.8326,-1.9169,-1.9827,-2.0531,-2.1463,-2.2233,-2.2917,-2.3572,-2.4277]},{"header":{"parameterUnit":"m.s-1","parameterCategory":1,"la1":31.0,"la2":29.5877,"lo1":-88.7671,"lo2":-86.6584,"dy":0.0162,"dx":0.0185,"nx":115,"ny":88,"refTime":"2023-06-20T06:00:00:Z","depth":0,"parameterNumber":3,"parameterNumberName":"V-component_of_WINDS"},"data":[0.0,0.0,0.0,0.0,0.0,0.0,0.0,0.0,0.0,0.0,0.0,0.0,0.0,0.0,0.0,0.0,0.0,0.0,0.0,0.0,0.0,0.0,0.0,0.0,0.0,0.0,0.0,0.0,0.0,0.0,0.0,0.0,0.0,0.0,0.0,0.0,0.0,0.0,0.0,0.0,0.0,0.0,0.0,0.0,0.0,0.0,0.0,0.0,0.0,0.0,0.0,0.0,0.0,0.0,0.0,0.0,0.0,0.0,0.0,0.0,0.0,0.0,0.0,0.0,0.0,0.0,0.0,0.0,0.0,0.0,0.0,0.0,0.0,0.0,0.0,0.0,0.0,0.0,0.0,0.0,0.0,0.0,0.0,0.0,0.0,0.0,0.0,0.0,0.0,0.0,0.0,0.0,0.0,0.0,0.0,0.0,0.0,0.0,0.0,0.0,0.0,0.0,0.0,0.0,0.0,0.0,0.0,0.0,0.0,0.0,0.0,0.0,0.0,0.0,0.0,0.0,0.0,0.0,0.0,0.0,0.0,0.0,0.0,0.0,0.0,0.0,0.0,0.0,0.0,0.0,0.0,0.0,0.0,0.0,0.0,0.0,0.0,0.0,0.0,0.0,0.0,0.0,0.0,0.0,0.0,0.0,0.0,0.0,0.0,0.0,0.0,0.0,0.0,0.0,0.0,0.0,0.0,0.0,0.0,0.0,0.0,0.0,0.0,0.0,0.0,0.0,0.0,0.0,0.0,0.0,0.0,0.0,0.0,0.0,0.0,0.0,0.0,0.0,0.0,0.0,0.0,0.0,0.0,0.0,0.0,0.0,0.0,0.0,0.0,0.0,0.0,0.0,0.0,0.0,0.0,0.0,0.0,0.0,0.0,0.0,0.0,0.0,0.0,0.0,0.0,0.0,0.0,0.0,0.0,0.0,0.0,0.0,0.0,0.0,0.0,0.0,0.0,0.0,0.0,0.0,0.0,0.0,0.0,0.0,0.0,0.0,0.0,0.0,0.0,0.0,0.0,0.0,0.0,0.0,0.0,0.0,0.0,0.0,0.0,0.0,0.0,0.0,0.0,0.0,0.0,0.0,0.0,0.0,0.0,0.0,0.0,0.0,0.0,0.0,0.0,0.0,0.0,0.0,0.0,0.0,0.0,0.0,0.0,0.0,0.0,0.0,0.0,0.0,0.0,0.0,0.0,0.0,0.0,0.0,0.0,0.0,0.0,0.0,0.0,0.0,0.0,0.0,0.0,0.0,0.0,0.0,0.0,0.0,0.0,0.0,0.0,0.0,0.0,0.0,0.0,0.0,0.0,0.0,0.0,0.0,0.0,0.0,0.0,0.0,0.0,0.0,0.0,0.0,0.0,0.0,0.0,0.0,0.0,0.0,0.0,0.0,0.0,0.0,0.0,0.0,0.0,0.0,0.0,0.0,0.0,0.0,0.0,0.0,0.0,0.0,0.0,0.0,0.0,0.0,0.0,0.0,0.0,0.0,0.0,0.0,0.0,0.0,0.0,0.0,0.0,0.0,0.0,0.0,0.0,0.0,0.0,0.0,0.0,0.0,0.0,0.0,0.0,0.0,0.0,0.0,0.0,0.0,0.0,0.0,0.0,0.0,0.0,0.0,0.0,0.0,0.0,0.0,0.0,0.0,0.0,0.0,0.0,0.0,0.0,0.0,0.0,0.0,0.0,0.0,0.0,0.0,0.0,0.0,0.0,0.0,0.0,0.0,0.0,0.0,0.0,0.0,0.0,0.0,0.0,0.0,0.0,0.0,0.0,0.0,0.0,0.0,0.0,0.0,0.0,0.0,0.0,0.0,0.0,0.0,0.0,0.0,0.0,0.0,0.0,0.0,0.0,0.0,0.0,0.0,0.0,0.0,0.0,0.0,0.0,0.0,0.0,0.0,0.0,0.0,0.0,0.0,0.0,0.0,0.0,0.0,0.0,0.0,0.0,0.0,0.0,0.0,0.0,0.0,0.0,0.0,0.0,0.0,0.0,0.0,0.0,0.0,0.0,0.0,0.0,0.0,0.0,0.0,0.0,0.0,0.0,0.0,0.0,0.0,0.0,0.0,0.0,0.0,0.0,0.0,0.0,0.0,0.0,0.0,0.0,0.0,0.0,0.0,0.0,0.0,0.0,0.0,0.0,0.0,0.0,0.0,0.0,0.0,0.0,0.0,0.0,0.0,0.0,0.0,0.0,0.0,0.0,0.0,0.0,0.0,0.0,0.0,0.0,0.0,0.0,0.0,0.0,0.0,0.0,0.0,0.0,0.0,0.0,0.0,0.0,0.0,0.0,0.0,0.0,0.0,0.0,0.0,0.0,0.0,0.0,0.0,0.0,0.0,0.0,0.0,0.0,0.0,0.0,0.0,0.0,0.0,0.0,0.0,0.0,0.0,0.0,0.0,0.0,0.0,0.0,0.0,0.0,0.0,0.0,0.0,0.0,0.0,0.0,0.0,0.0,0.0,0.0,0.0,0.0,0.0,0.0,0.0,0.0,0.0,0.0,0.0,0.0,0.0,0.0,0.0,0.0,0.0,0.0,0.0,0.0,0.0,0.0,0.0,0.0,0.0,0.0,0.0,0.0,0.0,0.0,0.0,0.0,0.0,0.0,0.0,0.0,0.0,0.0,0.0,0.0,0.0,0.0,0.0,0.0,0.0,0.0,0.0,0.0,0.0,0.0,0.0,0.0,0.0,0.0,0.0,0.0,0.0,0.0,0.0,0.0,0.0,0.0,0.0,0.0,0.0,0.0,0.0,0.0,0.0,0.0,0.0,0.0,0.0,0.0,0.0,0.0,0.0,0.0,0.0,0.0,0.0,0.0,0.0,0.0,0.0,0.0,0.0,0.0,0.0,0.0,0.0,0.0,0.0,0.0,0.0,0.0,0.0,0.0,0.0,0.0,0.0,0.0,0.0,0.0,0.0,0.0,0.0,0.0,0.0,0.0,0.0,0.0,0.0,0.0,0.0,0.0,0.0,0.0,0.0,0.0,0.0,0.0,0.0,0.0,0.0,0.0,0.0,0.0,0.0,0.0,0.0,0.0,0.0,0.0,0.0,0.0,0.0,0.0,0.0,0.0,0.0,0.0,0.0,0.0,0.0,0.0,0.0,0.0,0.0,0.0,0.0,0.0,0.0,0.0,0.0,0.0,0.0,0.0,0.0,0.0,0.0,0.0,0.0,0.0,0.0,0.0,0.0,0.0,0.0,0.0,0.0,0.0,0.0,0.0,0.0,0.0,0.0,0.0,0.0,0.0,0.0,0.0,0.0,0.0,0.0,0.0,0.0,0.0,0.0,0.0,0.0,0.0,0.0,0.0,0.0,0.0,0.0,0.0,0.0,0.0,0.0,0.0,0.0,0.0,0.0,0.0,0.0,0.0,0.0,0.0,0.0,0.0,0.0,0.0,0.0,0.0,0.0,0.0,0.0,0.0,0.0,0.0,0.0,0.0,0.0,0.0,0.0,0.0,0.0,0.0,0.0,0.0,0.0,0.0,0.0,0.0,0.0,0.0,0.0,0.0,0.0,0.0,0.0,0.0,0.0,0.0,0.0,0.0,0.0,0.0,0.0,0.0,0.0,0.0,0.0,0.0,0.0,0.0,0.0,0.0,0.0,0.0,0.0,0.0,0.0,0.0,0.0,0.0,0.0,0.0,0.0,0.0,0.0,0.0,0.0,0.0,0.0,0.0,0.0,0.0,0.0,0.0,0.0,0.0,0.0,0.0,0.0,0.0,0.0,0.0,0.0,0.0,0.0,0.0,0.0,0.0,0.0,0.0,0.0,0.0,0.0,0.0,0.0,0.0,0.0,0.0,0.0,0.0,0.0,0.0,0.0,0.0,0.0,0.0,0.0,0.0,0.0,0.0,0.0,0.0,0.0,0.0,0.0,0.0,0.0,0.0,0.0,0.0,0.0,0.0,0.0,0.0,0.0,0.0,0.0,0.0,0.0,0.0,0.0,0.0,0.0,0.0,0.0,0.0,0.0,0.0,0.0,0.0,0.0,0.0,0.0,0.0,0.0,0.0,0.0,0.0,0.0,0.0,0.0,0.0,0.0,0.0,0.0,0.0,0.0,0.0,0.0,0.0,0.0,0.0,0.0,0.0,0.0,0.0,0.0,0.0,0.0,0.0,0.0,0.0,0.0,0.0,0.0,0.0,0.0,0.0,0.0,0.0,0.0,0.0,0.0,0.0,0.0,0.0,0.0,0.0,0.0,0.0,0.0,0.0,0.0,0.0,0.0,0.0,0.0,0.0,0.0,-1.9686,0.0,0.0,0.0,0.0,0.0,0.0,0.0,0.0,0.0,0.0,0.0,0.0,0.0,0.0,0.0,0.0,0.0,0.0,0.0,0.0,0.0,0.0,0.0,0.0,0.0,0.0,0.0,0.0,0.0,0.0,0.0,0.0,0.0,0.0,0.0,0.0,0.0,0.0,0.0,0.0,0.0,0.0,0.0,0.0,0.0,0.0,0.0,0.0,0.0,0.0,0.0,0.0,0.0,0.0,0.0,0.0,0.0,0.0,0.0,0.0,0.0,0.0,0.0,0.0,0.0,0.0,0.0,0.0,0.0,0.0,0.0,0.0,0.0,0.0,0.0,0.0,0.0,0.0,0.0,0.0,0.0,0.0,0.0,0.0,0.0,0.0,0.0,0.0,0.0,0.0,0.0,0.0,0.0,0.0,0.0,0.0,0.0,0.0,0.0,0.0,0.0,0.0,0.0,0.0,0.0,0.0,0.0,0.0,0.0,0.0,-1.9266,-1.9338,-1.9464,-1.9564,-1.9686,0.0,0.0,0.0,0.0,0.0,0.0,0.0,0.0,0.0,0.0,0.0,0.0,0.0,0.0,0.0,0.0,0.0,0.0,0.0,0.0,0.0,0.0,0.0,0.0,0.0,0.0,0.0,0.0,0.0,0.0,0.0,0.0,0.0,0.0,0.0,0.0,0.0,0.0,0.0,0.0,0.0,0.0,0.0,0.0,0.0,0.0,0.0,0.0,0.0,0.0,0.0,0.0,0.0,0.0,0.0,0.0,0.0,0.0,0.0,0.0,0.0,0.0,0.0,0.0,0.0,0.0,0.0,0.0,0.0,0.0,0.0,0.0,0.0,0.0,0.0,0.0,0.0,0.0,0.0,0.0,0.0,0.0,0.0,0.0,0.0,0.0,0.0,0.0,0.0,0.0,0.0,0.0,0.0,0.0,0.0,0.0,0.0,0.0,0.0,0.0,0.0,0.0,0.0,0.0,0.0,0.0,0.0,0.0,0.0,0.0,0.0,0.0,-1.9427,-1.9592,-1.9712,0.0,0.0,0.0,0.0,0.0,0.0,0.0,0.0,0.0,0.0,0.0,0.0,0.0,0.0,0.0,0.0,0.0,0.0,0.0,0.0,0.0,0.0,0.0,0.0,0.0,0.0,0.0,0.0,0.0,0.0,0.0,0.0,0.0,0.0,0.0,0.0,0.0,0.0,0.0,0.0,0.0,0.0,0.0,0.0,0.0,0.0,0.0,0.0,0.0,0.0,0.0,0.0,0.0,0.0,0.0,0.0,0.0,0.0,0.0,0.0,0.0,0.0,0.0,0.0,0.0,0.0,0.0,0.0,0.0,0.0,0.0,0.0,0.0,0.0,0.0,0.0,0.0,0.0,0.0,0.0,0.0,0.0,0.0,0.0,0.0,0.0,0.0,0.0,0.0,0.0,0.0,0.0,0.0,0.0,0.0,0.0,0.0,0.0,0.0,0.0,0.0,0.0,0.0,0.0,0.0,0.0,0.0,0.0,0.0,0.0,-1.9214,-1.9271,-1.9427,0.0,-1.9801,0.0,0.0,0.0,0.0,0.0,0.0,0.0,0.0,0.0,0.0,0.0,0.0,0.0,0.0,0.0,0.0,0.0,0.0,0.0,0.0,0.0,0.0,0.0,0.0,0.0,0.0,0.0,0.0,0.0,0.0,0.0,0.0,0.0,0.0,0.0,0.0,0.0,0.0,0.0,0.0,0.0,0.0,0.0,0.0,0.0,0.0,0.0,0.0,0.0,0.0,0.0,0.0,0.0,0.0,0.0,0.0,0.0,0.0,0.0,0.0,0.0,0.0,0.0,0.0,0.0,0.0,0.0,0.0,0.0,0.0,0.0,0.0,0.0,0.0,0.0,0.0,0.0,0.0,0.0,0.0,0.0,0.0,0.0,0.0,0.0,0.0,0.0,0.0,0.0,0.0,0.0,0.0,0.0,0.0,0.0,0.0,0.0,0.0,0.0,0.0,0.0,0.0,0.0,0.0,0.0,0.0,0.0,0.0,0.0,0.0,-1.9298,-1.9375,-1.9527,-1.9688,0.0,0.0,0.0,0.0,0.0,0.0,0.0,0.0,0.0,0.0,0.0,0.0,0.0,0.0,0.0,0.0,0.0,0.0,0.0,0.0,0.0,0.0,0.0,0.0,0.0,0.0,0.0,0.0,0.0,0.0,0.0,0.0,0.0,0.0,0.0,0.0,0.0,0.0,0.0,0.0,0.0,0.0,0.0,0.0,0.0,0.0,0.0,0.0,0.0,0.0,0.0,0.0,0.0,0.0,0.0,0.0,0.0,0.0,0.0,0.0,0.0,0.0,0.0,0.0,0.0,0.0,0.0,0.0,0.0,0.0,0.0,0.0,0.0,0.0,0.0,0.0,0.0,0.0,0.0,0.0,0.0,0.0,0.0,0.0,0.0,0.0,0.0,0.0,0.0,0.0,0.0,0.0,0.0,0.0,0.0,0.0,0.0,0.0,0.0,0.0,0.0,0.0,0.0,0.0,0.0,0.0,0.0,0.0,0.0,0.0,-1.9219,-1.9344,-1.9479,-1.9649,-1.98,-1.993,0.0,0.0,0.0,0.0,0.0,0.0,0.0,0.0,0.0,0.0,0.0,0.0,0.0,0.0,0.0,0.0,0.0,0.0,0.0,0.0,0.0,0.0,0.0,0.0,0.0,0.0,0.0,0.0,0.0,0.0,0.0,0.0,0.0,0.0,0.0,0.0,0.0,0.0,0.0,0.0,0.0,0.0,0.0,0.0,0.0,0.0,0.0,0.0,0.0,0.0,0.0,0.0,0.0,0.0,0.0,0.0,0.0,0.0,0.0,0.0,0.0,0.0,0.0,0.0,0.0,0.0,0.0,0.0,0.0,0.0,0.0,0.0,0.0,0.0,0.0,0.0,0.0,0.0,0.0,0.0,0.0,0.0,0.0,0.0,0.0,0.0,0.0,0.0,0.0,0.0,0.0,0.0,0.0,0.0,0.0,0.0,0.0,0.0,0.0,0.0,0.0,0.0,0.0,0.0,0.0,0.0,0.0,0.0,-1.9087,-1.9219,-1.942,-1.9673,-1.9813,-1.9908,0.0,0.0,0.0,0.0,0.0,0.0,0.0,0.0,0.0,0.0,0.0,0.0,0.0,0.0,0.0,0.0,0.0,0.0,0.0,0.0,0.0,0.0,0.0,0.0,0.0,0.0,0.0,0.0,0.0,0.0,0.0,0.0,0.0,0.0,0.0,0.0,0.0,0.0,0.0,0.0,0.0,0.0,0.0,0.0,0.0,0.0,0.0,0.0,0.0,0.0,0.0,0.0,0.0,0.0,0.0,0.0,0.0,0.0,0.0,0.0,0.0,0.0,0.0,0.0,0.0,0.0,0.0,0.0,0.0,0.0,0.0,0.0,0.0,0.0,0.0,0.0,0.0,0.0,0.0,0.0,0.0,0.0,0.0,0.0,0.0,0.0,0.0,0.0,0.0,0.0,0.0,0.0,0.0,0.0,0.0,0.0,0.0,0.0,0.0,0.0,0.0,0.0,0.0,0.0,0.0,0.0,0.0,0.0,0.0,-1.917,-1.9323,-1.9499,-1.9688,-1.9837,-1.993,0.0,0.0,0.0,0.0,0.0,0.0,0.0,0.0,0.0,0.0,0.0,0.0,0.0,0.0,0.0,0.0,0.0,0.0,0.0,0.0,0.0,0.0,0.0,0.0,0.0,0.0,0.0,0.0,0.0,0.0,0.0,0.0,0.0,0.0,0.0,0.0,0.0,0.0,0.0,0.0,0.0,0.0,0.0,0.0,0.0,0.0,0.0,0.0,0.0,0.0,0.0,0.0,0.0,0.0,0.0,0.0,0.0,0.0,0.0,0.0,0.0,0.0,0.0,0.0,0.0,0.0,0.0,0.0,0.0,0.0,0.0,0.0,0.0,0.0,0.0,0.0,0.0,0.0,0.0,0.0,0.0,0.0,0.0,0.0,0.0,0.0,0.0,0.0,0.0,0.0,0.0,0.0,0.0,0.0,0.0,0.0,0.0,0.0,0.0,0.0,0.0,0.0,0.0,0.0,0.0,0.0,0.0,0.0,0.0,-1.9235,0.0,-1.9569,-1.9701,-1.9823,-1.9952,0.0,0.0,0.0,0.0,0.0,0.0,0.0,0.0,0.0,0.0,0.0,0.0,0.0,0.0,0.0,0.0,0.0,0.0,0.0,0.0,0.0,0.0,0.0,0.0,0.0,0.0,0.0,0.0,0.0,0.0,0.0,0.0,0.0,0.0,0.0,0.0,0.0,0.0,0.0,0.0,0.0,0.0,0.0,0.0,0.0,0.0,0.0,0.0,0.0,0.0,0.0,0.0,0.0,0.0,0.0,0.0,0.0,0.0,0.0,0.0,0.0,0.0,0.0,0.0,0.0,0.0,0.0,0.0,0.0,0.0,0.0,0.0,0.0,0.0,0.0,0.0,0.0,0.0,0.0,0.0,0.0,0.0,0.0,0.0,0.0,0.0,0.0,0.0,0.0,0.0,0.0,0.0,0.0,0.0,0.0,0.0,0.0,0.0,0.0,0.0,0.0,0.0,0.0,0.0,0.0,0.0,0.0,0.0,-1.919,-1.9319,-1.945,-1.9555,-1.9701,-1.9835,-1.9985,0.0,0.0,0.0,0.0,0.0,0.0,0.0,0.0,0.0,0.0,0.0,0.0,0.0,0.0,0.0,0.0,0.0,0.0,0.0,0.0,0.0,0.0,0.0,0.0,0.0,0.0,0.0,0.0,0.0,0.0,0.0,0.0,0.0,0.0,0.0,0.0,0.0,0.0,0.0,0.0,0.0,0.0,0.0,0.0,0.0,0.0,0.0,0.0,0.0,0.0,0.0,0.0,0.0,0.0,0.0,0.0,0.0,0.0,0.0,0.0,0.0,0.0,0.0,0.0,0.0,0.0,0.0,0.0,0.0,0.0,0.0,0.0,0.0,0.0,0.0,0.0,0.0,0.0,0.0,0.0,0.0,0.0,0.0,0.0,0.0,0.0,0.0,0.0,0.0,0.0,0.0,0.0,0.0,0.0,0.0,0.0,0.0,0.0,0.0,0.0,0.0,0.0,0.0,0.0,0.0,0.0,0.0,0.0,0.0,-1.9166,-1.9261,-1.9398,-1.9569,-1.9676,-1.9858,0.0,0.0,0.0,0.0,0.0,0.0,0.0,0.0,0.0,0.0,0.0,0.0,0.0,0.0,0.0,0.0,0.0,0.0,0.0,0.0,0.0,0.0,0.0,0.0,0.0,0.0,0.0,0.0,0.0,0.0,0.0,0.0,0.0,0.0,0.0,0.0,0.0,0.0,0.0,0.0,0.0,0.0,0.0,0.0,0.0,0.0,0.0,0.0,0.0,0.0,0.0,0.0,0.0,0.0,0.0,0.0,0.0,0.0,0.0,0.0,0.0,0.0,0.0,0.0,0.0,0.0,0.0,0.0,0.0,0.0,0.0,0.0,0.0,0.0,0.0,0.0,0.0,0.0,0.0,0.0,0.0,0.0,0.0,0.0,0.0,0.0,0.0,0.0,0.0,0.0,0.0,0.0,0.0,0.0,0.0,0.0,0.0,0.0,0.0,0.0,0.0,0.0,0.0,0.0,0.0,0.0,0.0,0.0,0.0,-1.9487,-1.9844,-2.014,-2.0329,-2.0518,-2.054,-2.0462,0.0,0.0,0.0,0.0,0.0,0.0,0.0,0.0,0.0,0.0,0.0,0.0,0.0,0.0,0.0,0.0,0.0,0.0,0.0,0.0,0.0,0.0,0.0,0.0,0.0,0.0,0.0,0.0,0.0,0.0,0.0,0.0,0.0,0.0,0.0,0.0,0.0,0.0,0.0,0.0,0.0,0.0,0.0,0.0,0.0,0.0,0.0,0.0,0.0,0.0,0.0,0.0,0.0,0.0,0.0,0.0,0.0,0.0,0.0,0.0,0.0,0.0,0.0,0.0,0.0,0.0,0.0,0.0,0.0,0.0,0.0,0.0,0.0,0.0,0.0,0.0,0.0,0.0,0.0,0.0,0.0,0.0,0.0,0.0,0.0,0.0,0.0,0.0,0.0,0.0,0.0,0.0,0.0,0.0,0.0,0.0,0.0,0.0,0.0,0.0,0.0,0.0,0.0,0.0,0.0,0.0,0.0,0.0,-2.0132,-2.1112,-2.1644,-2.1742,-2.1956,-2.1826,0.0,0.0,0.0,0.0,0.0,0.0,0.0,0.0,0.0,0.0,0.0,0.0,0.0,0.0,0.0,0.0,0.0,0.0,0.0,0.0,0.0,0.0,0.0,0.0,0.0,0.0,0.0,0.0,0.0,0.0,0.0,0.0,0.0,0.0,0.0,0.0,0.0,0.0,0.0,0.0,0.0,0.0,0.0,0.0,0.0,0.0,0.0,0.0,0.0,0.0,0.0,0.0,0.0,0.0,0.0,0.0,0.0,0.0,0.0,0.0,0.0,0.0,0.0,0.0,0.0,0.0,0.0,0.0,0.0,0.0,0.0,0.0,0.0,0.0,0.0,0.0,0.0,0.0,0.0,0.0,0.0,0.0,0.0,0.0,0.0,0.0,0.0,0.0,0.0,0.0,0.0,0.0,0.0,0.0,0.0,0.0,0.0,0.0,0.0,0.0,0.0,0.0,0.0,0.0,0.0,0.0,0.0,0.0,0.0,-2.1682,-2.259,-2.2592,-2.1625,-2.1795,-2.1674,0.0,0.0,0.0,0.0,0.0,0.0,0.0,0.0,0.0,0.0,0.0,0.0,0.0,0.0,0.0,0.0,0.0,0.0,0.0,0.0,0.0,0.0,0.0,0.0,0.0,0.0,0.0,0.0,0.0,0.0,0.0,0.0,0.0,0.0,0.0,0.0,0.0,0.0,0.0,0.0,0.0,0.0,0.0,0.0,0.0,0.0,0.0,0.0,0.0,0.0,0.0,0.0,0.0,0.0,0.0,0.0,0.0,0.0,0.0,0.0,0.0,0.0,0.0,0.0,0.0,0.0,0.0,0.0,0.0,0.0,0.0,0.0,0.0,0.0,0.0,0.0,0.0,0.0,0.0,0.0,0.0,0.0,0.0,0.0,0.0,0.0,0.0,0.0,0.0,0.0,0.0,0.0,0.0,0.0,0.0,0.0,0.0,0.0,0.0,0.0,0.0,0.0,0.0,0.0,0.0,0.0,0.0,0.0,-2.1518,-2.2246,-2.3111,-2.3185,-2.2491,-2.2758,-2.2609,0.0,0.0,0.0,0.0,0.0,0.0,0.0,0.0,0.0,0.0,0.0,0.0,0.0,0.0,0.0,0.0,0.0,0.0,0.0,0.0,0.0,0.0,0.0,0.0,0.0,0.0,0.0,0.0,0.0,0.0,0.0,0.0,0.0,0.0,0.0,0.0,0.0,0.0,0.0,0.0,0.0,0.0,0.0,0.0,0.0,0.0,0.0,0.0,0.0,0.0,0.0,0.0,0.0,0.0,0.0,0.0,0.0,0.0,0.0,0.0,0.0,0.0,0.0,0.0,0.0,0.0,0.0,0.0,0.0,0.0,0.0,0.0,0.0,0.0,0.0,0.0,0.0,0.0,0.0,0.0,0.0,0.0,0.0,0.0,0.0,0.0,0.0,0.0,0.0,0.0,0.0,0.0,0.0,0.0,0.0,0.0,0.0,0.0,0.0,0.0,0.0,0.0,0.0,0.0,0.0,0.0,0.0,0.0,-2.1491,-2.2287,-2.3079,-2.3607,-2.3804,-2.4089,-2.4006,0.0,0.0,0.0,0.0,0.0,0.0,0.0,0.0,0.0,0.0,0.0,0.0,0.0,0.0,0.0,0.0,0.0,0.0,0.0,0.0,0.0,0.0,0.0,0.0,0.0,0.0,0.0,0.0,0.0,0.0,0.0,0.0,0.0,0.0,0.0,0.0,0.0,0.0,0.0,0.0,0.0,0.0,0.0,0.0,0.0,0.0,0.0,0.0,0.0,0.0,0.0,0.0,0.0,0.0,0.0,0.0,0.0,0.0,0.0,0.0,0.0,0.0,0.0,0.0,0.0,0.0,0.0,0.0,0.0,0.0,0.0,0.0,0.0,0.0,0.0,0.0,0.0,0.0,0.0,0.0,0.0,0.0,0.0,0.0,0.0,0.0,0.0,0.0,0.0,0.0,0.0,0.0,0.0,0.0,0.0,0.0,0.0,0.0,0.0,0.0,0.0,0.0,0.0,0.0,0.0,0.0,0.0,0.0,-2.1718,-2.3035,-2.3341,-2.3607,-2.3804,-2.4012,-2.3916,0.0,0.0,0.0,0.0,0.0,0.0,0.0,0.0,0.0,0.0,0.0,0.0,0.0,0.0,0.0,0.0,0.0,0.0,0.0,0.0,0.0,0.0,0.0,0.0,0.0,0.0,0.0,0.0,0.0,0.0,0.0,0.0,0.0,0.0,0.0,0.0,0.0,0.0,0.0,0.0,0.0,0.0,0.0,0.0,0.0,0.0,0.0,0.0,-2.0011,0.0,0.0,0.0,0.0,0.0,0.0,0.0,0.0,0.0,0.0,0.0,0.0,0.0,0.0,0.0,0.0,0.0,0.0,0.0,0.0,0.0,0.0,0.0,0.0,0.0,0.0,0.0,0.0,0.0,0.0,0.0,0.0,0.0,0.0,0.0,0.0,0.0,0.0,0.0,0.0,0.0,0.0,0.0,0.0,0.0,0.0,0.0,0.0,0.0,0.0,0.0,0.0,0.0,0.0,0.0,0.0,0.0,0.0,0.0,-2.2136,-2.3259,-2.3378,-2.3539,-2.3761,-2.3873,-2.3914,0.0,0.0,0.0,0.0,0.0,0.0,0.0,0.0,0.0,0.0,0.0,0.0,0.0,0.0,0.0,0.0,0.0,0.0,0.0,0.0,0.0,0.0,0.0,0.0,0.0,0.0,0.0,0.0,0.0,0.0,0.0,0.0,0.0,0.0,0.0,0.0,0.0,0.0,0.0,0.0,0.0,0.0,0.0,0.0,0.0,0.0,0.0,0.0,0.0,0.0,0.0,0.0,0.0,0.0,0.0,0.0,0.0,0.0,0.0,0.0,0.0,0.0,0.0,0.0,0.0,0.0,0.0,0.0,0.0,0.0,0.0,0.0,0.0,0.0,0.0,0.0,0.0,0.0,0.0,0.0,0.0,0.0,0.0,0.0,0.0,0.0,0.0,0.0,0.0,0.0,0.0,0.0,0.0,0.0,0.0,0.0,0.0,0.0,0.0,0.0,0.0,0.0,0.0,0.0,0.0,0.0,0.0,-2.1746,-2.2481,-2.3259,-2.333,-2.3412,-2.3718,-2.3789,-2.4019,-2.4442,0.0,0.0,0.0,0.0,0.0,0.0,0.0,0.0,0.0,0.0,0.0,0.0,0.0,0.0,0.0,0.0,0.0,0.0,0.0,0.0,0.0,0.0,0.0,0.0,0.0,0.0,0.0,0.0,0.0,0.0,0.0,0.0,0.0,0.0,0.0,0.0,0.0,0.0,-1.9392,-1.9572,0.0,0.0,0.0,0.0,0.0,0.0,0.0,0.0,-2.1915,0.0,0.0,0.0,0.0,0.0,0.0,0.0,0.0,0.0,0.0,0.0,0.0,0.0,0.0,0.0,0.0,0.0,0.0,0.0,0.0,0.0,0.0,0.0,0.0,0.0,0.0,0.0,0.0,0.0,0.0,0.0,0.0,0.0,0.0,0.0,0.0,0.0,0.0,0.0,0.0,0.0,0.0,0.0,0.0,0.0,0.0,0.0,0.0,0.0,0.0,0.0,0.0,0.0,0.0,0.0,0.0,-2.1167,-2.1803,-2.2503,-2.3365,-2.3319,-2.3412,-2.3682,-2.3753,-2.3959,-2.4284,0.0,0.0,0.0,0.0,0.0,0.0,0.0,0.0,0.0,0.0,0.0,0.0,0.0,0.0,0.0,0.0,0.0,0.0,0.0,0.0,0.0,0.0,0.0,0.0,0.0,0.0,0.0,0.0,0.0,0.0,0.0,0.0,0.0,0.0,0.0,0.0,0.0,0.0,0.0,-2.0061,-2.0373,0.0,0.0,0.0,0.0,0.0,0.0,0.0,0.0,-2.2315,0.0,0.0,0.0,0.0,0.0,0.0,0.0,0.0,0.0,0.0,0.0,0.0,0.0,0.0,0.0,0.0,0.0,0.0,0.0,0.0,0.0,0.0,0.0,0.0,0.0,0.0,0.0,0.0,0.0,0.0,0.0,0.0,0.0,0.0,0.0,0.0,0.0,0.0,0.0,0.0,0.0,0.0,0.0,0.0,0.0,0.0,0.0,0.0,0.0,0.0,0.0,0.0,0.0,0.0,0.0,-2.1831,-2.2451,-2.2987,-2.3365,-2.3378,-2.3494,-2.3696,-2.3789,-2.3939,0.0,0.0,0.0,0.0,0.0,0.0,0.0,0.0,0.0,0.0,0.0,0.0,0.0,0.0,0.0,0.0,0.0,0.0,0.0,0.0,0.0,0.0,0.0,0.0,0.0,0.0,0.0,0.0,0.0,0.0,0.0,0.0,0.0,0.0,0.0,0.0,0.0,0.0,0.0,0.0,-2.0811,-2.0993,-2.1379,0.0,0.0,0.0,0.0,0.0,0.0,-2.2897,-2.3119,0.0,0.0,0.0,0.0,0.0,0.0,0.0,0.0,0.0,0.0,0.0,0.0,0.0,0.0,0.0,0.0,0.0,0.0,0.0,0.0,0.0,0.0,0.0,0.0,0.0,0.0,0.0,0.0,0.0,0.0,0.0,0.0,0.0,0.0,0.0,0.0,0.0,0.0,0.0,0.0,0.0,0.0,0.0,0.0,0.0,0.0,0.0,0.0,0.0,0.0,0.0,0.0,0.0,0.0,0.0,-2.2404,-2.3079,-2.3424,-2.3424,-2.3424,-2.3517,-2.3682,-2.3789,-2.3939,0.0,0.0,0.0,0.0,0.0,0.0,0.0,0.0,0.0,0.0,0.0,0.0,0.0,0.0,0.0,0.0,0.0,0.0,0.0,0.0,0.0,0.0,0.0,0.0,0.0,0.0,0.0,0.0,0.0,0.0,0.0,0.0,0.0,0.0,0.0,0.0,0.0,0.0,0.0,0.0,0.0,-2.1664,-2.2275,-2.2405,0.0,0.0,0.0,0.0,-2.3338,-2.36,0.0,0.0,0.0,0.0,0.0,0.0,0.0,0.0,0.0,0.0,0.0,0.0,0.0,0.0,0.0,0.0,0.0,0.0,0.0,0.0,0.0,0.0,0.0,0.0,0.0,0.0,0.0,0.0,0.0,0.0,0.0,0.0,0.0,0.0,0.0,0.0,0.0,0.0,0.0,0.0,0.0,0.0,0.0,0.0,0.0,0.0,0.0,0.0,0.0,0.0,0.0,0.0,0.0,0.0,0.0,0.0,-2.2404,-2.3079,-2.3424,-2.3494,-2.3448,-2.3517,-2.3718,-2.3789,-2.3939,0.0,0.0,0.0,0.0,0.0,0.0,0.0,0.0,0.0,0.0,0.0,0.0,0.0,0.0,0.0,0.0,0.0,0.0,0.0,0.0,0.0,0.0,0.0,0.0,0.0,0.0,0.0,0.0,0.0,0.0,0.0,0.0,0.0,0.0,0.0,0.0,0.0,0.0,0.0,0.0,0.0,-2.2275,-2.2293,-2.2405,-2.246,0.0,0.0,-2.3448,-2.3493,-2.4037,0.0,0.0,0.0,0.0,0.0,0.0,0.0,0.0,0.0,0.0,0.0,0.0,0.0,0.0,0.0,0.0,0.0,0.0,0.0,0.0,0.0,0.0,0.0,0.0,0.0,0.0,0.0,0.0,0.0,0.0,0.0,0.0,0.0,0.0,0.0,0.0,0.0,0.0,0.0,0.0,0.0,0.0,0.0,0.0,0.0,0.0,0.0,0.0,0.0,0.0,0.0,0.0,0.0,0.0,0.0,-2.2386,-2.3048,-2.3338,-2.3471,-2.3494,-2.3471,-2.3504,-2.3682,-2.3789,-2.3939,0.0,0.0,0.0,0.0,0.0,0.0,0.0,0.0,0.0,0.0,0.0,0.0,0.0,0.0,0.0,0.0,0.0,0.0,0.0,0.0,0.0,0.0,0.0,0.0,0.0,0.0,0.0,0.0,0.0,0.0,0.0,0.0,0.0,0.0,0.0,0.0,0.0,0.0,0.0,0.0,0.0,0.0,-2.2147,-2.226,0.0,0.0,0.0,-2.3852,-2.4615,0.0,0.0,0.0,0.0,0.0,0.0,0.0,0.0,0.0,0.0,0.0,0.0,0.0,0.0,0.0,0.0,0.0,0.0,0.0,0.0,0.0,0.0,0.0,0.0,0.0,0.0,0.0,0.0,0.0,0.0,0.0,0.0,0.0,0.0,0.0,0.0,0.0,0.0,0.0,0.0,0.0,0.0,0.0,0.0,0.0,0.0,0.0,0.0,0.0,0.0,0.0,0.0,0.0,0.0,0.0,0.0,0.0,-2.3562,-2.3517,-2.3494,-2.3494,-2.3494,-2.3549,-2.3682,-2.3789,0.0,0.0,0.0,0.0,0.0,0.0,0.0,0.0,0.0,0.0,0.0,0.0,0.0,0.0,0.0,0.0,0.0,0.0,0.0,0.0,0.0,0.0,0.0,0.0,0.0,0.0,0.0,-2.3647,0.0,0.0,0.0,0.0,0.0,0.0,0.0,0.0,0.0,0.0,0.0,0.0,0.0,0.0,-2.2723,-2.2538,-2.2719,-2.3067,0.0,0.0,-2.4535,-2.5627,-2.6124,-2.6649,0.0,0.0,0.0,0.0,0.0,0.0,0.0,0.0,0.0,0.0,0.0,0.0,0.0,0.0,0.0,0.0,0.0,0.0,0.0,0.0,0.0,0.0,0.0,0.0,0.0,0.0,0.0,0.0,0.0,0.0,0.0,0.0,0.0,0.0,0.0,0.0,0.0,0.0,0.0,0.0,0.0,0.0,0.0,0.0,0.0,0.0,0.0,0.0,0.0,0.0,0.0,0.0,0.0,0.0,-2.289,-2.3481,-2.3494,-2.3494,-2.3494,-2.3494,-2.3526,-2.3718,-2.3789,-2.3919,0.0,0.0,0.0,0.0,0.0,0.0,0.0,0.0,0.0,0.0,0.0,0.0,0.0,0.0,0.0,0.0,0.0,0.0,0.0,0.0,0.0,0.0,0.0,0.0,0.0,0.0,0.0,0.0,0.0,0.0,0.0,0.0,0.0,0.0,0.0,0.0,0.0,0.0,0.0,0.0,0.0,-2.4231,-2.4012,-2.4233,-2.4448,0.0,-2.5221,-2.5857,-2.6044,-2.6661,-2.7238,-2.7642,0.0,0.0,0.0,0.0,0.0,0.0,0.0,0.0,0.0,0.0,0.0,0.0,0.0,0.0,0.0,0.0,0.0,0.0,0.0,0.0,0.0,0.0,0.0,0.0,0.0,0.0,0.0,0.0,0.0,0.0,0.0,0.0,0.0,0.0,0.0,0.0,0.0,0.0,0.0,0.0,0.0,0.0,0.0,0.0,0.0,0.0,0.0,0.0,0.0,0.0,0.0,0.0,0.0,-2.3401,-2.3562,-2.3562,-2.3562,-2.3562,-2.3562,-2.3607,-2.3718,-2.381,-2.3939,0.0,0.0,0.0,0.0,0.0,0.0,0.0,0.0,0.0,0.0,0.0,0.0,0.0,0.0,0.0,0.0,0.0,0.0,0.0,0.0,0.0,0.0,0.0,0.0,0.0,0.0,0.0,0.0,-2.4981,-2.4842,-2.476,0.0,0.0,0.0,0.0,0.0,0.0,0.0,0.0,0.0,0.0,-2.4399,-2.4242,-2.4399,0.0,0.0,-2.5723,-2.622,-2.6695,-2.7191,-2.7582,-2.7853,-2.8025,0.0,0.0,0.0,0.0,0.0,0.0,0.0,0.0,0.0,0.0,0.0,0.0,0.0,0.0,0.0,0.0,0.0,0.0,0.0,0.0,0.0,0.0,0.0,0.0,0.0,0.0,0.0,0.0,0.0,0.0,0.0,0.0,0.0,0.0,0.0,0.0,0.0,0.0,0.0,0.0,0.0,0.0,0.0,0.0,0.0,0.0,0.0,0.0,0.0,0.0,0.0,0.0,-2.3898,-2.3988,-2.3988,-2.4096,-2.4347,-2.4347,-2.4392,-2.4424,-2.4324,-2.4304,0.0,0.0,0.0,0.0,0.0,0.0,0.0,0.0,0.0,0.0,0.0,0.0,0.0,0.0,0.0,0.0,0.0,0.0,0.0,0.0,0.0,0.0,0.0,0.0,0.0,0.0,0.0,0.0,-2.5741,-2.5582,-2.5474,0.0,0.0,0.0,0.0,0.0,0.0,0.0,0.0,0.0,0.0,-2.5137,-2.5007,-2.5169,-2.5465,-2.607,-2.6296,-2.6623,-2.7234,-2.7757,-2.817,-2.8401,0.0,0.0,0.0,0.0,0.0,0.0,0.0,0.0,0.0,0.0,0.0,0.0,0.0,0.0,0.0,0.0,0.0,0.0,0.0,0.0,0.0,0.0,0.0,0.0,0.0,0.0,0.0,-2.3585,0.0,0.0,-2.3831,0.0,0.0,0.0,0.0,0.0,0.0,0.0,0.0,0.0,0.0,0.0,0.0,0.0,0.0,0.0,0.0,0.0,0.0,0.0,0.0,0.0,0.0,-2.4293,-2.4869,-2.4869,-2.5265,-2.5985,-2.6021,-2.6009,-2.5984,-2.5411,-2.512,-2.5262,0.0,0.0,0.0,0.0,0.0,0.0,0.0,0.0,0.0,0.0,0.0,0.0,0.0,0.0,0.0,0.0,0.0,0.0,0.0,0.0,0.0,0.0,0.0,0.0,0.0,0.0,-2.761,-2.7442,-2.7264,0.0,0.0,0.0,0.0,0.0,0.0,0.0,0.0,0.0,-2.5734,-2.6413,-2.6891,-2.6691,-2.6825,-2.7021,-2.7149,-2.7213,-2.7307,-2.7712,-2.8428,-2.9066,0.0,0.0,0.0,0.0,0.0,0.0,0.0,0.0,0.0,0.0,0.0,0.0,0.0,0.0,0.0,0.0,0.0,0.0,0.0,0.0,0.0,0.0,0.0,0.0,0.0,0.0,0.0,-2.5231,-2.5298,0.0,0.0,0.0,0.0,0.0,0.0,0.0,0.0,0.0,0.0,0.0,-2.6469,-2.6576,0.0,0.0,0.0,0.0,0.0,0.0,0.0,0.0,0.0,0.0,0.0,0.0,-2.501,-2.5092,-2.5623,-2.6,-2.6209,-2.6245,-2.6209,-2.6232,-2.6089,-2.6109,-2.6217,0.0,0.0,0.0,0.0,0.0,0.0,0.0,0.0,0.0,0.0,0.0,0.0,0.0,0.0,0.0,0.0,0.0,0.0,0.0,0.0,0.0,0.0,0.0,0.0,0.0,-2.7791,0.0,0.0,0.0,0.0,0.0,0.0,0.0,0.0,0.0,0.0,-2.6374,-2.6462,-2.6764,-2.7425,-2.7873,-2.7841,-2.8352,-2.883,0.0,0.0,0.0,0.0,0.0,0.0,0.0,0.0,0.0,0.0,0.0,0.0,0.0,0.0,-3.3149,-3.1256,-3.0779,-3.0511,-3.03,0.0,0.0,0.0,0.0,0.0,0.0,0.0,0.0,0.0,0.0,0.0,0.0,0.0,0.0,-2.6117,-2.6149,-2.571,0.0,0.0,0.0,0.0,0.0,0.0,0.0,0.0,-2.7163,-2.7354,-2.7354,-2.7463,-2.7548,-2.7631,-2.7732,-2.74,0.0,0.0,0.0,0.0,0.0,0.0,0.0,0.0,-2.6056,-2.6146,-2.668,-2.7002,-2.7228,-2.7205,-2.7205,-2.7205,-2.7017,-2.6891,-2.6703,-2.6879,-2.7081,0.0,0.0,0.0,0.0,0.0,0.0,0.0,0.0,0.0,0.0,0.0,0.0,0.0,0.0,0.0,0.0,0.0,0.0,0.0,0.0,0.0,0.0,0.0,-2.8714,0.0,0.0,0.0,0.0,0.0,0.0,0.0,0.0,0.0,-2.7441,-2.6957,-2.7068,-2.7805,-2.8233,-2.8583,-2.896,0.0,0.0,0.0,0.0,0.0,0.0,0.0,-3.1317,-3.1528,-3.1983,-3.2478,-3.2943,-3.3533,-3.4152,-3.486,0.0,0.0,-3.2776,-3.2423,-3.2403,-3.2184,-3.2679,-3.3143,-3.3072,-3.3543,-3.3962,0.0,0.0,0.0,0.0,-2.6235,0.0,0.0,0.0,-2.6296,-2.632,0.0,-2.6483,0.0,0.0,0.0,0.0,-2.6928,-2.7595,0.0,0.0,-2.8636,-2.9025,-2.9072,-2.914,-2.9267,-2.9376,-2.9444,-2.9116,-2.8409,-2.7734,0.0,0.0,0.0,0.0,0.0,0.0,-2.7325,-2.7843,-2.7917,-2.8279,-2.8925,-2.8915,-2.8892,-2.8855,-2.8205,-2.7521,-2.6851,-2.7008,-2.7157,-2.7298,-2.7425,0.0,0.0,0.0,0.0,0.0,0.0,0.0,0.0,0.0,0.0,0.0,0.0,0.0,0.0,0.0,0.0,0.0,0.0,0.0,0.0,-2.9967,0.0,0.0,0.0,0.0,0.0,0.0,0.0,0.0,0.0,-2.9631,-2.8479,-2.8039,-2.8082,-2.885,0.0,0.0,0.0,0.0,-3.0229,-3.0406,-3.0457,-3.0612,-3.0851,-3.1719,-3.2447,-3.2669,0.0,0.0,-3.5539,-3.5736,-3.596,-3.6745,-3.6795,-3.6377,-3.5117,-3.5248,-3.5571,-3.5346,-3.5114,-3.4978,-3.4871,-3.4723,-3.4565,-2.8513,0.0,0.0,0.0,0.0,-2.763,-2.7897,-2.7973,-2.7899,-2.7973,-2.8104,-2.761,0.0,0.0,0.0,0.0,0.0,0.0,-2.9991,-3.0462,-3.072,-3.083,-3.0867,-3.0937,-3.0983,-3.1006,-3.116,-3.1134,-3.093,-3.0885,-2.966,-2.7323,0.0,0.0,0.0,0.0,-2.8128,-2.8202,-2.87,-2.9026,-2.9178,-2.9215,-2.9156,-2.9112,-2.8935,-2.8778,-2.8565,-2.8723,-2.8858,-2.8967,-2.9103,0.0,0.0,0.0,0.0,0.0,0.0,0.0,0.0,0.0,0.0,0.0,0.0,0.0,0.0,0.0,0.0,0.0,0.0,0.0,-3.0233,-3.0385,-3.0458,0.0,0.0,0.0,0.0,0.0,0.0,0.0,0.0,0.0,-3.0394,-3.0004,-2.9822,0.0,0.0,-3.0898,-3.1209,-3.1765,-3.2179,-3.2281,-3.2397,0.0,-3.2754,-3.3159,-3.3713,-3.446,-3.5516,-3.6391,-3.6754,-3.6851,-3.6866,-3.7038,-3.7515,-3.7654,-3.7172,-3.647,-3.6024,-3.5872,-3.602,-3.6181,-3.6182,-3.6291,-3.6418,-3.044,-2.9717,-2.9521,-2.9228,-2.8891,-2.9331,-2.959,-2.9635,-2.9621,-2.9733,-2.9868,-2.9485,-2.9355,-2.9465,-2.9068,0.0,0.0,0.0,-3.1251,-3.1626,-3.1602,-3.1602,-3.1626,-3.1686,-3.1733,-3.1801,-3.1949,-3.2014,-3.2056,-3.2202,-3.1317,-2.9389,0.0,-2.9363,-2.933,-2.9787,-2.9981,-2.9851,-2.9944,-2.9997,-2.9895,-2.9535,-2.9307,-2.9228,-2.9307,-2.9349,-2.9353,-2.9511,-2.9626,-2.9699,-2.9855,-3.0167,0.0,0.0,0.0,0.0,0.0,0.0,0.0,0.0,0.0,0.0,0.0,-3.0836,-3.0889,0.0,0.0,0.0,-3.1057,-3.132,-3.1647,-3.162,0.0,0.0,0.0,0.0,0.0,0.0,0.0,-3.2044,-3.2046,-3.2035,-3.1887,-3.1946,-3.1771,-3.1218,-3.1541,-3.2002,-3.2421,0.0,-3.327,-3.335,-3.372,-3.4081,-3.4321,-3.4766,-3.5342,-3.5975,-3.6714,-3.7325,-3.7731,-3.7791,-3.786,-3.8131,-3.8498,-3.8726,-3.8639,-3.7904,-3.7292,-3.7184,-3.7275,-3.7453,-3.7745,-3.79,-3.7962,-3.1979,-3.2025,-3.1562,-3.1229,-3.1011,-3.1048,-3.1093,-3.1133,-3.1144,-3.1258,-3.1409,-3.1531,-3.1686,-3.1786,-3.1912,0.0,-3.2088,-3.198,-3.1912,-3.1918,-3.1834,-3.1834,-3.1918,-3.1918,-3.1987,-3.2098,-3.2179,-3.2243,-3.2323,-3.2447,-3.2581,-3.2713,-3.2711,-3.2616,-3.2446,-3.2409,-3.2354,-3.2222,-3.1487,-3.1017,-3.0807,-2.9959,-2.9448,-2.9332,-2.9373,-2.9394,-2.9414,-2.9589,-2.9701,-2.9735,-2.9964,-3.0487,-3.1346,0.0,0.0,0.0,0.0,0.0,0.0,0.0,0.0,0.0,0.0,0.0,0.0,0.0,0.0,0.0,-3.169,0.0,-3.3258,-3.3247,0.0,0.0,0.0,-3.3031,-3.2847,-3.2737,-3.2648,-3.2449,0.0,0.0,-3.3078,-3.3611,-3.3644,-3.263,-3.2365,-3.2684,-3.3505,-3.3689,-3.3797,-3.3944,-3.4686,-3.5309,-3.5514,-3.6311,-3.7028,-3.7265,-3.7392,-3.7851,-3.8493,-3.8644,-3.8924,-3.9505,-3.9599,-3.9526,-3.9602,-3.9399,-3.9286,-3.9127,-3.8793,-3.8761,-3.9395,-3.9335,-3.9228,-3.4367,-3.4533,-3.4479,-3.3094,-3.093,-3.1003,-3.1066,-3.1183,-3.119,-3.1283,-3.1483,-3.1531,-3.1709,-3.189,-3.1912,-3.2291,-3.291,-3.2888,-3.3164,-3.3738,-3.3738,-3.3738,-3.3738,-3.3738,-3.3799,-3.3807,-3.3889,-3.3911,-3.3955,-3.4103,-3.4544,-3.5111,-3.5248,-3.4376,-3.2607,-3.2496,-3.2479,-3.2424,-3.2201,-3.1694,-3.0979,-3.0658,-3.0225,-2.9568,-2.9531,-2.9569,-2.9608,-2.9683,-2.9737,-2.9839,-3.0582,-3.1127,-3.1454,-3.2199,0.0,0.0,0.0,0.0,0.0,0.0,0.0,0.0,0.0,-3.2076,-3.2753,0.0,-3.2773,0.0,-3.2959,-3.3166,-3.3345,-3.3343,0.0,0.0,-3.3664,-3.394,-3.3878,-3.4289,-3.4475,-3.4376,-3.4395,-3.4329,-3.4223,-3.43,-3.4307,-3.406,-3.3759,-3.3692,-3.3913,-3.4544,-3.4955,-3.5069,-3.5838,-3.6497,-3.6694,-3.7474,-3.8162,-3.8331,-3.8888,-3.9461,-3.9692,-3.965,-3.9683,-3.9829,-3.9762,-3.9958,-4.0465,-4.0478,-4.0637,-4.0979,-4.037,-3.9921,-4.0569,-4.0482,-4.0311,-3.5187,-3.5325,-3.5426,-3.4483,-3.2955,-3.3074,-3.3205,-3.3328,-3.334,-3.3442,-3.3681,-3.3795,-3.3944,-3.4134,-3.4134,-3.4404,-3.4862,-3.4899,-3.5123,-3.5511,-3.5511,-3.5525,-3.5488,-3.5511,-3.5511,-3.5535,-3.5581,-3.5642,-3.5664,-3.5797,-3.6125,-3.6562,-3.6646,-3.6064,-3.4864,-3.441,-3.403,-3.3646,-3.3253,-3.2596,-3.1692,-3.126,-3.0808,-3.0302,-2.9907,-2.9719,-2.9775,-2.9793,-3.0014,-3.0473,-3.0994,-3.1714,-3.2575,-3.3133,-3.3493,0.0,0.0,0.0,0.0,0.0,0.0,0.0,0.0,0.0,0.0,0.0,-3.3555,-3.3934,-3.3994,-3.4133,-3.451,-3.452,-3.4439,-3.4365,-3.4709,-3.493,-3.4866,-3.5109,-3.53,-3.5157,-3.5054,-3.5078,-3.5363,-3.536,-3.5471,-3.5889,-3.5744,-3.5394,-3.5006,-3.5589,-3.6222,-3.6293,-3.7038,-3.7845,-3.8237,-3.8801,-3.9207,-3.933,-3.9713,-4.0038,-4.0096,-4.0076,-4.0034,-3.9987,-4.023,-4.0541,-4.0901,-4.1218,-4.163,-4.2163,-4.1931,-4.1556,-4.1741,-4.1592,-4.1428,-3.5507,-3.5543,-3.5645,-3.5749,-3.578,-3.6013,-3.6064,-3.597,-3.5994,-3.6142,-3.6445,-3.6518,-3.6705,-3.6883,-3.6907,-3.6932,-3.6991,-3.7028,-3.6967,-3.6919,-3.6919,-3.6919,-3.6919,-3.6919,-3.6943,-3.7028,-3.7028,-3.7052,-3.7122,-3.7167,-3.7288,-3.7445,-3.7473,-3.7578,-3.7718,-3.7015,-3.6178,-3.5276,-3.442,-3.3549,-3.2699,-3.1944,-3.14,-3.1121,-3.044,-2.999,-2.9825,-2.9973,-3.0402,-3.1189,-3.1483,-3.2324,-3.3907,-3.4165,-3.4301,0.0,-3.4527,0.0,0.0,0.0,0.0,0.0,0.0,0.0,0.0,-3.3738,-3.4061,-3.4799,-3.4871,-3.5174,-3.5942,-3.5958,-3.5889,-3.5814,-3.5795,-3.5757,-3.5626,-3.5674,-3.5637,-3.5513,-3.5553,-3.5835,-3.6489,-3.6552,-3.6802,-3.7374,-3.7622,-3.7338,-3.6566,-3.6917,-3.7414,-3.7494,-3.8239,-3.906,-3.9692,-3.9962,-4.002,-4.0099,-4.0099,-4.0137,-4.0117,-4.0117,-4.0096,-4.0127,-4.0653,-4.1177,-4.1245,-4.1844,-4.2535,-4.3284,-4.3259,-4.305,-4.2885,-4.2631,-4.2585,-3.7148,-3.7149,-3.722,-3.7255,-3.7291,-3.7499,-3.6946,-3.595,-3.6,-3.6172,-3.65,-3.6545,-3.6679,-3.6833,-3.6883,-3.6932,-3.7004,-3.7052,-3.7075,-3.7075,-3.7075,-3.7075,-3.7075,-3.7038,-3.7038,-3.7099,-3.7099,-3.7099,-3.7122,-3.7167,-3.7551,-3.8192,-3.8304,-3.8369,-3.8491,0.0,0.0,0.0,-3.5348,-3.4492,-3.3658,-3.3538,-3.2743,-3.1331,-3.1124,0.0,-2.9948,-3.0536,-3.1004,-3.1293,-3.258,0.0,0.0,0.0,0.0,0.0,0.0,0.0,0.0,0.0,0.0,0.0,-3.7559,-3.6908,-3.5623,-3.5522,-3.5577,-3.5742,-3.5741,-3.5816,-3.5991,-3.5985,-3.597,-3.5889,-3.5853,-3.5795,-3.5766,-3.6348,-3.6682,-3.6563,-3.7115,-3.755,-3.767,-3.7625,-3.7686,-3.7916,-3.8421,-3.8678,-3.8473,-3.8442,-3.8517,-3.8652,-3.93,-3.9891,-4.0139,-4.0215,-4.0234,-4.0271,-4.0271,-4.0252,-4.0252,-4.0215,-4.0176,-4.0175,-4.076,-4.151,-4.2033,-4.2772,-4.353,-4.4229,-4.4233,-4.4129,-4.3794,-4.3541,-4.3345,-3.7577,-3.7577,-3.7649,-3.765,0.0,-3.7863,-3.7569,-3.6946,-3.7071,-3.729,-3.7595,-3.771,-3.7812,-3.7947,-3.8089,-3.8165,-3.824,-3.8314,-3.8362,-3.8338,-3.8324,-3.8362,-3.8362,-3.8362,-3.8324,-3.8362,-3.8338,-3.8338,-3.8362,-3.8385,-3.8597,-3.9034,-3.9104,-3.9173,-3.9283,-3.8971,-3.8213,-3.7051,-3.626,-3.5627,-3.5157,-3.4388,-3.3516,-3.2559,-3.2145,0.0,0.0,0.0,0.0,0.0,0.0,0.0,0.0,-3.5627,0.0,-3.6596,-3.6699,-3.6974,-3.7423,-3.7522,-3.782,-3.8297,-3.8377,-3.8059,-3.7301,-3.7237,-3.7248,-3.7258,-3.7265,-3.7304,-3.73,-3.7251,-3.7237,-3.718,-3.7141,-3.7138,-3.7125,-3.7441,-3.7667,-3.7583,-3.787,-3.8259,-3.8672,-3.8736,-3.8863,-3.9234,-3.9605,-3.9846,-3.9854,-3.9704,-3.96,-3.9618,-3.9942,-4.0286,-4.0307,-4.0325,-4.0342,-4.0342,-4.0342,-4.0325,-4.0363,-4.0309,-4.0234,-4.0311,-4.1147,-4.2112,-4.2443,-4.3398,-4.4323,-4.4572,-4.4551,-4.4411,-4.4207,-4.3955,-4.3763,-3.8005,-3.8005,-3.8005,-3.8006,-3.8079,-3.8259,-3.833,-3.8433,-3.8313,0.0,0.0,-3.884,-3.895,-3.9092,-3.9256,-3.9399,-3.9488,-3.9527,-3.9577,-3.9602,-3.9602,-3.9602,-3.9602,-3.9602,-3.9602,-3.9602,-3.9602,-3.9602,-3.9602,-3.9602,-3.9626,-3.965,-3.9712,-3.9746,-3.9829,-3.9292,-3.8689,-3.808,-3.716,-3.6697,-3.6663,-3.5229,-3.4318,-3.4044,-3.3244,-3.2661,-3.2424,-3.2558,-3.3031,-3.3957,-3.4147,-3.4925,-3.6425,-3.6649,-3.7007,-3.7708,-3.7901,-3.8046,-3.8271,-3.8376,-3.8489,-3.8711,-3.8771,-3.8747,-3.8545,-3.8521,-3.8528,-3.857,-3.8589,-3.8593,-3.8594,-3.8549,-3.8534,-3.8531,-3.8502,-3.8466,-3.8429,-3.8587,-3.8624,-3.8578,-3.8665,-3.8944,-3.9646,-3.9751,-3.9932,-4.0526,-4.0591,-4.0694,-4.0615,-4.0453,-4.0361,-4.0361,-4.0399,-4.0422,-4.0427,-4.0427,-4.0411,-4.0449,-4.0411,-4.0432,-4.0398,-4.0363,-4.0289,-4.0252,-4.157,-4.2463,-4.2661,-4.3809,-4.4814,-4.4764,-4.4632,-4.4496,-4.4354,-4.4177,-4.3955,-3.9575,-3.9575,-3.9575,-3.9575,-3.9575,-3.9725,-3.9911,-3.995,-3.8888,-3.8533,-3.8689,-3.878,-3.8862,-3.9007,-3.912,-3.9229,-3.9436,-3.9514,-3.9564,-3.9602,-3.9602,-3.9602,-3.9602,-3.9602,-3.9602,-3.9602,-3.9602,-3.9602,-3.9602,-3.9602,-3.9602,-3.9602,-3.965,-3.9722,-3.9754,-3.9754,-3.9705,-3.9553,-3.8195,-3.745,-3.7412,-3.6608,-3.5768,-3.4933,-3.4077,-3.3244,-3.2552,-3.3162,-3.3921,-3.4793,-3.5552,-3.6407,-3.7338,-3.7414,-3.7546,-3.7695,-3.7768,-3.8104,-3.9,-3.9084,-3.9507,-4.0343,-4.0519,-3.9988,-3.8656,-3.8532,-3.851,-3.8528,-3.8663,-3.8591,-3.8594,-3.8669,-3.8661,-3.857,-3.8561,-3.8497,-3.8622,-3.9189,-3.9551,-3.9505,-4.0118,-4.048,-4.0586,-4.0654,-4.0643,-4.0738,-4.0754,-4.0765,-4.0742,-4.0655,-4.0574,-4.0574,-4.0574,-4.0559,-4.0545,-4.0559,-4.0569,-4.0577,-4.0508,-4.0515,-4.0482,-4.0432,-4.036,-4.0307,-4.1629,-4.2563,-4.2692,-4.3938,-4.4735,-4.4889,-4.4764,-4.4605,-4.4468,-4.4325,-4.4116,-3.9896,-3.9896,-3.9896,-3.9896,-3.9932,-4.0045,-4.0197,-4.0347,-3.9766,-3.961,-3.9812,-4.001,-4.0099,-4.0184,-3.9888,-3.9816,-3.99,-3.9597,-3.9488,-3.9527,-3.9527,-3.9552,-3.9602,-3.9602,-3.9602,-3.9602,-3.9602,-3.9602,-3.9602,-3.9602,-3.9602,-3.9602,-3.9688,-3.9698,-3.9722,-3.9754,-3.98,-3.9762,-3.8781,-3.8271,-3.8233,-3.7508,-3.6842,-3.6425,-3.5948,-3.5551,-3.5116,-3.5457,-3.5816,-3.6212,-3.6629,-3.7217,-3.8033,-3.8171,-3.8421,-3.8859,-3.8995,-3.9279,-3.9712,-3.9868,-4.0198,-4.072,-4.0781,-4.0519,-3.9871,-3.9851,-3.9858,-3.9894,-3.9945,-3.9953,-3.9961,-3.996,-3.9956,-3.99,-3.9894,-3.9923,-3.9945,-4.0187,-4.0435,-4.0454,-4.0704,-4.0952,-4.0935,-4.0965,-4.0917,-4.0878,-4.0809,-4.0787,-4.0787,-4.0742,-4.0694,-4.0655,-4.0642,-4.0629,-4.0602,-4.0588,-4.0588,-4.0598,-4.0569,-4.0577,-4.0546,-4.0499,-4.0449,-4.0492,-4.1703,-4.2584,-4.2716,-4.4005,-4.4805,-4.4914,-4.4815,-4.4659,-4.4496,-4.4266,-4.3992,-4.0467,-4.0431,-4.0467,-4.0467,-4.0467,-4.0581,-4.0735,-4.0924,-4.0998,-4.1143,-4.1283,-4.1162,-4.1075,-4.1098,-4.0725,-4.0518,-4.0531,-4.0086,-3.9933,-4.0012,-4.0012,-4.0064,-4.0115,-4.014,-4.014,-4.014,-4.014,-4.014,-4.0103,-4.0115,-4.0115,-4.014,-4.0165,-4.0215,-4.0215,-4.0226,-4.025,-4.0198,-3.9624,-3.9199,-3.8971,-3.8211,-3.7773,-3.7715,-3.7489,-3.7336,-3.7305,-3.73,-3.7392,-3.7543,-3.758,-3.792,-3.8712,-3.8877,-3.9207,-3.9835,-4.0228,-4.0557,-4.0769,-4.0931,-4.1101,-4.1205,-4.1274,-4.1362,-4.1422,-4.1505,-4.1389,-4.1129,-4.0987,-4.1041,-4.1013,-4.1054,-4.1093,-4.1121,-4.1114,-4.1026,-4.1058,-4.1072,-4.1045,-4.1039,-4.1013,-4.0991,-4.0984,-4.0984,-4.0968,-4.0917,-4.0878,-4.0819,-4.0809,-4.0809,-4.0787,-4.0742,-4.0718,-4.0694,-4.0681,-4.0668,-4.0629,-4.064,-4.0612,-4.0622,-4.0607,-4.0546,-4.0537,-4.0674,-4.1757,-4.2642,-4.289,-4.4009,-4.4912,-4.4986,-4.484,-4.4685,-4.4468,-4.4177,-4.3897,-4.2037,-4.2073,-4.2002,-4.2073,-4.2002,-4.2195,-4.2239,-4.2322,-4.251,-4.27,-4.2668,-4.1533,-4.1046,-4.1075,-4.1098,-4.1249,-4.1438,-4.1423,-4.1436,-4.1502,-4.1577,-4.1632,-4.1611,-4.1649,-4.174,-4.1691,-4.1638,-4.1563,-4.1536,-4.1557,-4.1594,-4.1686,-4.1713,-4.1665,-4.1755,-4.1795,-4.1858,-4.1858,-4.1178,-4.0396,-3.9641,-3.881,-3.8417,-3.8395,-3.7709,-3.7293,-3.7392,-3.73,-3.7638,-3.8313,-3.8411,-3.8788,-3.9482,-3.9618,-3.9702,-3.9965,-4.0669,-4.1499,-4.2354,-4.2622,-4.2654,-4.2794,-4.2855,-4.295,-4.3001,-4.313,-4.2585,-4.15,-4.1124,-4.1147,-4.1114,-4.109,-4.1094,-4.1093,-4.1123,-4.1108,-4.1108,-4.1097,-4.1081,-4.1095,-4.1089,-4.1078,-4.1013,-4.1006,-4.0984,-4.0991,-4.0965,-4.0917,-4.0898,-4.0888,-4.0888,-4.0858,-4.0837,-4.0804,-4.0769,-4.0757,-4.0732,-4.0681,-4.0706,-4.0679,-4.0636,-4.0592,-4.0577,-4.0652,-4.1831,-4.2774,-4.312,-4.4034,-4.5094,-4.5057,-4.4914,-4.4712,-4.4383,-4.4147,-4.3892,-4.2287,-4.2287,-4.2287,-4.2287,-4.2287,-4.2364,-4.2445,-4.2566,-4.2609,-4.2765,-4.2882,-4.2414,-4.2265,-4.2438,-4.2029,-4.194,-4.2068,-4.1711,-4.1579,-4.1696,-4.1725,-4.1773,-4.1829,-4.1856,-4.1856,-4.1884,-4.1856,-4.1856,-4.1829,-4.1801,-4.1801,-4.1829,-4.1856,-4.1884,-4.1938,-4.1954,-4.2018,-4.2006,-4.1731,-4.1418,-4.0967,-3.9835,-3.9203,-3.9165,-3.8886,-3.8712,-3.8681,-3.8676,-3.8826,-3.9161,-3.9575,-4.0026,-4.0327,-4.0841,-4.1154,-4.1227,-4.1661,-4.2101,-4.2616,-4.2717,-4.2833,-4.2996,-4.3111,-4.3217,-4.3299,-4.3397,-4.3122,-4.2594,-4.2085,-4.1627,-4.1222,-4.1119,-4.1089,-4.1094,-4.1092,-4.1125,-4.1111,-4.1104,-4.1097,-4.112,-4.1106,-4.1134,-4.1078,-4.1013,-4.0984,-4.0999,-4.0982,-4.0994,-4.0946,-4.0907,-4.0898,-4.0888,-4.0878,-4.0848,-4.0792,-4.082,-4.0796,-4.0759,-4.0733,-4.0693,-4.0626,-4.0583,-4.0577,-4.0531,-4.198,-4.2887,-4.2889,-4.4095,-4.5213,-4.5103,-4.4914,-4.4659,-4.4411,-4.4177,-4.3961,-4.2287,-4.2287,-4.2287,-4.2287,-4.2287,-4.2287,-4.2405,-4.2486,-4.257,-4.2688,-4.2802,-4.2992,-4.3141,-4.325,-4.277,-4.2616,-4.2643,-4.2258,-4.2125,-4.2217,-4.2277,-4.2366,-4.2482,-4.2445,-4.2482,-4.2473,-4.2482,-4.2454,-4.2416,-4.2416,-4.2416,-4.2482,-4.2445,-4.2473,-4.2557,-4.2557,-4.2585,-4.264,-4.2452,-4.2329,-4.2168,-4.1005,-4.0339,-4.0339,-4.0339,-4.0314,-4.0327,-4.0278,-4.0253,-4.0253,-4.0816,-4.1116,-4.1154,-4.1731,-4.2171,-4.2448,-4.2635,-4.289,-4.3238,-4.3361,-4.3445,-4.3635,-4.3739,-4.3836,-4.3954,-4.4047,-4.4001,-4.3743,-4.3303,-4.2676,-4.1948,-4.1807,-4.1822,-4.1794,-4.1796,-4.1795,-4.1861,-4.1816,-4.1885,-4.1796,-4.1974,-4.1797,-4.1785,-4.1792,-4.184,-4.1832,-4.1721,-4.1616,-4.1607,-4.1684,-4.1684,-4.1607,-4.1646,-4.1383,-4.0959,-4.0792,-4.082,-4.0784,-4.0746,-4.072,-4.0693,-4.0766,-4.0954,-4.1309,-4.2475,-4.3269,-4.3483,-4.4498,-4.5273,-4.508,-4.4889,-4.4659,-4.444,-4.4207,-4.3992,-4.2287,-4.2287,-4.2287,-4.2287,-4.2287,-4.2287,-4.2405,-4.2521,-4.257,-4.2688,-4.2765,-4.288,-4.2994,-4.3141,-4.3213,-4.3355,-4.3387,-4.3379,-4.3476,-4.3606,-4.3675,-4.3881,-4.4072,-4.4102,-4.4095,-4.3938,-4.3841,-4.3855,-4.3794,-4.3831,-4.3974,-4.4035,-4.3923,-4.4058,-4.4042,-4.4005,-4.4175,-4.4046,-4.3512,-4.3175,-4.3144,-4.2355,-4.1905,-4.1905,-4.1882,-4.1769,-4.183,-4.1852,-4.1852,-4.1879,-4.1905,-4.1916,-4.198,-4.2055,-4.2547,-4.3316,-4.3504,-4.3966,-4.4737,-4.4903,-4.501,-4.5208,-4.5186,-4.5461,-4.5433,-4.5452,-4.5221,-4.4704,-4.4628,-4.4261,-4.3623,-4.3314,-4.3372,-4.3381,-4.3473,-4.3437,-4.3509,-4.3303,-4.3564,-4.3478,-4.3344,-4.3245,-4.3371,-4.3506,-4.3288,-4.3272,-4.3324,-4.3228,-4.3122,-4.3199,-4.3199,-4.3151,-4.3073,-4.2752,-4.1264,-4.1203,-4.1102,-4.1144,-4.1351,-4.0991,-4.1029,-4.1219,-4.1576,-4.211,-4.3184,-4.3939,-4.423,-4.4594,-4.5044,-4.508,-4.4865,-4.4659,-4.4468,-4.4207,-4.3992,-4.2287,-4.2287,-4.2287,-4.2287,-4.2287,-4.2287,-4.2405,-4.2521,-4.257,-4.2688,-4.2765,-4.2844,-4.2956,-4.2994,-4.3105,-4.3287,-4.3465,-4.3566,-4.3667,-4.3734,-4.3767,-4.3902,-4.3992,-4.3992,-4.4023,-4.4116,-4.4085,-4.4055,-4.4023,-4.4023,-4.4023,-4.4055,-4.4085,-4.4123,-4.4228,-4.4251,-4.4274,-4.4325,-4.4055,-4.3999,-4.3952,-4.3717,-4.3567,-4.3557,-4.2543,-4.198,-4.2018,-4.1991,-4.1991,-4.2018,-4.2543,-4.2844,-4.2881,-4.3359,-4.3815,-4.4221,-4.431,-4.4586,-4.5042,-4.5125,-4.5197,-4.5381,-4.5475,-4.5603,-4.5696,-4.5771,-4.5686,-4.5503,-4.558,-4.5442,-4.511,-4.4343,-4.3708,-4.3684,-4.37,-4.3789,-4.3707,-4.3696,-4.372,-4.3716,-4.3704,-4.3674,-4.3753,-4.3607,-4.3583,-4.3527,-4.3539,-4.3559,-4.351,-4.351,-4.3578,-4.3479,-4.3402,-4.3186,-4.2664,-4.2482,-4.2482,-4.2421,-4.2434,-4.2421,-4.2433,-4.2391,-4.2695,-4.2765,-4.3778,-4.4303,-4.4499,-4.4687,-4.5115,-4.5103,-4.4889,-4.4659,-4.4496,-4.4237,-4.3961,-4.2287,-4.2287,-4.2287,-4.2287,-4.2287,-4.2328,-4.2405,-4.2521,-4.2609,-4.2688,-4.2804,-4.288,-4.2882,-4.2956,-4.3067,-4.3178,-4.3359,-4.3463,-4.3566,-4.3634,-4.3704,-4.3771,-4.3832,-4.3897,-4.3929,-4.3992,-4.3986,-4.4023,-4.4023,-4.4023,-4.4023,-4.4023,-4.4023,-4.4023,-4.4129,-4.4123,-4.4184,-4.4274,-4.4325,-4.4383,-4.4411,-4.4468,-4.4496,-4.4346,-4.338,-4.2779,-4.2844,-4.2779,-4.2779,-4.2881,-4.3407,-4.367,-4.3745,-4.425,-4.4632,-4.4712,-4.4764,-4.4889,-4.508,-4.5103,-4.5175,-4.5381,-4.5438,-4.553,-4.5703,-4.5742,-4.5814,-4.5905,-4.5975,-4.6076,-4.5905,-4.5137,-4.4514,-4.454,-4.4552,-4.4568,-4.4526,-4.4591,-4.4579,-4.461,-4.4636,-4.4532,-4.444,-4.4456,-4.4431,-4.4326,-4.4346,-4.4326,-4.4316,-4.4316,-4.4266,-4.4234,-4.435,-4.4327,-4.4175,-4.4175,-4.3465,-4.3312,-4.3208,-4.3349,-4.3515,-4.3511,-4.362,-4.3689,-4.3987,-4.4418,-4.4729,-4.4913,-4.4995,-4.5065,-4.4914,-4.4659,-4.4468,-4.4199,-4.3992,-4.2287,-4.2287,-4.2287,-4.2287,-4.2328,-4.2445,-4.2521,-4.2526,-4.2724,-4.2802,-4.2804,-4.2844,-4.2882,-4.292,-4.3067,-4.3141,-4.3214,-4.3359,-4.3499,-4.36,-4.3603,-4.3671,-4.3804,-4.3869,-4.3897,-4.3929,-4.3992,-4.4023,-4.4023,-4.4023,-4.4023,-4.4023,-4.4023,-4.4023,-4.4023,-4.4023,-4.4085,-4.4289,-4.4386,-4.4475,-4.4458,-4.4693,-4.4759,-4.4684,-4.4571,-4.4533,-4.4533,-4.4421,-4.4308,-4.4346,-4.4383,-4.4496,-4.4421,-4.4541,-4.4632,-4.4712,-4.4789,-4.4914,-4.508,-4.5125,-4.5235,-4.5361,-4.54,-4.5494,-4.5687,-4.5696,-4.5757,-4.5893,-4.598,-4.6035,-4.6113,-4.602,-4.5947,-4.6214,-4.5987,-4.601,-4.6087,-4.6225,-4.6214,-4.6041,-4.5913,-4.6131,-4.6123,-4.5857,-4.5715,-4.5726,-4.5706,-4.5675,-4.5576,-4.5576,-4.5786,-4.5762,-4.5479,-4.5273,-4.5557,-4.5738,-4.4744,-4.3956,-4.3788,-4.38,-4.4042,-4.4152,-4.4392,-4.4498,-4.4662,-4.5091,-4.5017,-4.5163,-4.5071,-4.5057,-4.484,-4.4659,-4.4468,-4.4237,-4.4072,-4.2287,-4.2287,-4.2287,-4.2328,-4.2445,-4.2445,-4.2566,-4.2685,-4.2802,-4.2804,-4.288,-4.2882,-4.2882,-4.2956,-4.3031,-4.3141,-4.3214,-4.3323,-4.3429,-4.3532,-4.3532,-4.3566,-4.3667,-4.3767,-4.3865,-4.3961,-4.4023,-4.4023,-4.4023,-4.4023,-4.4023,-4.4023,-4.4023,-4.4023,-4.4098,-4.4023,-4.4278,-4.4966,-4.5095,-4.5417,-4.6031,-4.6165,-4.6186,-4.6223,-4.6223,-4.6223,-4.6186,-4.5134,-4.4533,-4.4533,-4.4496,-4.4496,-4.4589,-4.4632,-4.4712,-4.4789,-4.4889,-4.4986,-4.5103,-4.523,-4.5337,-4.5419,-4.5438,-4.553,-4.5665,-4.5696,-4.5757,-4.5893,-4.5941,-4.6035,-4.6074,-4.6137,-4.6209,-4.6226,-4.6288,-4.6312,-4.6289,-4.6278,-4.6257,-4.6231,-4.6187,-4.6164,-4.6146,-4.6122,-4.6095,-4.6056,-4.6025,-4.6003,-4.5991,-4.5968,-4.5917,-4.588,-4.5919,-4.5906,-4.588,-4.5852,-4.5336,-4.478,-4.4612,-4.4481,-4.4645,-4.4755,-4.5032,-4.5158,-4.5358,-4.54,-4.5381,-4.526,-4.5148,-4.501,-4.484,-4.4659,-4.4468,-4.4319,-4.4225,-4.2757,-4.2757,-4.2512,-4.2445,-4.2526,-4.2566,-4.2685,-4.2802,-4.2804,-4.288,-4.2882,-4.2882,-4.2882,-4.2956,-4.3067,-4.3141,-4.3214,-4.3323,-4.3429,-4.3497,-4.3497,-4.3532,-4.36,-4.3701,-4.3902,-4.3992,-4.4023,-4.4023,-4.4023,-4.4023,-4.4172,-4.4432,-4.4469,-4.4692,-4.4883,-4.4984,-4.5307,-4.5786,-4.5985,-4.627,-4.678,-4.6982,-4.7012,-4.7012,-4.7012,-4.7012,-4.6936,-4.596,-4.5435,-4.5435,-4.5463,-4.5491,-4.5509,-4.5628,-4.5696,-4.5773,-4.5886,-4.6007,-4.6062,-4.6266,-4.6105,-4.5956,-4.5936,-4.5855,-4.578,-4.5712,-4.58,-4.5893,-4.5953,-4.6007,-4.6113,-4.6176,-4.6203,-4.6215,-4.6245,-4.6273,-4.6288,-4.6282,-4.6257,-4.6236,-4.622,-4.6151,-4.6138,-4.6104,-4.6085,-4.5997,-4.6003,-4.598,-4.5968,-4.5944,-4.5919,-4.5893,-4.588,-4.5866,-4.5838,-4.581,-4.5771,-4.5641,-4.5549,-4.5403,-4.5387,-4.5356,-4.55,-4.5355,-4.5475,-4.54,-4.536,-4.5235,-4.508,-4.4962,-4.4815,-4.4632,-4.4449,-4.4594,-4.4568,-4.3578,-4.3483,-4.288,-4.2597,-4.2609,-4.2763,-4.2802,-4.2804,-4.288,-4.2918,-4.2882,-4.2882,-4.292,-4.2956,-4.3067,-4.3142,-4.3214,-4.3358,-4.3538,-4.3644,-4.3644,-4.3679,-4.3637,-4.3738,-4.3865,-4.3992,-4.4023,-4.4061,-4.4209,-4.4209,-4.4544,-4.5254,-4.5398,-4.5695,-4.6145,-4.6504,-4.6494,-4.6706,-4.6869,-4.7005,-4.7222,-4.7245,-4.7274,-4.7312,-4.7312,-4.735,-4.735,-4.7199,-4.7049,-4.7003,-4.6835,-4.6826,-4.7033,-4.7219,-4.7174,-4.715,-4.7416,-4.74,-4.7594,-4.7532,-4.735,-4.6877,-4.6703,-4.6544,-4.6028,-4.5873,-4.5827,-4.5905,-4.5964,-4.6027,-4.6083,-4.6137,-4.6209,-4.6192,-4.6257,-4.6284,-4.6286,-4.6309,-4.6249,-4.6231,-4.6215,-4.6183,-4.6122,-4.6095,-4.6056,-4.6014,-4.5991,-4.5968,-4.5932,-4.5906,-4.5841,-4.5827,-4.5814,-4.5838,-4.581,-4.5781,-4.5727,-4.575,-4.5735,-4.5758,-4.5726,-4.5693,-4.562,-4.555,-4.5438,-4.54,-4.5298,-4.5192,-4.5057,-4.4914,-4.4764,-4.4578,-4.4616,-4.4792,-4.513,-4.4127,-4.3632,-4.3489,-4.318,-4.2799,-4.2802,-4.284,-4.288,-4.2882,-4.2882,-4.2918,-4.2882,-4.2992,-4.3067,-4.3178,-4.3251,-4.3468,-4.3501,-4.383,-4.4342,-4.4378,-4.4081,-4.3778,-4.3808,-4.3939,-4.4029,-4.4209,-4.4321,-4.4915,-4.4952,-4.5398,-4.6178,-4.6178,-4.6322,-4.6541,-4.6717,-4.7005,-4.7617,-4.7723,-4.8122,-4.8671,-4.8746,-4.8852,-4.8852,-4.8776,-4.8776,-4.8814,-4.8875,-4.8265,-4.7136,-4.709,-4.7109,-4.7332,-4.7451,-4.7567,-4.7606,-4.7667,-4.77,-4.7831,-4.7979,-4.7872,-4.7702,-4.7317,-4.681,-4.6667,-4.6104,-4.5905,-4.5905,-4.5964,-4.6037,-4.6091,-4.6183,-4.622,-4.6253,-4.6278,-4.6289,-4.6284,-4.63,-4.6275,-4.6187,-4.6203,-4.6169,-4.613,-4.6085,-4.6095,-4.6003,-4.5968,-4.5905,-4.5906,-4.5866,-4.5814,-4.58,-4.5824,-4.581,-4.5781,-4.575,-4.5735,-4.5687,-4.5726,-4.5709,-4.5637,-4.5603,-4.5568,-4.5475,-4.5438,-4.536,-4.5256,-4.5148,-4.501,-4.494,-4.481,-4.4731,-4.4946,-4.5111,-4.5621,-4.5072,-4.4689,-4.4479,-4.4025,-4.3385,-4.3351,-4.3172,-4.2918,-4.2882,-4.2882,-4.2992,-4.3356,-4.3539,-4.3613,-4.409,-4.4346,-4.4382,-4.449,-4.4782,-4.5112,-4.5223,-4.5037,-4.4844,-4.4767,-4.4868,-4.4962,-4.4994,-4.5324,-4.5732,-4.5807,-4.6252,-4.6847,-4.7029,-4.721,-4.776,-4.7746,-4.7959,-4.8503,-4.8646,-4.9008,-4.9452,-4.949,-4.9521,-4.9521,-4.9551,-4.9551,-4.9544,-4.9604,-4.9144,-4.839,-4.823,-4.8277,-4.8386,-4.8439,-4.8517,-4.8618,-4.8715,-4.8823,-4.8892,-4.9001,-4.8951,-4.8683,-4.8179,-4.7863,-4.7542,-4.6844,-4.6423,-4.6523,-4.6279,-4.6104,-4.6154,-4.6196,-4.6236,-4.627,-4.6289,-4.6284,-4.6321,-4.6296,-4.6275,-4.622,-4.6196,-4.6154,-4.6122,-4.6076,-4.6035,-4.598,-4.5905,-4.588,-4.588,-4.5852,-4.5863,-4.5926,-4.5935,-4.5959,-4.5966,-4.5935,-4.5979,-4.5945,-4.5988,-4.5911,-4.5817,-4.5704,-4.5552,-4.5496,-4.5418,-4.5375,-4.5382,-4.5346,-4.5179,-4.5078,-4.4927,-4.5148,-4.5494,-4.5611,-4.614,-4.6198,-4.6266,-4.5585,-4.4907,-4.4258,-4.4229,-4.3901,-4.3281,-4.3281,-4.3281,-4.3464,-4.4084,-4.4376,-4.4487,-4.5149,-4.5699,-4.5736,-4.5627,-4.5847,-4.603,-4.6177,-4.6287,-4.6322,-4.5985,-4.6015,-4.6045,-4.6405,-4.6513,-4.6587,-4.6624,-4.707,-4.7661,-4.788,-4.8319,-4.8688,-4.9043,-4.9289,-4.9246,-4.9309,-4.9377,-4.9521,-4.9521,-4.9551,-4.9574,-4.9604,-4.9634,-4.9692,-4.9721,-4.9608,-4.9712,-4.9778,-4.9711,-4.9792,-4.9922,-4.9987,-5.0035,-4.9992,-5.0138,-5.0342,-5.0274,-5.0221,-4.9622,-4.9483,-4.9264,-4.8531,-4.7804,-4.7377,-4.7423,-4.6785,-4.6691,-4.669,-4.6644,-4.6761,-4.6868,-4.6715,-4.6588,-4.6507,-4.6413,-4.627,-4.6181,-4.6137,-4.6099,-4.6065,-4.6046,-4.598,-4.5893,-4.5867,-4.5841,-4.5969,-4.6081,-4.6128,-4.6152,-4.6175,-4.6166,-4.6188,-4.6155,-4.6219,-4.6299,-4.6377,-4.6359,-4.6186,-4.6052,-4.5707,-4.5571,-4.574,-4.5824,-4.5803,-4.5683,-4.5609,-4.5584,-4.5723,-4.6035,-4.6331,-4.6394,-4.6687,-4.6751,-4.6302,-4.623,-4.5771,-4.5128,-4.5059,-4.495,-4.4729,-4.4765,-4.4657,-4.4841,-4.5101,-4.5251,-4.5366,-4.5735,-4.581,-4.603,-4.6067,-4.6214,-4.6911,-4.7535,-4.7755,-4.7573,-4.6836,-4.6313,-4.6416,-4.6479,-4.6847,-4.7293,-4.7516,-4.785,-4.8553,-4.8658,-4.8911,-4.916,-4.9262,-4.9358,-4.9459,-4.949,-4.9521,-4.9582,-4.9582,-4.9604,-4.9663,-4.9692,-4.9721,-4.9778,-4.9835,-4.989,-4.9944,-4.9906,-4.9906,-4.9986,-5.0089,-5.0188,-5.0298,-5.0367,-5.0435,-5.0521,-5.0566,-5.0568,-5.0391,-4.9975,-4.9575,-4.9436,-4.8748,-4.8344,-4.831,-4.8184,-4.8015,-4.8014,-4.8235,-4.8147,-4.8085,-4.816,-4.8184,-4.8049,-4.705,-4.6488,-4.6307,-4.6271,-4.6104,-4.6105,-4.618,-4.6111,-4.5893,-4.5905,-4.5814,-4.6081,-4.6445,-4.6568,-4.6706,-4.6904,-4.7006,-4.6989,-4.6932,-4.6877,-4.6877,-4.6877,-4.6914,-4.674,-4.6452,-4.6181,-4.6139,-4.6249,-4.6268,-4.6377,-4.6542,-4.6495,-4.6523,-4.6545,-4.6731,-4.6905,-4.7021,-4.7007,-4.7234,-4.7,-4.7036,-4.6644,-4.5924,-4.5843,-4.5667,-4.5345,-4.5309,-4.5349,-4.5497,-4.587,-4.613,-4.6282,-4.6762,-4.702,-4.7021,-4.7021,-4.7241,-4.7719,-4.8122,-4.8269,-4.8271,-4.7721,-4.7348,-4.7381,-4.7559,-4.7924,-4.8147,-4.8259,-4.8516,-4.8959,-4.9135,-4.9127,-4.9262,-4.9358,-4.9421,-4.9514,-4.9551,-4.9612,-4.9634,-4.9634,-4.9692,-4.9807,-4.9835,-4.989,-4.9906,-4.9959,-4.9986,-5.0038,-5.0038,-5.0063,-5.0089,-5.0188,-5.0259,-5.0367,-5.0457,-5.0521,-5.0566,-5.0625,-5.0663,-5.0808,-5.0449,-5.0395,-5.0143,-4.9652,-4.9293,-4.9139,-4.8919,-4.8691,-4.8777,-4.8853,-4.8903,-4.8906,-4.8897,-4.8829,-4.8638,-4.7963,-4.7405,-4.7377,-4.7445,-4.7359,-4.724,-4.695,-4.7004,-4.7168,-4.7171,-4.7117,-4.7108,-4.7405,-4.7409,-4.7527,-4.7798,-4.7914,-4.7914,-4.7837,-4.7683,-4.7604,-4.7524,-4.7461,-4.7341,-4.7013,-4.6686,-4.6793,-4.6976,-4.6958,-4.7036,-4.7192,-4.7333,-4.7311,-4.7313,-4.7416,-4.7427,-4.7453,-4.7361,-4.7572,-4.7699,-4.7699,-4.7301,-4.6716,-4.6633,-4.6349,-4.578,-4.5671,-4.5969,-4.5976,-4.6713,-4.7085,-4.7273,-4.7864,-4.8269,-4.8233,-4.8196,-4.8122,-4.8196,-4.8269,-4.8306,-4.8271,-4.8311,-4.8347,-4.8605,-4.8635,-4.8779,-4.8779,-4.889,-4.885,-4.9101,-4.9164,-4.923,-4.9289,-4.9421,-4.9551,-4.9574,-4.9604,-4.9634,-4.9721,-4.9721,-4.9807,-4.9906,-4.9959,-5.0024,-5.0076,-5.0127,-5.0114,-5.0152,-5.0188,-5.0236,-5.0236,-5.0259,-5.0367,-5.0435,-5.0542,-5.0604,-5.0625,-5.0701,-5.0773,-5.089,-5.0883,-5.0956,-5.0817,-5.0526,-5.0228,-4.9971,-4.9737,-4.9379,-4.922,-4.9485,-4.9453,-4.941,-4.9306,-4.9184,-4.9191,-4.9145,-4.9052,-4.8513,-4.8224,-4.8055,-4.8153,-4.805,-4.8266,-4.8385,-4.8359,-4.8291,-4.8238,-4.8317,-4.826,-4.8413,-4.87,-4.8907,-4.8924,-4.8826,-4.8668,-4.8531,-4.8334,-4.8251,-4.8219,-4.8172,-4.7995,-4.7729,-4.7756,-4.7745,-4.7775,-4.7956,-4.8009,-4.8007,-4.789,-4.7794,-4.7826,-4.7875,-4.7554,-4.7572,-4.7699,-4.7699,-4.7627,-4.7518,-4.7476,-4.7368,-4.7337,-4.7275,-4.7461,-4.7506,-4.7813,-4.7892,-4.8043,-4.8157,-4.8306,-4.8306,-4.8306,-4.8306,-4.8306,-4.8306,-4.8306,-4.8344,-4.8532,-4.8569,-4.8641,-4.8785,-4.889,-4.889,-4.889,-4.8996,-4.9064,-4.9164,-4.9225,-4.9321,-4.9483,-4.9612,-4.9634,-4.9663,-4.9721,-4.9807,-4.9824,-4.9906,-5.0038,-5.0063,-5.0089,-5.0114,-5.0188,-5.0259,-5.0259,-5.0374,-5.0435,-5.0435,-5.0412,-5.0457,-5.0542,-5.0566,-5.0645,-5.0701,-5.0773,-5.088,-5.0906,-5.0995,-5.1063,-5.1097,-5.1055,-5.0906,-5.0945,-5.0907,-5.0859,-5.0973,-5.0742,-5.0892,-5.091,-5.0801,-5.0725,-5.0696,-5.0538,-5.0062,-4.9204,-4.886,-4.8747,-4.8903,-4.8933,-4.8894,-4.8887,-4.8816,-4.8702,-4.8605,-4.8774,-4.9001,-4.9286,-4.963,-4.9832,-4.9954,-4.9854,-4.9716,-4.9539,-4.9415,-4.9352,-4.9378,-4.9568,-4.9428,-4.8795,-4.8553,-4.8559,-4.8616,-4.8671,-4.8562,-4.8438,-4.8309,-4.8122,-4.7882,-4.7705,-4.7371,-4.7657,-4.7699,-4.7699,-4.7699,-4.7699,-4.7699,-4.7741,-4.7819,-4.7861,-4.7943,-4.8065,-4.8148,-4.8226,-4.8265,-4.8267,-4.8306,-4.8306,-4.8306,-4.8306,-4.8306,-4.8306,-4.8306,-4.8306,-4.8532,-4.8569,-4.8641,-4.8785,-4.889,-4.889,-4.889,-4.8996,-4.9131,-4.9197,-4.9257,-4.9452,-4.9544,-4.9671,-4.973,-4.9816,-4.99,-4.9955,-4.9997,-5.0076,-5.0152,-5.0226,-5.0212,-5.0259,-5.0367,-5.0412,-5.0435,-5.0478,-5.0521,-5.0542,-5.0525,-5.0563,-5.0624,-5.0645,-5.0701,-5.0773,-5.088,-5.0929,-5.1005,-5.105,-5.1136,-5.118,-5.1239,-5.1296,-5.1347,-5.1379,-5.14,-5.1328,-5.14,-5.1379,-5.1386,-5.1356,-5.132,-5.1248,-5.119,-5.053,-4.9795,-4.9871,-4.9868,-4.9823,-4.9765,-4.9563,-4.9433,-4.9296,-4.9137,-4.8996,-4.9197,-4.9496,-4.9639,-4.9907,-4.9973,-5.0114,-5.0089,-5.0089,-5.0038,-5.0012,-4.9986,-4.9933,-4.9814,-4.9683,-4.9343,-4.9297,-4.9077,-4.9032,-4.8958,-4.8915,-4.875,-4.8346,-4.7999,-4.7793,-4.7536,-4.7151,-4.7699,-4.7699,-4.7699,-4.7699,-4.7699,-4.7741,-4.7783,-4.7902,-4.7943,-4.8065,-4.8187,-4.8226,-4.8265,-4.8267,-4.8306,-4.8306,-4.8306,-4.8306,-4.8306,-4.8306,-4.8306,-4.8306,-4.8344,-4.8458,-4.8605,-4.8642,-4.8785,-4.8855,-4.889,-4.8962,-4.9064,-4.9164,-4.923,-4.9358,-4.9544,-4.9868,-4.9881,-5.0109,-5.0372,-5.0453,-5.0532,-5.0609,-5.0659,-5.0732,-5.0841,-5.0964,-5.1101,-5.1207,-5.1037,-5.0943,-5.0849,-5.0755,-5.0642,-5.0625,-5.0683,-5.0837,-5.0817,-5.0812,-5.088,-5.0929,-5.099,-5.1075,-5.1101,-5.118,-5.1248,-5.1328,-5.133,-5.1391,-5.1406,-5.1404,-5.1394,-5.1406,-5.1375,-5.1356,-5.132,-5.1248,-5.1201,-5.1086,-5.1037,-5.0734,-5.089,-5.067,-5.0387,-5.0314,-5.0067,-4.9928,-4.9784,-4.9733,-4.9625,-4.9692,-4.9885,-4.9886,-4.9974,-4.9948,-4.9997,-4.9959,-4.9933,-4.9906,-4.9917,-4.989,-4.9835,-4.975,-4.9646,-4.955,-4.9265,-4.907,-4.9155,-4.9094,-4.882,-4.8532,-4.819,-4.787,-4.7621,-4.7276,-4.6916,-4.7699,-4.7699,-4.7699,-4.7699,-4.7699,-4.7824,-4.7907,-4.7947,-4.8068,-4.8148,-4.8226,-4.8265,-4.8267,-4.8306,-4.8306,-4.8306,-4.8306,-4.8306,-4.8306,-4.8306,-4.8306,-4.8306,-4.8306,-4.8457,-4.8532,-4.8605,-4.8751,-4.8857,-4.8927,-4.8996,-4.9098,-4.9197,-4.937,-4.9459,-4.98,-5.0455,-5.0837,-5.113,-5.1744,-5.2156,-5.2272,-5.2322,-5.2394,-5.2464,-5.251,-5.2472,-5.2379,-5.2384,-5.2274,-5.1736,-5.17,-5.1395,-5.0818,-5.0682,-5.12,-5.1447,-5.1365,-5.088,-5.1083,-5.1261,-5.1358,-5.1489,-5.1403,-5.1298,-5.1569,-5.1669,-5.1662,-5.1405,-5.1481,-5.1623,-5.1713,-5.144,-5.1374,-5.1351,-5.1326,-5.1201,-5.1097,-5.1024,-5.0966,-5.0851,-5.0808,-5.072,-5.0491,-5.0548,-5.0527,-5.0418,-5.0321,-5.0226,-5.0089,-5.0038,-4.9959,-4.9917,-4.9938,-4.991,-5.0147,-5.0071,-5.0194,-5.0081,-5.0128,-5.007,-5.0086,-5.0101,-4.9626,-4.9496,-4.9235,-4.9027,-4.9027,-4.889,-4.8605,-4.8306,-4.7992,-4.7705,-4.7407,-4.7053,-4.6637,-4.7699,-4.7699,-4.7699,-4.7777,-4.7819,-4.7866,-4.7988,-4.8068,-4.8148,-4.8226,-4.8265,-4.8267,-4.8306,-4.8306,-4.8306,-4.8306,-4.8306,-4.8306,-4.8306,-4.8306,-4.8306,-4.8306,-4.8306,-4.8457,-4.8532,-4.8605,-4.8714,-4.8857,-4.8927,-4.9068,-4.9098,-4.9272,-4.9808,-5.0197,-5.0425,-5.129,-5.1708,-5.2047,-5.241,-5.2692,-5.2815,-5.29,-5.2985,-5.3031,-5.3114,-5.3135,-5.3135,-5.3102,-5.3007,-5.2644,-5.2646,-5.257,-5.23,-5.226,-5.2468,-5.2679,-5.263,-5.2469,-5.25,-5.2496,-5.2434,-5.2535,-5.2611,-5.2816,-5.2801,-5.2761,-5.2812,-5.2911,-5.2901,-5.2801,-5.261,-5.231,-5.2091,-5.1901,-5.1667,-5.1392,-5.1244,-5.0995,-5.0906,-5.0808,-5.0758,-5.0875,-5.0891,-5.0768,-5.0725,-5.0497,-5.0392,-5.0304,-5.0085,-4.9852,-4.9807,-4.9721,-4.9776,-4.9822,-5.0169,-5.0365,-5.0854,-5.0861,-5.1093,-5.1024,-5.0842,-5.0665,-5.0188,-4.9674,-4.9396,-4.9182,-4.9002,-4.8678,-4.842,-4.8111,-4.7788,-4.7493,-4.7187,-4.6695,-4.635,-4.7699,-4.7741,-4.7741,-4.7819,-4.7866,-4.7947,-4.8032,-4.819,-4.8226,-4.8265,-4.8267,-4.8306,-4.8306,-4.8306,-4.8306,-4.8306,-4.8306,-4.8306,-4.8306,-4.8306,-4.8306,-4.8306,-4.8306,-4.8419,-4.8495,-4.8569,-4.8678,-4.8822,-4.9002,-4.9254,-4.9504,-4.9566,-5.0252,-5.0823,-5.139,-5.2181,-5.2855,-5.3324,-5.3544,-5.3666,-5.3736,-5.3744,-5.3788,-5.3832,-5.3776,-5.3797,-5.3818,-5.3916,-5.3936,-5.3571,-5.3591,-5.3475,-5.3185,-5.3106,-5.3353,-5.3636,-5.3739,-5.3979,-5.3945,-5.3883,-5.3778,-5.3758,-5.3827,-5.3682,-5.3818,-5.3984,-5.3976,-5.3782,-5.376,-5.3813,-5.3783,-5.3213,-5.2991,-5.264,-5.2313,-5.1967,-5.1709,-5.1687,-5.1747,-5.1871,-5.1838,-5.1526,-5.1459,-5.117,-5.0923,-5.0621,-5.0456,-5.041,-5.0336,-5.0183,-5.0244,-5.031,-5.0353,-5.0434,-5.066,-5.097,-5.1382,-5.1645,-5.1802,-5.1765,-5.1466,-5.1174,-5.077,-5.0291,-4.9815,-4.9749,-4.9825,-4.8972,-4.819,-4.7911,-4.7578,-4.7276,-4.6916,-4.6447,-4.6055,-4.7777,-4.7861,-4.7861,-4.7902,-4.7947,-4.8108,-4.819,-4.8194,-4.8269,-4.8306,-4.8344,-4.8306,-4.8306,-4.8306,-4.8306,-4.8306,-4.8306,-4.8306,-4.8306,-4.8306,-4.8306,-4.8306,-4.8306,-4.8344,-4.842,-4.8569,-4.8642,-4.875,-4.9076,-4.9769,-5.0098,-5.0389,-5.0992,-5.1419,-5.2167,-5.3139,-5.402,-5.4549,-5.4877,-5.5071,-5.5176,-5.528,-5.534,-5.5499,-5.5596,-5.5692,-5.5692,-5.548,-5.5171,-5.4535,-5.4516,-5.4303,-5.3974,-5.3855,-5.4121,-5.4575,-5.4777,-5.5109,-5.532,-5.4699,-5.3969,-5.3896,-5.4086,-5.4346,-5.4452,-5.4173,-5.4072,-5.4273,-5.4437,-5.4251,-5.41,-5.3799,-5.373,-5.353,-5.3222,-5.2939,-5.2753,-5.2801,-5.2872,-5.3031,-5.282,-5.2329,-5.2372,-5.2141,-5.1713,-5.1472,-5.1375,-5.1319,-5.1299,-5.1211,-5.1265,-5.1316,-5.132,-5.1398,-5.1473,-5.17,-5.1887,-5.2111,-5.2263,-5.2113,-5.1852,-5.1558,-5.1376,-5.1119,-5.075,-5.0672,-5.0404,-4.9548,-4.8685,-4.7922,-4.7479,-4.7267,-4.6791,-4.6253,-4.5905,-4.7861,-4.7902,-4.8024,-4.8068,-4.8108,-4.8226,-4.8306,-4.8382,-4.8458,-4.8495,-4.8495,-4.8495,-4.8458,-4.8457,-4.8419,-4.8381,-4.8306,-4.8306,-4.8306,-4.8306,-4.8306,-4.8306,-4.8306,-4.8344,-4.842,-4.8532,-4.8605,-4.8714,-4.9002,-4.9993,-5.0729,-5.1166,-5.1882,-5.2529,-5.3248,-5.4012,-5.4828,-5.5235,-5.5531,-5.5682,-5.5745,-5.5787,-5.5865,-5.5885,-5.5905,-5.5905,-5.5847,-5.5885,-5.5712,-5.548,-5.5402,-5.5112,-5.4898,-5.4838,-5.5045,-5.5459,-5.5583,-5.5874,-5.6175,-5.568,-5.5424,-5.5428,-5.5538,-5.5462,-5.5349,-5.545,-5.5494,-5.5496,-5.535,-5.5199,-5.5335,-5.4886,-5.4513,-5.44,-5.4168,-5.392,-5.3824,-5.379,-5.3703,-5.3725,-5.3318,-5.2861,-5.3015,-5.3225,-5.2743,-5.2334,-5.2305,-5.2258,-5.2221,-5.2098,-5.2105,-5.2039,-5.2004,-5.2082,-5.2194,-5.2305,-5.2381,-5.2567,-5.2753,-5.2678,-5.2529,-5.2306,-5.2122,-5.1899,-5.1563,-5.1222,-5.0729,-4.9971,-4.9247,-4.8555,-4.7868,-4.7299,-4.6737,-4.618,-4.5891,-4.7943,-4.8024,-4.8148,-4.8226,-4.8265,-4.8343,-4.842,-4.8532,-4.8569,-4.8569,-4.8569,-4.8569,-4.8569,-4.8495,-4.8494,-4.8457,-4.8344,-4.8306,-4.8306,-4.8306,-4.8306,-4.8306,-4.8306,-4.8344,-4.842,-4.8532,-4.8642,-4.8714,-4.8964,-5.0176,-5.1024,-5.1907,-5.3075,-5.3685,-5.4095,-5.4814,-5.5413,-5.5531,-5.5703,-5.5807,-5.5866,-5.5904,-5.598,-5.5998,-5.6016,-5.6016,-5.5998,-5.5998,-5.598,-5.5902,-5.5921,-5.5959,-5.5977,-5.6012,-5.6046,-5.6094,-5.6194,-5.6251,-5.6317,-5.6397,-5.6416,-5.6237,-5.6344,-5.6406,-5.651,-5.6519,-5.6244,-5.6246,-5.6299,-5.6378,-5.6302,-5.5707,-5.5384,-5.532,-5.5059,-5.4823,-5.4739,-5.4697,-5.4512,-5.44,-5.407,-5.3996,-5.3972,-5.4218,-5.3872,-5.3508,-5.3497,-5.3359,-5.3165,-5.2997,-5.2783,-5.2713,-5.2567,-5.2716,-5.2903,-5.294,-5.3051,-5.3126,-5.3312,-5.3497,-5.3349,-5.3088,-5.2864,-5.2712,-5.2336,-5.1772,-5.1381,-5.1085,-5.0206,-4.9225,-4.8519,-4.7829,-4.7327,-4.683,-4.6326,-4.8024,-4.8187,-4.8304,-4.8306,-4.8344,-4.8457,-4.8569,-4.8605,-4.8642,-4.8642,-4.8605,-4.8605,-4.8642,-4.8605,-4.8569,-4.8494,-4.8457,-4.8344,-4.8306,-4.8306,-4.8306,-4.8306,-4.8306,-4.8344,-4.842,-4.8532,-4.8605,-4.8714,-4.8927,-5.0623,-5.1507,-5.2273,-5.3509,-5.4633,-5.4784,-5.5236,-5.5531,-5.5703,-5.5808,-5.5941,-5.6012,-5.6046,-5.6094,-5.6149,-5.6149,-5.6149,-5.6133,-5.6117,-5.6101,-5.6084,-5.6068,-5.6029,-5.6029,-5.6101,-5.6133,-5.618,-5.6329,-5.6394,-5.6464,-5.6533,-5.6652,-5.6569,-5.6546,-5.6637,-5.6553,-5.6595,-5.6769,-5.6961,-5.67,-5.6503,-5.638,-5.6239,-5.6149,-5.6006,-5.5758,-5.5637,-5.5513,-5.541,-5.5186,-5.5036,-5.5343,-5.5506,-5.5322,-5.5174,-5.4922,-5.4714,-5.4685,-5.4458,-5.3996,-5.3746,-5.3454,-5.3273,-5.3163,-5.3275,-5.3423,-5.3571,-5.3683,-5.3794,-5.3794,-5.3794,-5.3794,-5.3571,-5.3419,-5.345,-5.3071,-5.2508,-5.2468,-5.24,-5.1256,-5.0067,-4.9198,-4.8508,-4.8032,-4.749,-4.7002,-4.8148,-4.8304,-4.8381,-4.8532,-4.8642,-4.8679,-4.8715,-4.8751,-4.8785,-4.8785,-4.8785,-4.8785,-4.8787,-4.8751,-4.8715,-4.8606,-4.8494,-4.8457,-4.8419,-4.8306,-4.8306,-4.8306,-4.8306,-4.8344,-4.842,-4.8532,-4.8605,-4.8714,-4.8927,-5.081,-5.1619,-5.2311,-5.3891,-5.4914,-5.5157,-5.5437,-5.5621,-5.5768,-5.5921,-5.6062,-5.6141,-5.6132,-5.6199,-5.6265,-5.6304,-5.6329,-5.6432,-5.6442,-5.6388,-5.6358,-5.6366,-5.6327,-5.6288,-5.6343,-5.6296,-5.6442,-5.6667,-5.7453,-5.7878,-5.8133,-5.7602,-5.7055,-5.6747,-5.6985,-5.7239,-5.7336,-5.758,-5.7722,-5.7419,-5.7259,-5.7172,-5.6576,-5.633,-5.6253,-5.6096,-5.6054,-5.5971,-5.5891,-5.5784,-5.5672,-5.5807,-5.566,-5.5437,-5.5314,-5.5157,-5.5,-5.4852,-5.4673,-5.4255,-5.4156,-5.3975,-5.3832,-5.3721,-5.3795,-5.3869,-5.3943,-5.4017,-5.4017,-5.3905,-5.3794,-5.3794,-5.4017,-5.379,-5.3709,-5.3555,-5.3359,-5.2937,-5.2454,-5.1886,-5.1008,-5.0048,-4.9164,-4.8487,-4.81,-4.775,-4.8265,-4.8381,-4.8494,-4.8642,-4.8787,-4.8787,-4.8822,-4.8857,-4.8892,-4.889,-4.889,-4.889,-4.8892,-4.8857,-4.8787,-4.8751,-4.8606,-4.8494,-4.8457,-4.8344,-4.8306,-4.8306,-4.8306,-4.8344,-4.8458,-4.8569,-4.8678,-4.8787,-4.9071,-5.081,-5.2132,-5.3245,-5.4334,-5.5069,-5.5389,-5.5577,-5.5768,-5.5902,-5.6078,-5.6185,-5.6239,-5.6329,-5.6469,-5.6664,-5.6819,-5.6924,-5.7094,-5.7146,-5.708,-5.7053,-5.7063,-5.7048,-5.7048,-5.7048,-5.7063,-5.7324,-5.7625,-5.8343,-5.878,-5.8928,-5.8325,-5.7734,-5.7495,-5.7728,-5.8148,-5.824,-5.8429,-5.8501,-5.8343,-5.8192,-5.7923,-5.7249,-5.7107,-5.7029,-5.6809,-5.6805,-5.6606,-5.6527,-5.6188,-5.6134,-5.6039,-5.5797,-5.5638,-5.5364,-5.5236,-5.5113,-5.4941,-5.4805,-5.4656,-5.4521,-5.442,-5.4314,-5.4168,-5.4131,-5.4167,-5.4278,-5.4277,-5.424,-5.4314,-5.4464,-5.4537,-5.4834,-5.4383,-5.3931,-5.3702,-5.3429,-5.285,-5.2371,-5.1958,-5.1437,-5.0708,-4.9889,-4.9063,-4.8692,-4.8464,-4.8304,-4.8494,-4.8569,-4.8678,-4.8787,-4.8822,-4.8857,-4.889,-4.889,-4.889,-4.889,-4.889,-4.889,-4.8892,-4.8822,-4.8787,-4.8751,-4.8606,-4.8532,-4.8457,-4.8381,-4.8344,-4.8381,-4.8457,-4.8569,-4.8605,-4.8714,-4.8895,-4.9288,-5.0946,-5.2742,-5.4178,-5.4846,-5.5301,-5.5554,-5.5768,-5.5902,-5.6024,-5.6185,-5.6239,-5.6297,-5.6534,-5.6943,-5.7303,-5.7644,-5.8024,-5.8325,-5.8537,-5.853,-5.8571,-5.8609,-5.8605,-5.8668,-5.8746,-5.8799,-5.8842,-5.888,-5.9085,-5.9428,-5.956,-5.948,-5.9198,-5.9177,-5.9207,-5.9134,-5.9137,-5.9334,-5.9367,-5.921,-5.906,-5.8842,-5.8661,-5.848,-5.8181,-5.7818,-5.7635,-5.7397,-5.7063,-5.6626,-5.6441,-5.6445,-5.6305,-5.623,-5.5998,-5.6027,-5.6011,-5.5922,-5.5738,-5.5486,-5.4919,-5.4822,-5.4683,-5.4538,-5.4429,-5.4541,-5.4912,-5.5061,-5.521,-5.5544,-5.5693,-5.5728,-5.5616,-5.5241,-5.4754,-5.4041,-5.3497,-5.2967,-5.2536,-5.2162,-5.1607,-5.1129,-5.0699,-4.9923,-4.9567,-4.9284,-4.8494,-4.8569,-4.8678,-4.8822,-4.8892,-4.8855,-4.8892,-4.889,-4.889,-4.889,-4.889,-4.889,-4.889,-4.889,-4.8892,-4.8857,-4.8787,-4.8715,-4.8606,-4.8569,-4.8604,-4.8494,-4.8457,-4.8494,-4.8606,-4.8715,-4.8822,-4.8964,-4.9504,-5.1045,-5.2635,-5.3946,-5.5007,-5.5408,-5.5707,-5.5921,-5.6024,-5.6117,-5.6226,-5.6386,-5.6641,-5.6979,-5.7471,-5.7946,-5.8499,-5.8921,-5.9131,-5.9191,-5.9153,-5.9082,-5.8931,-5.8907,-5.8869,-5.8895,-5.8997,-5.981,-5.996,-6.0156,-6.0722,-6.0861,-6.0773,-6.0728,-6.078,-6.0502,-6.028,-6.0087,-6.0254,-6.0213,-6.0098,-5.9911,-5.9709,-5.9529,-5.9348,-5.9063,-5.8725,-5.8464,-5.8241,-5.7924,-5.7528,-5.7404,-5.7332,-5.7215,-5.7126,-5.7152,-5.7186,-5.7136,-5.6965,-5.6711,-5.6383,-5.5826,-5.548,-5.5344,-5.5428,-5.5433,-5.566,-5.6071,-5.6107,-5.6219,-5.6591,-5.6777,-5.6591,-5.6405,-5.6141,-5.5614,-5.4859,-5.3944,-5.3054,-5.2736,-5.2604,-5.2041,-5.1565,-5.1244,-5.0875,-5.0379,-5.0021,-4.8569,-4.8605,-4.8751,-4.8857,-4.889,-4.889,-4.889,-4.889,-4.889,-4.889,-4.889,-4.889,-4.889,-4.889,-4.8927,-4.9041,-4.9377,-4.9342,-4.927,-4.9196,-4.9048,-4.8827,-4.8716,-4.8643,-4.8679,-4.8787,-4.8892,-4.9033,-4.9679,-5.1124,-5.2815,-5.384,-5.4918,-5.55,-5.5788,-5.599,-5.6117,-5.6214,-5.6336,-5.6563,-5.7034,-5.7531,-5.8013,-5.8772,-5.9402,-5.9664,-5.997,-5.995,-5.9966,-6.0,-5.9971,-5.995,-5.9993,-5.9993,-6.0055,-6.0739,-6.0788,-6.0993,-6.1315,-6.1446,-6.1593,-6.1697,-6.1715,-6.1405,-6.1121,-6.0939,-6.1134,-6.1205,-6.0984,-6.075,-6.0522,-6.0293,-6.0074,-5.9905,-5.9607,-5.9347,-5.9124,-5.8901,-5.8723,-5.8562,-5.8433,-5.8297,-5.8231,-5.8319,-5.815,-5.7838,-5.766,-5.7516,-5.7206,-5.6808,-5.6538,-5.6375,-5.65,-5.6587,-5.689,-5.708,-5.7192,-5.7342,-5.7753,-5.7828,-5.7566,-5.7191,-5.6891,-5.6286,-5.564,-5.4764,-5.3885,-5.3397,-5.3116,-5.2534,-5.1979,-5.1556,-5.1246,-5.0786,-5.05,-4.8532,-4.8642,-4.8714,-4.8857,-4.889,-4.889,-4.889,-4.889,-4.889,-4.889,-4.889,-4.889,-4.8964,-4.915,-4.9187,-4.9633,-4.9969,-5.0156,-5.012,-5.0083,-5.001,-4.9714,-4.927,-4.8899,-4.912,-4.9043,-4.9036,-4.9247,-4.9888,-5.1292,-5.2826,-5.3807,-5.4968,-5.5643,-5.5847,-5.604,-5.6187,-5.6297,-5.6475,-5.6722,-5.7506,-5.8031,-5.867,-5.9979,-6.0487,-6.0792,-6.1334,-6.1598,-6.1615,-6.1573,-6.1529,-6.1354,-6.1284,-6.1262,-6.1312,-6.1373,-6.1344,-6.1422,-6.1534,-6.1595,-6.1621,-6.169,-6.1711,-6.1639,-6.1483,-6.1424,-6.1537,-6.1549,-6.1292,-6.1218,-6.1061,-6.0962,-6.0822,-6.0669,-6.0436,-6.0268,-6.0109,-5.9886,-5.9653,-5.9547,-5.9418,-5.9282,-5.9241,-5.9293,-5.9281,-5.8726,-5.8577,-5.8515,-5.8307,-5.8005,-5.7666,-5.7472,-5.7753,-5.7918,-5.7887,-5.8081,-5.8198,-5.8463,-5.8728,-5.8878,-5.8577,-5.8091,-5.7602,-5.7037,-5.6472,-5.5706,-5.4938,-5.4415,-5.3772,-5.2976,-5.2426,-5.1901,-5.1525,-5.1264,-5.0838,-4.8642,-4.8751,-4.8857,-4.889,-4.889,-4.889,-4.889,-4.889,-4.889,-4.8927,-4.889,-4.8964,-4.9262,-4.967,-4.9819,-5.0302,-5.0933,-5.1045,-5.1009,-5.0935,-5.0935,-5.0713,-5.0417,-4.9898,-4.9786,-4.9633,-4.9551,-4.9716,-5.0573,-5.1819,-5.2948,-5.3963,-5.504,-5.5707,-5.5884,-5.6087,-5.6239,-5.6349,-5.6636,-5.7063,-5.7835,-5.8627,-5.9421,-6.0376,-6.0884,-6.1367,-6.1758,-6.1772,-6.172,-6.166,-6.1634,-6.1573,-6.1578,-6.1539,-6.1539,-6.1549,-6.1598,-6.1578,-6.1603,-6.158,-6.1641,-6.1666,-6.1694,-6.1707,-6.1679,-6.1707,-6.1676,-6.166,-6.1641,-6.1603,-6.1568,-6.1549,-6.1518,-6.1367,-6.1201,-6.1097,-6.0992,-6.0779,-6.0561,-6.0455,-6.0364,-6.0268,-6.019,-6.0205,-6.0256,-6.0227,-6.0219,-6.0147,-5.9894,-5.9557,-5.8959,-5.8813,-5.9147,-5.9279,-5.91,-5.8959,-5.9005,-5.9087,-5.9317,-5.9432,-5.951,-5.8952,-5.8353,-5.7903,-5.734,-5.6655,-5.6034,-5.5484,-5.4773,-5.379,-5.3207,-5.2794,-5.2172,-5.1757,-5.1193,-4.8678,-4.8787,-4.8892,-4.889,-4.889,-4.889,-4.889,-4.889,-4.889,-4.9113,-4.941,-4.9485,-4.9707,-5.0265,-5.0488,-5.1119,-5.1825,-5.1936,-5.1899,-5.1825,-5.1751,-5.1491,-5.1195,-5.0898,-5.0749,-5.056,-5.0477,-5.0754,-5.1487,-5.2408,-5.347,-5.4142,-5.5125,-5.5748,-5.5921,-5.6132,-5.6275,-5.6407,-5.6769,-5.7473,-5.8241,-5.8992,-5.9913,-6.074,-6.1406,-6.1875,-6.2226,-6.2329,-6.2544,-6.2725,-6.2889,-6.2867,-6.2765,-6.2465,-6.2221,-6.2065,-6.1919,-6.1578,-6.1634,-6.1681,-6.1736,-6.1804,-6.1705,-6.1725,-6.1701,-6.1718,-6.1711,-6.1701,-6.1671,-6.1648,-6.1603,-6.1568,-6.1559,-6.1412,-6.1343,-6.1266,-6.1225,-6.1104,-6.0965,-6.0954,-6.0845,-6.0751,-6.0713,-6.0634,-6.0706,-6.0702,-6.0834,-6.0827,-6.0734,-6.0699,-6.0162,-5.9873,-6.0065,-6.0061,-5.9809,-5.9709,-5.9722,-5.9809,-5.9782,-5.9715,-5.9613,-5.9472,-5.9139,-5.8615,-5.8165,-5.7707,-5.7089,-5.6504,-5.5684,-5.4784,-5.4277,-5.3832,-5.3139,-5.2426,-5.2183,-4.8678,-4.8822,-4.8892,-4.889,-4.889,-4.889,-4.889,-4.8927,-4.9039,-4.9447,-5.0079,-5.0339,-5.0413,-5.0711,-5.1156,-5.1974,-5.2531,-5.2679,-5.2754,-5.2754,-5.2754,-5.2494,-5.2122,-5.1676,-5.149,-5.134,-5.1295,-5.1715,-5.234,-5.3089,-5.3708,-5.4332,-5.5025,-5.5748,-5.5956,-5.6117,-5.6251,-5.6573,-5.7112,-5.8114,-5.8757,-5.9319,-6.0312,-6.1169,-6.1868,-6.2265,-6.2772,-6.3232,-6.3564,-6.374,-6.3917,-6.3889,-6.3756,-6.3341,-6.3175,-6.2932,-6.262,-6.2318,-6.2171,-6.2258,-6.2196,-6.2095,-6.1914,-6.1927,-6.2027,-6.2052,-6.2069,-6.2108,-6.2094,-6.2022,-6.1953,-6.1837,-6.1781,-6.1705,-6.1639,-6.146,-6.1419,-6.1376,-6.1345,-6.1297,-6.1208,-6.1137,-6.106,-6.1022,-6.1021,-6.1018,-6.0997,-6.0955,-6.0933,-6.0866,-6.058,-6.0405,-6.0418,-6.0387,-6.0275,-6.0188,-6.0129,-6.0068,-6.0007,-5.9912,-5.9782,-5.9647,-5.9508,-5.9326,-5.8878,-5.8385,-5.7996,-5.745,-5.6595,-5.5733,-5.5301,-5.4822,-5.4044,-5.3488,-5.346,-4.8822,-4.8892,-4.889,-4.889,-4.889,-4.889,-4.889,-4.9002,-4.9596,-5.0005,-5.0488,-5.1602,-5.2122,-5.2122,-5.2234,-5.2754,-5.3274,-5.3423,-5.3534,-5.3571,-5.3423,-5.3385,-5.3125,-5.2494,-5.2083,-5.1931,-5.1962,-5.2278,-5.2994,-5.3445,-5.4031,-5.4917,-5.5197,-5.5643,-5.5865,-5.6001,-5.6226,-5.657,-5.7312,-5.8272,-5.9109,-5.979,-6.0663,-6.1521,-6.2368,-6.269,-6.3125,-6.3705,-6.405,-6.4236,-6.437,-6.4418,-6.4357,-6.4216,-6.4003,-6.3789,-6.3478,-6.3331,-6.3214,-6.3214,-6.3193,-6.331,-6.3249,-6.3343,-6.3403,-6.3427,-6.3458,-6.3545,-6.3476,-6.3263,-6.3154,-6.2772,-6.2625,-6.2367,-6.2262,-6.181,-6.156,-6.1492,-6.1423,-6.1352,-6.1225,-6.1173,-6.1118,-6.1099,-6.1041,-6.1041,-6.1021,-6.1,-6.0997,-6.0976,-6.0993,-6.0866,-6.0772,-6.066,-6.0533,-6.0425,-6.037,-6.0313,-6.0217,-6.0068,-5.9944,-5.9918,-5.9753,-5.9508,-5.9327,-5.8951,-5.8567,-5.8132,-5.758,-5.6793,-5.628,-5.5728,-5.4986,-5.4538,-5.4527]}]]